     2.10           OBSERVATION DATA    G (GPS)             RINEX VERSION / TYPE
teqc 2005Jan28 UNAVCO Archive Ops 20050505 19:35:29UTC      PGM / RUN BY / DATE
Solaris 2.7|Ultra 2|cc SC5.0|=+-|*Sparc                     COMMENT
BIT 2 OF LLI FLAGS DATA COLLECTED UNDER A/S CONDITION       COMMENT
FISH                                                        MARKER NAME
3202                                                        MARKER NUMBER
Everyone UM-RSMAS/Penn State                                OBSERVER / AGENCY
3842A24361 TRIMBLE 4000SSI NP 7.19 / SP 3.04                REC # / TYPE / VERS
0220214131 TRM29659.00                                      ANT # / TYPE
 -2375133.0000 -4458283.0000  3883281.0000                  APPROX POSITION XYZ
        0.5000        0.0000        0.0000                  ANTENNA: DELTA H/E/N
     1     1                                                WAVELENGTH FACT L1/2
     6    L1    L2    C1    P2    P1    D1                  # / TYPES OF OBSERV
    15.0000                                                 INTERVAL
NOTICE: YOUR USE OF THIS FILE IMPLIES YOUR                  COMMENT
ACCEPTANCE OF THE UNAVCO DATA SHARING POLICY                COMMENT
READ THE POLICY AT:                                         COMMENT
http://www.unavco.org/community/policies_forms              COMMENT
/DataPolicy.html                                            COMMENT
AND FOLLOW THE POLICY OR DELETE THIS FILE.                  COMMENT
                                                            COMMENT
RINEX file created by UNAVCO GPS Archive.                   COMMENT
For more information contact archive@unavco.org             COMMENT
Monument ID: 11039                                          COMMENT
UNAVCO 4-char name: FISH                                    COMMENT
4-char name from log or data file: FISH                     COMMENT
Monument name: Fish Lake                                    COMMENT
Monument location: 37.737 -118.046 2442                     COMMENT
Original XYZ: -2375482.3200 -4458992.4771 3883894.2459      COMMENT
New XYZ position is based on association with SCEC monument COMMENT
E1G2A8P9+0011.                                              COMMENT
Visit ID: 59492 RawID: 238217                               COMMENT
Filename: FISH2750 DAT EPH ION MES                          COMMENT
Antenna height measured: .5                                 COMMENT
Antenna height measured type: V                             COMMENT
Corrected antenna height validated? Y                       COMMENT
If Yes, then logsheet & data file values are identical      COMMENT
End of DB comments                                          COMMENT
SNR is mapped to RINEX snr flag value [1-9]                 COMMENT
L1: 3 -> 1; 8 -> 5; 40 -> 9                                 COMMENT
L2: 1 -> 1; 5 -> 5; 60 -> 9                                 COMMENT
  2001    10     2     0     0   15.0000000     GPS         TIME OF FIRST OBS
                                                            END OF HEADER
 01 10  2  0  0 15.0000000  0  9G13G 3G10G 8G28G 1G 2G27G31
 -22414007.77458 -17315608.05656  21468671.2584   21468677.2814
     -2434.9844
  -4964732.94254   4346974.84155  24308411.5474   24308424.9224
     -2577.9844
  -4920201.40955   -153147.87355  23917553.8984   23917564.8484
      -256.9534
 -23939508.62658 -18313773.04857  21018450.2664   21018457.0274
      1410.0784
 -17678841.20057 -13549502.16756  21952755.1884   21952762.1524
      1976.3754
  -6543208.77355   2667562.13355  24113745.1644   24113760.4734
     -3611.3754
 -10014111.56456  -1313218.98456  23119342.7974   23119352.2234
      2062.2664
 -27131041.69358 -20958034.93557  20879527.1254   20879533.4184
       235.7194
 -18662259.18657    -79052.42056  21958786.6804   21958794.7584
      -649.2504
 01 10  2  0  0 30.0000000  0  9G13G 3G10G 8G28G 1G 2G27G31
 -22377422.90948 -17287100.40046  21475633.2344   21475639.5044
     -2442.8754
  -4926006.94944   4377150.86045  24315780.1724   24315792.9844
     -2585.3754
  -4916273.20645   -150086.96845  23918301.2664   23918312.8364
      -266.7034
 -23960627.59448 -18330229.37247  21014431.7504   21014438.5354
      1405.8754
 -17708438.79047 -13572565.18246  21947122.6724   21947129.3874
      1970.0634
  -6489010.44745   2709794.43845  24124059.0394   24124076.0824
     -3614.9534
 -10045009.49346  -1337295.22546  23113462.9064   23113473.0474
      2057.5634
 -27134542.23548 -20960762.62947  20878860.9924   20878867.2734
       231.1254
 -18652435.60747    -71397.68346  21960656.1174   21960664.1374
      -660.4534
 01 10  2  0  0 45.0000000  0  9G13G 3G10G 8G28G 1G 2G27G31
 -22340719.33348 -17258500.25446  21482617.5944   21482623.8984
     -2451.0164
  -4887169.83044   4407413.54345  24323171.3594   24323186.2814
     -2593.0164
  -4912198.57745   -146911.95445  23919076.7974   23919088.8364
      -276.6724
 -23981682.90648 -18346636.09247  21010424.8444   21010431.7504
      1401.4224
 -17737941.11547 -13595553.97246  21941508.4454   21941515.2894
      1963.5164
  -6434758.56245   2752068.55945  24134382.2344   24134395.2704
     -3618.7034
 -10075836.40546  -1361316.13546  23107596.4144   23107607.2704
      2052.6094
 -27137973.27148 -20963436.16447  20878208.0164   20878214.2504
       226.2664
 -18642443.55347    -63611.67346  21962557.2424   21962564.8404
      -671.9064
 01 10  2  0  1  0.0000000  0  9G13G 3G10G 8G28G 1G 2G27G31
 -22303895.40248 -17229806.32846  21489625.3444   21489631.4734
     -2458.9224
  -4848220.00844   4437763.99045  24330583.1334   24330595.9574
     -2600.4064
  -4907975.75245   -143621.47145  23919880.8754   23919890.7464
      -286.4534
 -24002672.72248 -18362991.77747  21006430.5784   21006437.3874
      1397.1564
 -17767346.41247 -13618467.15946  21935913.0314   21935919.5704
      1957.1254
  -6380451.52445   2794385.64145  24144716.7584   24144729.8754
     -3622.2814
 -10106590.36446  -1385280.20346  23101744.2424   23101754.3244
      2047.8284
 -27141332.86848 -20966054.03447  20877568.7734   20877575.0084
       221.5944
 -18632281.14047    -55692.91746  21964491.2664   21964499.0394
      -683.1724
 01 10  2  0  1 15.0000000  0  9G13G 3G10G 8G28G 1G 2G27G31
 -22266951.76648 -17201019.11346  21496655.3134   21496661.3594
     -2466.9064
  -4809158.23644   4468201.68345  24338016.8204   24338028.6954
     -2607.8124
  -4903605.27145   -140215.89545  23920712.1334   23920722.2624
      -296.2974
 -24023597.51348 -18379296.78947  21002448.8204   21002455.6914
      1392.8134
 -17796654.93447 -13641304.93146  21930335.7194   21930341.8364
      1950.6724
  -6326090.08045   2836745.04545  24155060.8754   24155079.6994
     -3625.9064
 -10137271.85346  -1409187.80246  23095906.0084   23095916.0554
      2043.0164
 -27144621.35548 -20968616.49247  20876942.8754   20876949.1914
       216.8594
 -18621948.85847    -47641.79246  21966457.3984   21966465.2194
      -694.4844
 01 10  2  0  1 30.0000000  0  9G13G 3G10G 8G28G 1G 2G27G31
 -22229888.48448 -17172138.68046  21503708.2814   21503714.4224
     -2474.6724
  -4769984.70844   4498726.47545  24345470.9614   24345483.0234
     -2615.0624
  -4899087.04045   -136695.26945  23921571.8674   23921582.7234
      -305.9224
 -24044456.92448 -18395550.86147  20998479.1804   20998485.9774
      1388.6414
 -17825866.47347 -13664067.13846  21924776.8444   21924783.4654
      1944.3914
  -6271674.41345   2879146.65645  24165417.1484   24165433.3594
     -3629.3124
 -10167880.76446  -1433038.84446  23090081.0474   23090091.3404
      2038.3754
 -27147838.53848 -20971123.38847  20876330.7274   20876336.9964
       212.2974
 -18611446.77747    -39458.35446  21968455.7424   21968463.4454
      -705.5944
 01 10  2  0  1 45.0000000  0  9G13G 3G10G 8G28G 1G 2G27G31
 -22192705.68248 -17143165.10346  21510783.6414   21510789.8404
     -2482.7504
  -4730699.53344   4529338.21145  24352947.3054   24352959.1804
     -2622.6254
  -4894421.24545   -133059.59145  23922459.7274   23922469.4574
      -315.9064
 -24065250.86148 -18411753.90947  20994522.1884   20994529.0084
      1384.1724
 -17854980.84547 -13686753.61946  21919236.8364   21919243.6454
      1937.8134
  -6217204.63145   2921590.51845  24175782.9534   24175798.8954
     -3633.0314
 -10198416.98346  -1456833.23946  23084269.8754   23084280.4264
      2033.4224
 -27150984.14248 -20973574.50747  20875732.0864   20875738.2854
       207.4064
 -18600774.81547    -31142.54546  21970486.5234   21970494.4144
      -717.0314
 01 10  2  0  2  0.0000000  0  9G13G 3G10G 8G28G 1G 2G27G31
 -22155401.22348 -17114096.73846  21517882.4064   21517888.5594
     -2491.0004
  -4691300.78144   4560038.53045  24360443.8204   24360455.8244
     -2630.3284
  -4889605.61245   -129307.15645  23923375.8524   23923387.4344
      -326.0164
 -24085976.92248 -18427904.07147  20990578.2814   20990585.1414
      1379.5004
 -17883995.82247 -13709362.65746  21913715.0634   21913721.5904
      1931.0314
  -6162678.67745   2964078.20545  24186157.9224   24186170.9924
     -3636.9064
 -10228878.16946  -1480569.17646  23078473.8834   23078483.9774
      2028.2664
 -27154055.84248 -20975968.03747  20875147.4774   20875153.7114
       202.3444
 -18589930.77047    -22692.63146  21972550.0784   21972558.3204
      -728.6564
 01 10  2  0  2 15.0000000  0  9G13G 3G10G 8G28G 1G 2G27G31
 -22117976.34548 -17084934.53746  21525004.3134   21525010.4064
     -2498.8594
  -4651789.83844   4590826.25445  24367962.3054   24367977.0634
     -2637.6564
  -4884641.28245   -125438.89345  23924321.0554   23924332.6024
      -335.7814
 -24106636.03648 -18444002.06347  20986647.0784   20986653.7344
      1375.1724
 -17912912.48947 -13731895.08546  21908212.4384   21908219.0474
      1924.6414
  -6108097.78445   3006608.63145  24196544.3444   24196559.8284
     -3640.3914
 -10259265.32446  -1504247.41846  23072690.5164   23072700.3874
      2023.4844
 -27157054.62448 -20978304.75347  20874576.9924   20874583.2154
       197.6254
 -18578915.77047    -14109.51246  21974646.0314   21974654.3444
      -739.8914
 01 10  2  0  2 30.0000000  0  9G13G 3G10G 8G28G 1G 2G27G31
 -22080433.65948 -17055680.53446  21532148.7584   21532155.0164
     -2506.6874
  -4612169.25044   4621699.39645  24375502.0784   24375515.3834
     -2644.9374
  -4879530.75045   -121456.69145  23925292.8594   23925304.6294
      -345.4844
 -24127230.41048 -18460049.61347  20982728.0394   20982734.7194
      1370.8754
 -17941733.12747 -13754352.69146  21902727.9844   21902734.6524
      1918.2504
  -6053464.77045   3049179.66845  24206941.1174   24206958.6174
     -3643.8444
 -10289580.84546  -1527869.84746  23066922.5234   23066933.1684
      2018.7194
 -27159982.71848 -20980586.38647  20874019.7974   20874026.1374
       192.9384
 -18567732.25447     -5395.08446  21976774.4064   21976782.9184
      -751.1094
 01 10  2  0  2 45.0000000  0  9G13G 3G10G 8G28G 1G 2G27G31
 -22042773.01448 -17026334.61946  21539315.2274   21539321.6724
     -2514.7974
  -4572438.94745   4652658.02845  24383063.4534   24383075.1644
     -2652.4844
  -4874273.74645   -117360.33845  23926293.8834   23926306.6024
      -355.5004
 -24147759.67548 -18476046.42247  20978821.3524   20978828.1484
      1366.2974
 -17970457.29247 -13776735.11446  21897262.0314   21897268.4184
      1911.5784
  -5998779.50745   3091791.41845  24217347.6644   24217362.8324
     -3647.5624
 -10319824.28446  -1551436.11146  23061166.5784   23061176.9774
      2013.6724
 -27162839.65648 -20982812.57547  20873476.0864   20873482.3674
       187.9384
 -18556379.87547      3450.92946  21978934.7504   21978943.2734
      -762.5944
 01 10  2  0  3  0.0000000  0  9G13G 3G10G 8G28G 1G 2G27G31
 -22004990.19748 -16996893.50646  21546505.0394   21546511.4024
     -2522.7504
  -4532594.86645   4683705.36845  24390645.3054   24390657.3794
     -2659.8914
  -4868866.07145   -113146.60545  23927322.3134   23927333.3204
      -365.3754
 -24168219.37148 -18491989.02447  20974928.0164   20974934.8594
      1361.8284
 -17999080.59847 -13799038.95446  21891815.2894   21891821.8984
      1905.0314
  -5944037.81145   3134447.09645  24227763.9924   24227779.9104
     -3651.1724
 -10349991.29046  -1574942.81346  23055426.2114   23055436.5864
      2008.7504
 -27165621.02048 -20984979.87347  20872946.8204   20872953.1374
       183.0784
 -18544854.39047     12431.83546  21981128.2424   21981136.4734
      -773.9694
 01 10  2  0  3 15.0000000  0  9G13G 3G10G 8G28G 1G 2G27G31
 -21967091.68548 -16967362.24646  21553716.9844   21553723.4534
     -2530.5164
  -4492643.59845   4714836.15245  24398247.9304   24398262.0784
     -2667.0944
  -4863314.07945   -108820.42445  23928379.8284   23928390.2624
      -375.0314
 -24188615.54548 -18507882.13147  20971046.7504   20971053.4774
      1357.5164
 -18027609.16747 -13821268.97346  21886386.2504   21886392.8954
      1898.6564
  -5889246.16645   3177141.72345  24238191.5784   24238205.7154
     -3654.5314
 -10380088.03846  -1598394.76446  23049699.0164   23049708.5824
      2004.0164
 -27168332.91148 -20987093.04247  20872430.7974   20872437.1024
       178.3754
 -18533162.02847     21542.76246  21983352.9774   21983361.2894
      -785.1564
 01 10  2  0  3 30.0000000  0  9G13G 3G10G 8G28G 1G 2G27G31
 -21929075.12848 -16937738.99646  21560951.2894   21560957.5474
     -2538.2814
  -4452582.84445   4746052.32645  24405870.5704   24405885.5044
     -2674.2814
  -4857615.31845   -104379.84045  23929463.8524   23929475.0234
      -384.7194
 -24208945.75648 -18523723.83847  20967177.8524   20967184.4734
      1353.2344
 -18056040.47047 -13843423.19046  21880976.0634   21880982.6374
      1892.2504
  -5834402.27445   3219877.23545  24248627.7664   24248641.5274
     -3657.9224
 -10410112.03946  -1621790.03446  23043985.7504   23043995.8094
      1999.2504
 -27170972.66348 -20989149.99347  20871928.4384   20871934.5904
       173.6564
 -18521300.29847     30785.66546  21985609.9694   21985617.6484
      -796.3444
 01 10  2  0  3 45.0000000  0  9G13G 3G10G 8G28G 1G 2G27G31
 -21890941.78848 -16908024.74846  21568207.9224   21568214.2504
     -2546.0944
  -4412413.91045   4777352.73045  24413515.2424   24413528.5004
     -2681.5004
  -4851770.82945    -99825.72945  23930575.8834   23930586.4574
      -394.4694
 -24229210.71048 -18539514.69547  20963321.7664   20963328.5744
      1348.8594
 -18084375.35947 -13865502.28946  21875584.0554   21875590.6884
      1885.8134
  -5779507.30245   3262652.34345  24259074.1954   24259089.6334
     -3661.3124
 -10440064.14746  -1645129.29846  23038285.9774   23038295.9304
      1994.4384
 -27173541.10248 -20991151.37047  20871439.8674   20871446.0314
       168.8754
 -18509270.29547     40159.68446  21987899.0004   21987907.1604
      -807.5784
 01 10  2  0  4  0.0000000  0  9G13G 3G10G 8G28G 1G 2G27G31
 -21852689.01548 -16878217.43946  21575487.0394   21575493.4614
     -2554.1564
  -4372134.28245   4808739.43045  24421179.9774   24421193.0474
     -2688.9694
  -4845778.06545    -95156.06345  23931716.8594   23931727.7504
      -404.4534
 -24249407.48148 -18555252.42547  20959478.2814   20959484.9964
      1344.1884
 -18112611.11947 -13887504.14146  21870210.8914   21870217.2894
      1879.0944
  -5724558.69144   3305469.22945  24269529.9384   24269546.4774
     -3665.0004
 -10469941.59146  -1668410.35146  23032600.5944   23032610.7704
      1989.3444
 -27176035.38648 -20993094.97447  20870964.8674   20870971.0904
       163.8134
 -18497069.37047     49666.89146  21990221.0314   21990229.1214
      -819.0784
 01 10  2  0  4 15.0000000  0  9G13G 3G10G 8G28G 1G 2G27G31
 -21814316.83848 -16848317.08746  21582789.2034   21582795.4024
     -2562.1724
  -4331744.15245   4840212.21445  24428865.5004   24428876.5084
     -2696.3914
  -4839636.96845    -90370.82445  23932885.2274   23932896.4804
      -414.3754
 -24269535.93948 -18570936.92047  20955648.0234   20955654.7154
      1339.5784
 -18140747.53647 -13909428.58146  21864856.7814   21864863.2734
      1872.4064
  -5669556.59845   3348327.77445  24279997.5704   24280012.7854
     -3668.6094
 -10499744.17446  -1691633.09946  23026929.0784   23026939.2774
      1984.2974
 -27178455.25248 -20994980.58647  20870504.6024   20870510.7894
       158.7974
 -18484697.39447     59307.39246  21992575.3204   21992583.7274
      -830.5314
 01 10  2  0  4 30.0000000  0  9G13G 3G10G 8G28G 1G 2G27G31
 -21775826.04347 -16818324.30046  21590113.7894   21590120.1174
     -2570.1254
  -4291244.44045   4871770.39345  24436572.8674   24436586.6884
     -2703.7504
  -4833348.38745    -85470.63145  23934081.5554   23934092.4344
      -424.2664
 -24289596.59048 -18586568.57947  20951830.5314   20951837.2584
      1335.0164
 -18168785.20447 -13931276.07046  21859521.2734   21859527.8244
      1865.7664
  -5614502.09245   3391227.30045  24290474.1414   24290487.0234
     -3672.1724
 -10529472.58646  -1714798.04146  23021271.8984   23021282.1804
      1979.3134
 -27180801.25048 -20996808.63547  20870058.3054   20870064.5514
       153.8134
 -18472155.19847     69080.52846  21994961.9614   21994970.4144
      -841.9224
 01 10  2  0  4 45.0000000  0  9G13G 3G10G 8G28G 1G 2G27G31
 -21737217.34048 -16788239.63646  21597460.8204   21597467.2664
     -2577.7974
  -4250635.79645   4903413.46545  24444300.1414   24444313.3634
     -2710.8284
  -4826912.63245    -80455.80345  23935305.7814   23935317.0234
      -433.9224
 -24309589.80148 -18602147.69447  20948026.0784   20948032.7584
      1330.6564
 -18196724.45647 -13953046.88046  21854204.5704   21854211.2974
      1859.3754
  -5559395.66945   3434167.47345  24300960.6174   24300972.7854
     -3675.4374
 -10559127.19246  -1737905.47646  23015628.7114   23015639.0514
      1974.5634
 -27183073.61248 -20998579.31447  20869625.6724   20869631.9064
       149.0784
 -18459443.22847     78985.96046  21997380.9614   21997389.1564
      -853.0784
 01 10  2  0  5  0.0000000  0  9G13G 3G10G 8G28G 1G 2G27G31
 -21698490.15947 -16758062.65846  21604830.2664   21604836.7344
     -2585.7814
  -4209917.87545   4935141.69445  24452048.6884   24452062.2034
     -2718.1564
  -4820329.27345    -75325.94845  23936559.4534   23936570.9654
      -443.8284
 -24329514.66048 -18617673.54247  20944234.3524   20944240.9734
      1326.0314
 -18224564.55047 -13974740.42546  21848906.5784   21848913.1764
      1852.6884
  -5504236.88243   3477148.18445  24311454.7974   24311471.7114
     -3679.0004
 -10588707.31946  -1760954.87646  23009999.6644   23010010.0864
      1969.5164
 -27185271.60548 -21000292.04047  20869207.2974   20869213.5784
       144.0314
 -18446560.85847     89024.15646  21999832.5084   21999840.7384
      -864.5164
 01 10  2  0  5 15.0000000  0  9G13G 3G10G 8G28G 1G 2G27G31
 -21659646.36747 -16727794.81546  21612222.1174   21612228.6214
     -2593.5314
  -4169092.59545   4966953.53845  24459817.2584   24459829.3674
     -2725.3284
  -4813600.12945    -70082.45345  23937838.9304   23937850.8054
      -453.5474
 -24349372.74548 -18633147.36247  20940455.5634   20940462.2194
      1321.5634
 -18252307.04047 -13996357.90746  21843627.5784   21843634.2344
      1846.1724
  -5449027.52143   3520168.09645  24321960.9694   24321979.2194
     -3682.3594
 -10618214.51146  -1783947.44846  23004385.1024   23004394.9494
      1964.6414
 -27187396.65348 -21001947.92547  20868803.0704   20868809.3874
       139.1724
 -18433509.81847     99193.79246  22002315.7114   22002324.0124
      -875.7504
 01 10  2  0  5 30.0000000  0  9G13G 3G10G 8G28G 1G 2G27G31
 -21620687.49947 -16697437.30046  21619635.5634   21619641.8554
     -2601.1414
  -4128161.64545   4998847.75445  24467606.3754   24467618.3094
     -2732.3124
  -4806726.71645    -64726.59745  23939147.7194   23939160.4614
      -463.0944
 -24369165.40748 -18648570.20447  20936688.9534   20936695.6684
      1317.2664
 -18279953.28947 -14017900.40946  21838366.6414   21838373.0044
      1839.8134
  -5393769.51945   3563226.08345  24332478.9224   24332495.5314
     -3685.5314
 -10647650.13846  -1806884.24746  22998783.3284   22998793.6804
      1959.9384
 -27189450.10048 -21003548.02447  20868412.3594   20868418.5354
       134.4534
 -18420291.63847    109493.67246  22004831.1024   22004839.9184
      -886.8444
 01 10  2  0  5 45.0000000  0  9G13G 3G10G 8G28G 1G 2G27G31
 -21581611.64847 -16666988.63446  21627071.8984   21627078.1454
     -2608.8284
  -4087123.08145   5030825.84245  24475415.8914   24475428.6914
     -2739.3444
  -4799706.76645    -59256.50245  23940483.7114   23940495.5864
      -472.7504
 -24388890.20348 -18663940.15647  20932935.7664   20932942.3754
      1312.8594
 -18307501.02547 -14039366.13346  21833124.3524   21833130.8324
      1833.3594
  -5338460.82546   3606323.64745  24343004.4384   24343020.2624
     -3688.7814
 -10677011.91546  -1829763.50146  22993196.0944   22993205.9534
      1955.1254
 -27191429.60048 -21005090.49647  20868035.8594   20868041.9774
       129.6254
 -18406904.06647    119925.54746  22007378.8524   22007387.0944
      -898.0164
 01 10  2  0  6  0.0000000  0  9G13G 3G10G 8G28G 1G 2G27G31
 -21542418.63447 -16636448.66146  21634529.8364   21634536.0944
     -2616.7814
  -4045976.89545   5062887.79545  24483245.6024   24483259.2344
     -2746.6874
  -4792540.19345    -53672.22145  23941847.7664   23941859.7234
      -482.6724
 -24408546.78648 -18679256.95847  20929194.9614   20929201.6054
      1308.1414
 -18334949.79047 -14060754.74346  21827901.0704   21827907.2704
      1826.6094
  -5283101.39545   3649460.80845  24353538.8284   24353551.8634
     -3692.3284
 -10706299.58346  -1852585.01246  22987622.8134   22987633.0824
      1950.0164
 -27193334.72948 -21006575.01747  20867673.1644   20867679.3634
       124.5164
 -18393346.96247    130489.51446  22009958.7974   22009966.7814
      -909.4844
 01 10  2  0  6 15.0000000  0  9G13G 3G10G 8G28G 1G 2G27G31
 -21503109.37447 -16605818.11346  21642010.2274   21642016.8714
     -2624.4064
  -4004724.14645   5095032.75345  24491095.8444   24491106.8524
     -2753.6254
  -4785227.86745    -47974.32345  23943239.2664   23943250.8244
      -492.2504
 -24428135.75548 -18694521.07947  20925467.4454   20925473.9734
      1303.7664
 -18362300.50347 -14082066.94746  21822696.0944   21822702.4344
      1820.1884
  -5227692.16143   3692636.92845  24364081.6954   24364098.8444
     -3695.5474
 -10735513.88046  -1875349.34746  22982063.3054   22982073.3164
      1945.2504
 -27195166.19148 -21008002.13147  20867324.6024   20867330.8834
       119.7194
 -18379621.11147    141184.98946  22012570.6334   22012577.9144
      -920.5944
 01 10  2  0  6 30.0000000  0  9G13G 3G10G 8G28G 1G 2G27G31
 -21463682.36247 -16575095.80846  21649513.0394   21649519.4024
     -2632.2344
  -3963363.42845   5127261.88145  24498966.7584   24498979.7704
     -2760.8284
  -4777768.26645    -42161.69245  23944658.1564   23944670.3484
      -502.0624
 -24447655.31848 -18709731.11447  20921753.1024   20921759.6174
      1299.1564
 -18389551.28147 -14103301.28646  21817510.4614   21817517.1524
      1813.5314
  -5172231.33941   3735852.83444  24374633.3364   24374655.2814
     -3698.9064
 -10764653.02546  -1898055.12446  22976518.5314   22976528.3794
      1940.2504
 -27196922.12148 -21009370.39347  20866990.3364   20866996.6174
       114.6884
 -18365724.84547    152013.23246  22015215.0784   22015222.8524
      -931.9534
 01 10  2  0  6 45.0000000  0  9G13G 3G10G 8G28G 1G 2G27G31
 -21424140.96747 -16544284.37746  21657037.4304   21657043.8754
     -2639.9844
  -3921897.90745   5159572.61145  24506857.3364   24506870.5704
     -2767.9224
  -4770164.54845    -36236.72245  23946105.6954   23946117.8634
      -511.7974
 -24467108.40248 -18724889.35047  20918051.1724   20918057.7814
      1294.5784
 -18416705.12947 -14124460.09046  21812343.2734   21812349.9654
      1806.9534
  -5116722.62344   3779106.05445  24385200.2584   24385214.2074
     -3702.2664
 -10793720.00946  -1920704.68346  22970987.2344   22970997.3164
      1935.3134
 -27198605.33348 -21010681.99347  20866670.3984   20866676.5394
       109.7194
 -18351661.21547    162971.91046  22017891.1724   22017899.1684
      -943.2344
 01 10  2  0  7  0.0000000  0  9G13G 3G10G 8G28G 1G 2G27G31
 -21384483.09447 -16513382.18246  21664583.9844   21664590.4534
     -2647.7504
  -3880325.81945   5191966.44045  24514768.0864   24514781.7424
     -2775.0314
  -4762414.66745    -30197.90145  23947580.0784   23947592.2114
      -521.5314
 -24486492.64248 -18739993.94047  20914362.6254   20914369.2934
      1289.9844
 -18443759.77847 -14145541.59846  21807194.9534   21807201.3634
      1800.3284
  -5061164.10045   3822398.33545  24395771.9144   24395787.3754
     -3705.5624
 -10822712.71046  -1943296.34146  22965469.8284   22965479.7344
      1930.3594
 -27200213.61848 -21011935.20847  20866364.1414   20866370.3874
       104.7194
 -18337428.29647    174062.48846  22020599.8444   22020607.7934
      -954.5164
 01 10  2  0  7 15.0000000  0  9G13G 3G10G 8G28G 1G 2G27G31
 -21344708.63747 -16482389.14746  21672152.7734   21672159.3594
     -2655.4534
  -3838647.08945   5224443.31545  24522699.4144   24522712.3794
     -2782.0784
  -4754518.37645    -24044.97945  23949082.7504   23949093.3014
      -531.2344
 -24505807.60548 -18755044.54547  20910686.9924   20910693.7424
      1285.4224
 -18470714.85547 -14166545.51646  21802065.5864   21802071.9384
      1793.7504
  -5005555.54945   3865729.53745  24406354.5394   24406370.9614
     -3708.8594
 -10851630.68646  -1965829.78946  22959966.9064   22959977.1994
      1925.4384
 -27201746.51148 -21013129.67347  20866072.5394   20866078.6684
        99.7344
 -18323025.77647    185285.22546  22023340.5234   22023348.3554
      -965.7504
 01 10  2  0  7 30.0000000  0  9G13G 3G10G 8G28G 1G 2G27G31
 -21304819.23247 -16451306.54546  21679743.8834   21679750.2234
     -2663.2034
  -3796863.50245   5257001.93045  24530650.3674   24530661.7154
     -2789.1254
  -4746477.20445    -17779.15345  23950613.2664   23950625.1054
      -540.9844
 -24525054.83748 -18770042.37947  20907024.2814   20907031.1414
      1280.7974
 -18497571.77647 -14187472.95046  21796954.8914   21796961.3244
      1787.1094
  -4949898.63144   3909098.42745  24416945.7344   24416961.0084
     -3712.1254
 -10880475.38946  -1988306.12746  22954477.9534   22954488.5394
      1920.4534
 -27203205.32648 -21014266.41747  20865794.9924   20865801.2154
        94.7034
 -18308455.22047    196638.89746  22026113.2114   22026120.8204
      -977.0474
 01 10  2  0  7 45.0000000  0  9G13G 3G10G 8G28G 1G 2G27G31
 -21264816.78047 -16420135.84346  21687356.0634   21687362.4844
     -2670.7664
  -3754977.10345   5289640.65945  24538621.5084   24538634.0864
     -2796.0314
  -4738293.00745    -11401.88845  23952170.3754   23952182.0514
      -550.5474
 -24544235.75048 -18784988.53147  20903374.3204   20903381.0594
      1276.3594
 -18524332.26747 -14208325.25046  21791862.4224   21791868.6094
      1780.6414
  -4894195.27841                  24427541.8524
     -3715.2504
 -10909248.46946  -2010726.67646  22949002.2504   22949012.4264
      1915.6564
 -27204591.63848 -21015346.66347  20865531.1564   20865537.3204
        89.8284
 -18293718.41747    208122.10946  22028917.7114   22028925.2854
      -988.1724
 01 10  2  0  8  0.0000000  0  9G13G 3G10G 8G28G 1G 2G27G31
 -21224697.63647 -16388874.21746  21694990.4304   21694996.8524
     -2678.4534
  -3712984.10045   5322362.46245  24546612.2344   24546624.0394
     -2803.0164
  -4729961.95745     -4910.19545  23953755.9384   23953767.2384
      -560.2344
 -24563346.22048 -18799879.79247  20899737.7344   20899744.4024
      1271.7344
 -18550992.33747 -14229099.29246  21786789.4064   21786795.7814
      1774.0314
     18586.27053                  24438155.0234
     -3718.5164
 -10937945.92446  -2033088.27446  22943541.7034   22943551.6334
      1910.6884
 -27205901.39648 -21016367.25547  20865281.6884   20865287.9224
        84.8284
 -18278811.49947    219737.88746  22031753.8834   22031761.4454
      -999.4064
 01 10  2  0  8 15.0000000  0  9G13G 3G10G 8G28G 1G 2G27G31
 -21184461.04847 -16357521.08346  21702647.4224   21702653.9844
     -2686.3444
  -3670884.04345   5355167.66245  24554623.7974   24554635.6844
     -2810.2504
  -4721483.48045      1696.37745  23955369.0474   23955381.1334
      -570.1414
 -24582385.48148 -18814715.56347  20896114.5864   20896121.2544
      1266.9064
 -18577551.07947 -14249794.38546  21781735.4614   21781741.8594
      1767.2034
     74390.17045                  24448774.7194
     -3721.9224
 -10966567.03946  -2055390.39346  22938095.0314   22938104.9734
      1905.5314
 -27207133.74248 -21017327.53147  20865047.2894   20865053.4654
        79.5784
 -18263733.75547    231486.77646  22034623.1954   22034630.9104
     -1010.8754
 01 10  2  0  8 30.0000000  0  9G13G 3G10G 8G28G 1G 2G27G31
 -21144109.48047 -16326078.34146  21710325.9534   21710332.4454
     -2694.1094
  -3628679.34045   5388054.43645  24562654.7424   24562668.9384
     -2817.3124
  -4712859.80945      8416.07445  23957011.1954   23957022.1564
      -579.9374
 -24601355.47248 -18829497.36047  20892504.7974   20892511.3244
      1262.1724
 -18604010.55247 -14270412.11846  21776700.2274   21776706.7774
      1760.4694
    130242.34545                  24459402.9384
     -3725.2504
 -10995113.89046  -2077634.64546  22932662.7114   22932672.9694
      1900.4534
 -27208290.65548 -21018229.02547  20864827.0784   20864833.3714
        74.4224
 -18248487.34347    243367.09146  22037524.9144   22037532.2424
     -1022.2344
 01 10  2  0  8 45.0000000  0  9G13G 3G10G 8G28G 1G 2G27G31
 -21103643.04847 -16294546.10446  21718026.6414   21718033.1334
     -2701.4844
  -3586370.11945   5421022.64545  24570706.2194   24570720.3674
     -2824.0004
  -4704090.87845     15248.99345  23958679.4454   23958688.9534
      -589.3284
 -24620255.95448 -18844224.99547  20888907.9534   20888914.5744
      1257.8134
 -18630370.60247 -14290952.38446  21771684.0164   21771690.3324
      1754.1254
    186142.71843                  24470039.5864
     -3728.2034
 -11023586.27246  -2099820.86346  22927244.8754   22927254.9694
      1895.7814
 -27209371.79448 -21019071.47647  20864621.5004   20864627.7464
        69.6564
 -18233072.31947    255378.78646  22040458.5164   22040465.9614
     -1033.1874
 01 10  2  0  9  0.0000000  0  9G13G 3G10G 8G28G 1G 2G27G31
 -21063063.11347 -16262925.43146  21725748.7274   21725755.4414
     -2709.1414
  -3543958.00245   5454071.04445  24578776.7894   24578789.5204
     -2830.9224
  -4695178.14045     22193.94445  23960375.1024   23960386.8484
      -599.0004
 -24639087.93148 -18858899.25047  20885324.3524   20885331.0204
      1253.1564
 -18656632.38647 -14311416.07946  21766686.3204   21766692.7194
      1747.4844
                                  24480681.7424
     -3731.3444
 -11051985.43646  -2121950.04946  22921840.5784   22921850.0864
      1890.8134
 -27210378.32348 -21019855.78747  20864429.7664   20864435.9534
        64.5784
 -18217489.96447    267520.87946  22043423.7584   22043431.6484
     -1044.4224
 01 10  2  0  9 15.0000000  0  9G13G 3G10G 8G28G 1G 2G27G31
 -21022368.56247 -16231215.43646  21733492.3914   21733499.0124
     -2716.8914
  -3501441.99744   5487200.36945  24586867.5084   24586881.3524
     -2837.9844
  -4686120.38445     29251.90945  23962099.3054   23962110.8054
      -608.7974
 -24657850.20248 -18873519.18647  20881754.1564   20881760.8484
      1248.3754
 -18682794.59247 -14331802.17746  21761708.0864   21761714.2624
      1740.7194
     29865.75553     23271.74255  24491342.4844   24491360.3484
     -3734.6724
 -11080310.03846  -2144021.11046  22916450.6884   22916460.4774
      1885.7194
 -27211308.78548 -21020580.82247  20864252.8284   20864259.0044
        59.3914
 -18201739.08147    279794.28346  22046420.7274   22046428.6174
     -1055.7814
 01 10  2  0  9 30.0000000  0  9G13G 3G10G 8G28G 1G 2G27G31
 -20981559.86347 -16199416.50546  21741258.1484   21741264.6414
     -2724.2034
  -3458822.43145   5520410.38745  24594977.8054   24594990.8874
     -2844.5624
  -4676917.97545     36422.59245  23963849.9614   23963860.3834
      -618.1254
 -24676542.62548 -18888084.69647  20878197.1484   20878203.8404
      1244.0004
 -18708857.25847 -14352110.71146  21756748.3984   21756754.7274
      1734.3594
     85907.79545     66940.74145  24502007.3834   24502023.4534
     -3737.5474
 -11108560.20846  -2166034.18546  22911074.6254   22911084.5904
      1881.0314
 -27212163.24548 -21021246.63947  20864090.1174   20864096.3524
        54.5944
 -18185820.02447    292198.73946  22049450.0944   22049457.9614
     -1066.7034
 01 10  2  0  9 45.0000000  0  9G13G 3G10G 8G28G 1G 2G27G31
 -20940636.17947 -16167527.96346  21749045.5314   21749052.2704
     -2732.1874
  -3416098.59345   5553701.73345  24603107.9694   24603121.3444
     -2851.8284
  -4667570.02145     43706.66145  23965629.0084   23965641.4694
      -628.1564
 -24695164.17248 -18902594.98147  20874653.4384   20874660.0234
      1238.9384
 -18734819.35747 -14372340.88546  21751807.9844   21751814.3954
      1727.3444
    141998.00945    110647.40045  24512680.9224   24512694.3554
     -3741.0474
 -11136734.87346  -2187988.42446  22905712.9144   22905722.5864
      1875.6884
 -27212940.54748 -21021852.33347  20863942.3134   20863948.5704
        49.1414
 -18169731.77947    304735.02446  22052511.7894   22052519.3754
     -1078.2974
 01 10  2  0 10  0.0000000  0  9G13G 3G10G 8G28G 1G 2G27G31
 -20899597.87647 -16135550.11446  21756855.2344   21756862.1414
     -2739.7344
  -3373271.19745   5587073.71245  24611257.7034   24611270.2814
     -2858.6564
  -4658077.07545     51103.73445  23967435.2274   23967446.2934
      -637.7504
 -24713715.00848 -18917050.15947  20871123.2664   20871129.8754
      1234.3284
 -18760681.29447 -14392493.00546  21746886.4064   21746892.5474
      1720.7344
    198135.64645    154390.96145  24523363.8444   24523382.5634
     -3744.1414
 -11164834.42246  -2209884.12746  22900366.1804   22900375.8524
      1870.7504
 -27213641.02548 -21022398.15747  20863809.0634   20863815.4264
        44.0784
 -18153474.87347    317402.74046  22055605.5394   22055612.9614
     -1089.4694
 01 10  2  0 10 15.0000000  0  9G13G 3G10G 8G28G 1G 2G27G31
 -20858447.56947 -16103484.98646  21764685.4774   21764692.1094
     -2747.1724
  -3330342.78444   5620524.37945  24619426.9534   24619441.6054
     -2865.3444
  -4648441.54445     58611.89445  23969268.5944   23969281.1724
      -647.2194
 -24732197.36848 -18931451.98647  20867606.3284   20867613.0204
      1229.7814
 -18786445.26947 -14412568.79446  21741983.9144   21741990.2074
      1714.2504
    254318.40043    198169.60145  24534053.8984   24534070.8954
     -3747.1414
 -11192861.04546  -2231723.01346  22895032.6484   22895042.4734
      1865.9224
 -27214266.76948 -21022885.75447  20863689.8834   20863696.2814
        39.1254
 -18137051.64047    330200.05446  22058730.5164   22058738.2894
     -1100.5164
 01 10  2  0 10 30.0000000  0  9G13G 3G10G 8G28G 1G 2G27G31
 -20817183.28647 -16071331.05346  21772538.1804   21772544.9774
     -2754.8754
  -3287311.34944   5654055.38145  24627615.3284   24627627.2854
     -2872.3284
  -4638661.26145     66232.87945  23971130.4224   23971142.9774
      -656.9694
 -24750608.85948 -18945798.58447  20864102.4924   20864109.0904
      1224.9384
 -18812109.02247 -14432566.49546  21737100.1724   21737106.5234
      1707.4384
    310548.22642    241984.73945  24544753.0314   24544769.6054
     -3750.3284
 -11220812.52146  -2253503.32846  22889713.5394   22889723.5274
      1860.7974
 -27214815.42848 -21023313.28447  20863585.6884   20863592.1214
        33.8754
 -18120459.95247    343128.63846  22061887.7584   22061895.2504
     -1111.8594
 01 10  2  0 10 45.0000000  0  9G13G 3G10G 8G28G 1G 2G27G31
 -20775803.92647 -16039087.44846  21780411.9774   21780418.4344
     -2762.4844
  -3244175.98444   5687667.35845  24635824.2034   24635837.7194
     -2879.1724
  -4628735.12745     73967.50445  23973019.2114   23973031.1334
      -666.6254
 -24768948.10448 -18960088.89147  20860612.7814   20860619.4494
      1220.1724
 -18837671.20247 -14452485.03946  21732235.7584   21732241.9924
      1700.7344
    366825.91844    285837.27245  24555463.8364   24555480.9384
     -3753.4694
 -11248687.56946  -2275224.09946  22884409.0634   22884418.8754
      1855.7504
 -27215285.61048 -21023679.66247  20863496.0634   20863502.2854
        28.6884
 -18103698.67347    356189.36346  22065077.2114   22065085.3244
     -1123.1094
 01 10  2  0 11  0.0000000  0  9G13G 3G10G 8G28G 1G 2G27G31
 -20734312.09147 -16006756.19546  21788307.8984   21788314.7194
     -2769.8444
  -3200939.43044   5721358.15245  24644051.3834   24644066.0594
     -2885.7974
  -4618665.75345     81813.72845  23974935.5634   23974946.4304
      -676.0314
 -24787217.48448 -18974324.75447  20857136.1954   20857143.0164
      1215.6564
 -18863134.16947 -14472326.27846  21727390.4224   21727396.7274
      1694.2504
    423148.92045    329725.17345  24566182.1254   24566198.4534
     -3756.3124
 -11276488.60346  -2296887.18546  22879118.6024   22879128.3554
      1850.9534
 -27215679.60448 -21023986.66947  20863421.1644   20863427.5514
        23.7504
 -18086770.35846    369380.24446  22068298.1094   22068306.3524
     -1134.0944
 01 10  2  0 11 15.0000000  0  9G13G 3G10G 8G28G 1G 2G27G31
 -20692707.61147 -15974337.17246  21796225.5084   21796232.0594
     -2777.3594
  -3157601.52944   5755127.91045  24652298.4774   24652310.9264
     -2892.5474
  -4608452.85545     89771.77645  23976878.9064   23976891.4844
      -685.6254
 -24805416.30248 -18988505.63847  20853673.1094   20853679.7074
      1210.9224
 -18888497.40447 -14492089.80646  21722563.8054   21722570.0984
      1687.5634
    479517.40045    373648.48645  24576909.0394   24576926.7154
     -3759.3754
 -11304215.09546  -2318492.20246  22873842.5554   22873851.9924
      1845.9694
 -27215996.85148 -21024233.87447  20863360.9454   20863367.1334
        18.6094
 -18069674.73646    382701.50346  22071551.5864   22071560.2274
     -1145.2504
 01 10  2  0 11 30.0000000  0  9G13G 3G10G 8G28G 1G 2G27G31
 -20650990.07047 -15941830.04346  21804163.7584   21804170.3204
     -2785.0004
  -3114161.95644   5788976.93945  24660564.1174   24660575.5004
     -2899.4224
  -4598095.91445     97842.08145  23978850.3204   23978860.4494
      -695.3284
 -24823543.81948 -19002630.96247  20850223.5004   20850230.0984
      1206.0314
 -18913760.34747 -14511775.17946  21717756.4614   21717762.6484
      1680.7814
    535931.75645    417607.62345  24587644.7114   24587654.6994
     -3762.5474
 -11331866.43346  -2340038.64946  22868580.4694   22868590.0824
      1840.8284
 -27216236.57248 -21024420.67047  20863314.9064   20863321.2704
        13.3134
 -18052411.22146    396153.58546  22074836.4774   22074844.8484
     -1156.5624
 01 10  2  0 11 45.0000000  0  9G13G 3G10G 8G28G 1G 2G27G31
 -20609158.86547 -15909234.35346  21812123.6884   21812130.3794
     -2792.3754
  -3070620.12144   5822905.62845  24668850.6954   24668863.7304
     -2906.0164
  -4587594.26645    106025.16045  23980847.9384   23980859.7074
      -704.7664
 -24841599.04448 -19016699.94947  20846787.7274   20846794.3834
      1201.4384
 -18938922.10747 -14531381.70846  21712968.3444   21712974.3554
      1674.2344
    592392.57645    461603.08544  24598388.2194   24598404.9804
     -3765.4374
 -11359441.77946  -2361525.88846  22863333.3054   22863342.7194
      1835.9844
 -27216397.79348 -21024546.29847  20863284.3284   20863290.7274
         8.2814
 -18034979.05546    409737.08646  22078153.9534   22078162.4884
     -1167.6094
 01 10  2  0 12  0.0000000  0  9G13G 3G10G 8G28G 1G 2G27G31
 -20567216.11947 -15876551.73846  21820105.3754   21820112.2584
     -2799.8594
  -3026978.34444   5856912.22045  24677154.6954   24677168.1174
     -2912.7504
  -4576950.01145    114319.36645  23982873.8134   23982885.0784
      -714.3444
 -24859583.99848 -19030714.18047  20843365.2584   20843372.0904
      1196.6724
 -18963984.60347 -14550910.89446  21708198.6954   21708205.1294
      1667.5474
    648897.58945    505632.79945  24609140.6724   24609156.1804
     -3768.4374
 -11386943.06546  -2382955.41446  22858099.8444   22858109.5984
      1830.9844
 -27216482.36948 -21024612.20147  20863268.1334   20863274.4494
         3.0944
 -18017380.44546    423450.28646  22081502.9384   22081511.0044
     -1178.7664
 01 10  2  0 12 15.0000000  0  9G13G 3G10G 8G28G 1G 2G27G31
 -20525162.62047 -15843782.82846  21828108.1094   21828114.9534
     -2807.5164
  -2983237.46744   5890996.04745  24685478.2734   24685490.6994
     -2919.6254
  -4566163.92845    122724.05845  23984926.5394   23984937.8404
      -724.0624
 -24877499.08648 -19044673.97347  20839955.9694   20839962.6374
      1191.7344
 -18988948.33647 -14570363.11646  21703448.5634   21703454.8914
      1660.6884
    705446.00844    549696.28045  24619900.9534   24619916.2504
     -3771.5944
 -11414370.93246  -2404327.72446  22852880.5004   22852889.9734
      1825.7974
 -27216490.82648 -21024618.79247  20863266.5314   20863272.8714
        -2.2504
 -17999616.06146    437292.65646  22084883.2974   22084891.2114
     -1190.0784
 01 10  2  0 12 30.0000000  0  9G13G 3G10G 8G28G 1G 2G27G31
 -20482994.56347 -15810924.65746  21836132.1564   21836139.0984
     -2814.8914
  -2939393.60244   5925160.10845  24693821.6094   24693835.1484
     -2926.2344
  -4555232.08645    131242.33145  23987006.4534   23987018.3634
      -733.5474
 -24895340.09248 -19058576.04147  20836561.2584   20836567.9144
      1187.0164
 -19013809.11847 -14589735.11746  21698717.7114   21698724.0044
      1654.0634
    762041.78143    593796.69345  24630670.8364   24630689.0744
     -3774.5004
 -11441721.13846  -2425639.53046  22847675.7814   22847685.3134
      1820.8594
 -27216418.85848 -21024562.71647  20863280.1254   20863286.6054
        -7.3754
 -17981681.92246    451267.30346  22088296.3834   22088304.7664
     -1201.1564
 01 10  2  0 12 45.0000000  0  9G13G 3G10G 8G28G 1G 2G27G31
 -20440714.05847 -15777978.86946  21844178.1174   21844184.9494
     -2822.3284
  -2895449.10644   5959402.59245  24702183.8054   24702196.8874
     -2932.8594
  -4544156.53445    139872.60745  23989114.1724   23989126.3524
      -743.0164
 -24913108.73448 -19072421.72147  20833179.8134   20833186.4804
      1182.2814
 -19038568.96247 -14609028.47246  21694005.8284   21694012.1914
      1647.4224
    818682.64943    637932.18245  24641449.3134   24641467.4804
     -3777.4694
 -11468995.63646  -2446892.33946  22842485.3284   22842495.2934
      1815.8914
 -27216268.29948 -21024445.39747  20863309.1254   20863315.4884
       -12.5314
 -17963580.08846    465372.62246  22091740.4304   22091748.6604
     -1212.2504
 01 10  2  0 13  0.0000000  0  9G13G 3G10G 8G28G 1G 2G27G31
 -20398323.27647 -15744947.14846  21852244.7274   21852251.6914
     -2829.9534
  -2851406.11544   5993721.82445  24710565.2274   24710578.7074
     -2939.7034
  -4532939.36245    148613.20845  23991248.7814   23991260.1994
      -752.7504
 -24930806.88748 -19086212.47647  20829811.8914   20829818.3834
      1177.3134
 -19063229.73147 -14628244.61646  21689313.1804   21689319.4734
      1640.5314
    875366.40244    682101.15245  24652237.0234   24652253.9964
     -3780.5784
 -11496196.37146  -2468087.66846  22837309.5634   22837319.5984
      1810.7034
 -27216040.96848 -21024268.25647  20863352.1484   20863358.3954
       -17.9374
 -17945312.53146    479607.06746  22095216.8054   22095225.1414
     -1223.5944
 01 10  2  0 13 15.0000000  0  9G13G 3G10G 8G28G 1G 2G27G31
 -20355820.06347 -15711827.81546  21860333.2034   21860340.0864
     -2837.1094
  -2807262.63844   6028119.33045  24718964.9454   24718975.6604
     -2946.0784
  -4521578.26645    157465.98745  23993410.1884   23993423.7274
      -762.0314
 -24948432.01648 -19099946.32747  20826458.1094   20826464.7074
      1172.7344
 -19087789.00547 -14647381.67646  21684639.6804   21684645.9144
      1634.0784
    932095.20945    726305.24645  24663032.5864   24663048.1884
     -3783.2504
 -11523320.88446  -2489223.61346  22832147.5164   22832157.2344
      1805.9384
 -27215734.32548 -21024029.31547  20863410.5704   20863416.8164
       -22.9064
 -17926876.99346    493972.41146  22098725.0314   22098733.6954
     -1234.4534
 01 10  2  0 13 30.0000000  0  9G13G 3G10G 8G28G 1G 2G27G31
 -20313207.19947 -15678623.03446  21868442.0234   21868448.9534
     -2844.5944
  -2763021.61044   6062592.90845  24727384.4304   24727397.8634
     -2952.7504
  -4510076.12845    166428.64345  23995599.5634   23995610.7704
      -771.5944
 -24965986.54248 -19113625.16447  20823117.4694   20823124.1954
      1167.8914
 -19112249.29047 -14666441.60946  21679985.1954   21679991.3954
      1627.2974
    988866.09745    770542.25345  24673835.6334   24673854.3524
     -3786.2194
 -11550371.81146  -2510302.20446  22827000.1954   22827009.9144
      1800.8594
 -27215350.92548 -21023730.56047  20863483.4224   20863489.5514
       -28.1874
 -17908276.19446    508466.52246  22102264.8364   22102273.6054
     -1245.6414
 01 10  2  0 13 45.0000000  0  9G13G 3G10G 8G28G 1G 2G27G31
 -20270482.52647 -15645331.13646  21876572.5314   21876579.1174
     -2852.0314
  -2718680.83544   6097144.15945  24735822.2504   24735835.5554
     -2959.3754
  -4498430.71945    175502.93245  23997815.1174   23997828.6334
      -781.1414
 -24983468.07848 -19127247.12647  20819790.8674   20819797.4654
      1163.0004
 -19136608.18047 -14685422.52246  21675349.6484   21675355.6484
      1620.5474
   1045681.31445    814813.80645  24684647.3594   24684664.0274
     -3789.1414
 -11577346.74746  -2531321.59946  22821866.3364   22821875.8554
      1795.7974
 -27214888.18248 -21023369.98547  20863571.7114   20863577.8754
       -33.5004
 -17889507.91646    523091.14146  22105836.2584   22105844.6294
     -1256.7974
 01 10  2  0 14  0.0000000  0  9G13G 3G10G 8G28G 1G 2G27G31
 -20227648.13447 -15611953.73846  21884723.6804   21884730.7034
     -2859.2034
  -2674242.39844   6131771.51545  24744278.4384   24744290.0664
     -2965.7194
  -4486644.01745    184687.36045  24000058.5944   24000069.7894
      -790.4064
 -25000878.20648 -19140813.44347  20816477.7424   20816484.2234
      1158.3754
 -19160867.52547 -14704325.87246  21670733.1484   21670739.2544
      1614.0474
   1102538.77443    859118.14145  24695467.7974   24695484.8634
     -3791.8124
 -11604247.52746  -2552283.19746  22816747.9534   22816757.3914
      1790.9844
 -27214347.80648 -21022948.90747  20863674.6954   20863680.7424
       -38.5314
 -17870574.14846    537844.71446  22109439.2894   22109447.3204
     -1267.6874
 01 10  2  0 14 15.0000000  0  9G13G 3G10G 8G28G 1G 2G27G31
 -20184703.09947 -15578490.13346  21892895.8204   21892902.6644
     -2866.6724
  -2629705.62044   6166475.48645  24752753.6644   24752767.5204
     -2972.3914
  -4474715.11745    193982.57145  24002328.2424   24002339.0164
      -799.9694
 -25018215.94248 -19154323.35447  20813178.5394   20813185.0904
      1153.4534
 -19185026.27847 -14723150.83746  21666135.9694   21666142.2274
      1607.2504
   1159439.30542    903455.99245  24706293.4924   24706312.3634
     -3794.7504
 -11631072.98346  -2573186.09946  22811643.1954   22811652.5634
      1785.8754
 -27213728.59448 -21022466.40547  20863792.3444   20863798.4964
       -43.8914
 -17851473.97947    552727.95146  22113074.0474   22113082.1254
     -1278.8754
 01 10  2  0 14 30.0000000  0  9G13G 3G10G 8G28G 1G 2G27G31
 -20141645.74747 -15544939.00946  21901089.3524   21901096.3164
     -2874.1564
  -2585068.82644   6201257.44445  24761247.6954   24761260.6954
     -2979.0314
  -4462642.27145    203389.94045  24004626.2274   24004637.2464
      -809.5784
 -25035479.05448 -19167775.11447  20809893.5634   20809900.1724
      1148.4694
 -19209082.34947 -14741895.79746  21661558.1254   21661564.3244
      1600.3914
   1216384.69943    947828.81145  24717131.1024   24717147.7464
     -3797.7814
 -11657821.14846  -2594028.78846  22806552.7734   22806562.4924
      1780.7194
 -27213028.46548 -21021920.85147  20863925.5314   20863931.7774
       -49.2974
 -17832205.49346    567742.35046  22116740.6884   22116749.1414
     -1290.0944
 01 10  2  0 14 45.0000000  0  9G13G 3G10G 8G28G 1G 2G27G31
 -20098478.37147 -15511302.15146  21909303.8914   21909310.8444
     -2881.5784
  -2540334.53344   6236115.32845  24769760.1254   24769773.7234
     -2985.6254
  -4450427.72845    212907.70945  24006950.0164   24006961.0944
      -819.1254
 -25052669.50948 -19181170.25847  20806622.1564   20806628.7544
      1143.5164
 -19233037.86447 -14760562.40246  21656999.5784   21657005.7424
      1593.5944
   1273372.42745    992234.61445  24727976.5164   24727994.1914
     -3800.6724
 -11684494.18346  -2614812.91946  22801477.2274   22801486.7234
      1775.6094
 -27212249.41548 -21021313.80047  20864073.9064   20864080.2234
       -54.6564
 -17812770.92446    582886.16046  22120438.8674   22120447.0634
     -1301.2664
 01 10  2  0 15  0.0000000  0  9G13G 3G10G 8G28G 1G 2G27G31
 -20055202.67847 -15477580.88746  21917538.9614   21917546.2074
     -2888.6724
  -2495504.41443   6271047.89845  24778291.4844   24778300.9344
     -2991.9064
  -4438073.12845    222534.66045  24009301.1884   24009312.4884
      -828.3444
 -25069788.62348 -19194509.81447  20803364.5234   20803371.0514
      1138.8754
 -19256894.28847 -14779151.78746  21652459.7504   21652465.9494
      1587.0944
   1330400.84545   1036672.18745  24738829.0004   24738845.7384
     -3803.2664
 -11711093.54346  -2635539.64446  22796415.2894   22796424.7274
      1770.8134
 -27211392.78748 -21020646.29347  20864236.7974   20864242.8794
       -59.7194
 -17793171.94646    598158.07946  22124168.0634   22124176.1414
     -1312.0944
 01 10  2  0 15 15.0000000  0  9G13G 3G10G 8G28G 1G 2G27G31
 -20011815.94447 -15443773.09946  21925795.6094   21925802.6564
     -2896.2194
  -2450575.78443   6306057.20345  24786840.6564   24786857.2424
     -2998.5784
  -4425575.59745    232272.94145  24011679.0634   24011690.5514
      -838.0164
 -25086833.48948 -19207791.51147  20800121.0554   20800127.6644
      1133.7664
 -19280648.63447 -14797661.63346  21647939.4924   21647945.6684
      1580.1564
   1387472.64145   1081143.66545  24749689.4064   24749705.9574
     -3806.2814
 -11737616.27146  -2656206.65846  22791368.5474   22791378.1374
      1765.5634
 -27210455.58148 -21019916.00547  20864414.8984   20864421.0984
       -65.2504
 -17773405.83846    613560.23146  22127929.3984   22127937.9454
     -1323.3914
 01 10  2  0 15 30.0000000  0  9G13G 3G10G 8G28G 1G 2G27G31
 -19968321.91247 -15409881.69946  21934072.0784   21934078.9964
     -2903.3124
  -2405552.52943   6341140.31745  24795408.5704   24795420.7154
     -3004.8594
  -4412938.93945    242119.62145  24014083.8594   24014096.5904
      -847.2194
 -25103807.42948 -19221017.94147  20796890.9144   20796897.5124
      1129.0784
 -19304304.38347 -14816094.64946  21643438.1484   21643444.2194
      1573.6094
   1444584.10345   1125646.00445  24760556.7814   24760572.7584
     -3808.8754
 -11764065.86446  -2676816.68046  22786335.2894   22786344.7154
      1760.7194
 -27209441.12548 -21019125.52147  20864608.0554   20864614.4534
       -70.3594
 -17753476.23146    629089.78446  22131722.2584   22131730.7814
     -1334.2344
 01 10  2  0 15 45.0000000  0  9G13G 3G10G 8G28G 1G 2G27G31
 -19924716.61347 -15375903.60946  21942370.0004   21942377.3284
     -2910.6094
  -2360430.55943   6376300.25445  24803994.1644   24804003.8134
     -3011.2974
  -4400159.12445    252077.90145  24016515.3594   24016527.8204
      -856.6414
 -25120705.95748 -19234185.60947  20793675.2194   20793681.6644
      1124.1724
 -19327857.20047 -14834447.45946  21638955.9384   21638961.9964
      1566.8594
   1501739.28643   1170182.22544  24771433.9144   24771452.1994
     -3811.6724
 -11790438.01946  -2697366.36846  22781316.6724   22781325.8634
      1755.6884
 -27208345.03148 -21018271.42147  20864816.7664   20864823.1174
       -75.6874
 -17733378.93447    644750.00446  22135546.8134   22135555.0554
     -1345.2974
 01 10  2  0 16  0.0000000  0  9G13G 3G10G 8G28G 1G 2G27G31
 -19881003.59447 -15341841.57146  21950688.2504   21950695.4734
     -2917.7344
  -2315213.71643   6411534.16345  24812598.8754   24812610.0124
     -3017.5474
  -4387239.70545    262144.93045  24018975.0084   24018987.8094
      -865.8914
 -25137532.47348 -19247297.16447  20790473.1024   20790479.5004
      1119.4064
 -19351310.47347 -14852722.70646  21634492.8524   21634499.0514
      1560.2974
   1558934.48842   1214749.74945  24782316.6884   24782336.2384
     -3814.2664
 -11816736.12646  -2717858.35246  22776312.3984   22776321.6724
      1750.7974
 -27207170.60448 -21017356.28147  20865040.3984   20865046.7274
       -80.8444
 -17713117.52747    660538.10746  22139402.6724   22139410.8794
     -1356.1564
 01 10  2  0 16 15.0000000  0  9G13G 3G10G 8G28G 1G 2G27G31
 -19837182.04747 -15307694.97046  21959026.8444   21959034.0434
     -2925.0624
  -2269901.10443   6446842.71345  24821221.8984   24821233.7504
     -3024.0474
  -4374179.64945    272321.55545  24021459.4304   24021472.9454
      -875.3754
 -25154285.66948 -19260351.59047  20787285.1254   20787291.5704
      1114.4224
 -19374663.02047 -14870919.46246  21630049.1094   21630055.0984
      1553.4694
   1616170.47243   1259349.06745  24793208.8674   24793223.0044
     -3817.0944
 -11842959.07646  -2738291.77246  22771322.0864   22771331.6644
      1745.6724
 -27205916.60948 -21016379.14447  20865278.8834   20865285.1644
       -86.2664
 -17692691.07347    676454.81446  22143289.2274   22143297.0354
     -1367.2814
 01 10  2  0 16 30.0000000  0  9G13G 3G10G 8G28G 1G 2G27G31
 -19793251.82047 -15273463.68646  21967386.7274   21967393.7504
     -2932.3444
  -2224492.80743   6482225.77345  24829862.7734   24829873.4884
     -3030.4534
  -4360978.87945    282607.83845  24023972.3364   24023984.2344
      -884.7664
 -25170965.24548 -19273348.64947  20784111.1954   20784117.6884
      1109.4844
 -19397914.69847 -14889037.62746  21625624.2344   21625630.5044
      1546.7034
   1673447.26345   1303980.15045  24804108.7974   24804127.3284
     -3819.8594
 -11869106.62246  -2758666.43746  22766346.1724   22766355.5394
      1740.6094
 -27204582.58248 -21015339.64647  20865532.7814   20865538.9924
       -91.6414
 -17672099.39047    692500.28446  22147207.7274   22147215.7814
     -1378.3284
 01 10  2  0 16 45.0000000  0  9G13G 3G10G 8G28G 1G 2G27G31
 -19749213.02547 -15239147.79646  21975767.1724   21975774.2194
     -2939.6564
  -2178988.89243   6517683.41945  24838521.5394   24838533.6254
     -3036.9064
  -4347637.43045    293003.72745  24026510.4774   24026521.5904
      -894.2664
 -25187570.75148 -19286287.99047  20780951.2734   20780957.8594
      1104.4224
 -19421065.07347 -14907076.86046  21621219.1724   21621225.3484
      1539.8594
   1730764.87745   1348643.06845  24815015.9924   24815032.2154
     -3822.6564
 -11895178.46546  -2778982.10746  22761384.9144   22761394.0594
      1735.4694
 -27203168.22348 -21014237.54747  20865801.8984   20865808.2154
       -97.0944
 -17651342.42747    708674.53246  22151157.7734   22151165.5944
     -1389.4374
 01 10  2  0 17  0.0000000  0  9G13G 3G10G 8G28G 1G 2G27G31
 -19705064.77547 -15204746.61246  21984168.2274   21984175.7544
     -2946.8284
  -2133388.49843   6553216.17245  24847198.2584   24847210.4264
     -3043.1874
  -4334154.34545    303510.00345  24029075.8134   24029087.4064
      -903.5784
 -25204100.92948 -19299168.63647  20777805.7114   20777812.3094
      1099.5474
 -19444113.13047 -14925036.35746  21616833.2274   21616839.1914
      1533.1564
   1788124.19145   1393338.53245  24825931.4614   24825949.5944
     -3825.3124
 -11921173.54546  -2799237.97146  22756438.3594   22756447.7034
      1730.4694
 -27201672.32148 -21013071.91247  20866086.3984   20866092.7384
      -102.4224
 -17630419.24047    724978.30046  22155139.5634   22155147.5124
     -1400.3914
 01 10  2  0 17 15.0000000  0  9G13G 3G10G 8G28G 1G 2G27G31
 -19660810.97447 -15170263.19146  21992589.4454   21992596.8674
     -2953.8594
  -2087695.64743   6588821.05645  24855894.7814   24855903.6094
     -3049.3594
  -4320533.54945    314123.54045  24031667.9774   24031678.4804
      -912.7194
 -25220559.34148 -19311993.36347  20774673.6334   20774680.2544
      1094.7504
 -19467062.47347 -14942918.93646  21612465.9844   21612472.0314
      1526.5784
   1845521.30844   1438063.41345  24836853.9144   24836872.7734
     -3827.8284
 -11947095.50246  -2819436.84946  22751505.5474   22751514.8794
      1725.6094
 -27200098.37248 -21011845.45847  20866386.0004   20866392.1174
      -107.6254
 -17609333.56747    741408.67946  22159151.6954   22159159.5744
     -1411.2194
 01 10  2  0 17 30.0000000  0  9G13G 3G10G 8G28G 1G 2G27G31
 -19616448.88447 -15135695.38946  22001031.2274   22001038.5554
     -2960.8754
  -2041907.74143   6624499.90645  24864607.5784   24864622.9224
     -3055.5004
  -4306772.23345    324846.61445  24034287.2424   24034297.1724
      -921.9224
 -25236942.96248 -19324759.81047  20771555.9224   20771562.6024
      1089.9384
 -19489910.19047 -14960722.32646  21608118.1484   21608124.3134
      1519.9844
   1902958.89943   1482819.81245  24847782.0704   24847800.2274
     -3830.3284
 -11972941.43246  -2839576.48946  22746587.0784   22746596.4454
      1720.7194
 -27198443.33148 -21010555.81747  20866700.9224   20866707.1804
      -112.8444
 -17588082.66447    757967.82446  22163195.8834   22163204.1484
     -1422.0314
 01 10  2  0 17 45.0000000  0  9G13G 3G10G 8G28G 1G 2G27G31
 -19571979.56347 -15101044.02746  22009493.4224   22009500.5394
     -2968.2664
  -1996025.95243   6660251.94445  24873337.7034   24873352.3794
     -3062.0004
  -4292871.39845    335678.40945  24036932.3984   24036943.0784
      -931.4374
 -25253252.62348 -19337468.62347  20768452.2734   20768458.9184
      1084.7664
 -19512657.02947 -14978447.10146  21603789.5084   21603795.6374
      1513.0164
   1960435.85543   1527606.81445  24858720.6804   24858733.5274
     -3833.1874
 -11998712.15546  -2859657.52446  22741682.9534   22741692.1454
      1715.4694
 -27196707.92748 -21009203.55747  20867031.2424   20867037.4654
      -118.4534
 -17566667.63346    774654.85346  22167270.8054   22167279.0234
     -1433.2194
 01 10  2  0 18  0.0000000  0  9G13G 3G10G 8G28G 1G 2G27G31
 -19527403.40047 -15066309.41446  22017976.1414   22017983.1764
     -2975.3444
  -1950050.59143   6696076.95045  24882087.3284   24882102.3204
     -3068.1564
  -4278831.27445    346618.72845  24039604.3594   24039615.4844
      -940.7034
 -25269488.11948 -19350119.64747  20765362.6954   20765369.3634
      1079.8284
 -19535303.04447 -14996093.31646  21599480.0394   21599486.0984
      1506.3284
   2017951.88543   1572424.36345  24869666.5634   24869686.8524
     -3835.7194
 -12024407.65546  -2879679.93546  22736793.3914   22736802.8524
      1710.4694
 -27194892.10048 -21007788.62147  20867376.7194   20867383.1054
      -123.7814
 -17545088.53147    791469.73046  22171377.3524   22171385.4884
     -1444.1254
 01 10  2  0 18 15.0000000  0  9G13G 3G10G 8G28G 1G 2G27G31
 -19482720.64547 -15031491.74346  22026479.2974   22026486.7194
     -2982.4064
  -1903981.96043   6731974.56345  24890853.4454   24890864.9344
     -3074.3444
  -4264652.08945    357667.38545  24042302.7344   24042314.2344
      -949.9064
 -25285649.36648 -19362712.81647  20762287.4924   20762294.1604
      1074.9384
 -19557848.24947 -15013660.98246  21595189.8984   21595195.9224
      1499.6414
   2075506.65543   1617272.02945  24880618.4774   24880634.7814
     -3838.2814
 -12050028.02546  -2899643.81246  22731917.7274   22731927.1764
      1705.5164
 -27192995.78648 -21006310.97447  20867737.6564   20867744.0314
      -129.1094
 -17523345.54546    808412.31746  22175514.6174   22175522.9774
     -1455.0004
 01 10  2  0 18 30.0000000  0  9G13G 3G10G 8G28G 1G 2G27G31
 -19437929.37847 -14996589.50646  22035002.7424   22035009.6954
     -2989.8284
  -1857818.32943   6767946.22945  24899638.3444   24899654.3794
     -3080.8754
  -4250332.01645    368825.84845  24045028.0634   24045038.5434
      -959.4844
 -25301734.20948 -19375246.45247  20759226.4924   20759233.0084
      1069.6414
 -19580290.48247 -15031148.41046  21590919.4144   21590925.7074
      1492.5784
   2133102.08344   1662151.44345  24891578.7274   24891597.1054
     -3841.1564
 -12075571.13546  -2919547.47946  22727057.5554   22727067.0394
      1700.1564
 -27191016.74048 -21004768.86547  20868114.1724   20868120.5004
      -134.8284
 -17501436.76546    825484.08246  22179683.8914   22179692.1804
     -1466.2504
 01 10  2  0 18 45.0000000  0  9G13G 3G10G 8G28G 1G 2G27G31
 -19393031.16847 -14961603.94646  22043546.6884   22043553.8054
     -2996.7344
  -1811561.28643   6803990.67245  24908441.4614   24908454.6604
     -3086.8754
  -4235872.57545    380092.88145  24047779.2344   24047789.9964
      -968.5784
 -25317743.83348 -19387721.47447  20756179.9614   20756186.6644
      1064.8284
 -19602631.23147 -15048556.76446  21586668.1484   21586674.4064
      1486.0474
   2190736.51744   1707061.17744  24902546.9694   24902567.2704
     -3843.5474
 -12101038.32946  -2939391.99646  22722211.1094   22722220.2894
      1695.3134
 -27188956.18948 -21003163.24447  20868506.3914   20868512.6374
      -140.0624
 -17479363.76946    842683.81546  22183884.2814   22183892.5234
     -1476.9694
 01 10  2  0 19  0.0000000  0  9G13G 3G10G 8G28G 1G 2G27G31
 -19348026.61847 -14926535.52046  22052110.9924   22052118.2274
     -3003.7194
  -1765211.50643   6840107.33245  24917260.9614   24917273.5864
     -3092.9534
  -4221274.31945    391468.09445  24050557.5234   24050570.9104
      -977.7344
 -25333678.34848 -19400137.97047  20753147.6254   20753154.1994
      1059.9224
 -19624870.74047 -15065886.22446  21582435.6174   21582441.6764
      1479.3754
   2248409.35143   1752001.01544  24913522.0704   24913541.3984
     -3846.0164
 -12126429.96246  -2959177.63646  22717379.1334   22717388.0664
      1690.3754
 -27186814.38848 -21001494.30847  20868913.8914   20868920.2304
      -145.3754
 -17457127.10347    860011.07746  22188115.8054   22188124.0594
     -1487.7814
 01 10  2  0 19 15.0000000  0  9G13G 3G10G 8G28G 1G 2G27G31
 -19302915.36647 -14891383.95846  22060695.0084   22060701.9844
     -3011.0474
  -1718768.85043   6876296.54945  24926098.5634   24926110.3554
     -3099.3754
  -4206537.09745    402951.60645  24053361.1884   24053373.6844
      -987.2194
 -25349537.40848 -19412495.67047  20750129.8524   20750136.3444
      1054.6414
 -19647008.63647 -15083136.50246  21578223.0944   21578229.2584
      1472.3594
   2306120.76143   1796970.80943  24924503.1334   24924523.8134
     -3848.8124
 -12151745.58746  -2978904.04546  22712561.3364   22712570.6094
      1685.0634
 -27184590.72948 -20999761.59047  20869337.0784   20869343.3954
      -151.0944
 -17434726.50046    877466.08746  22192378.6804   22192386.8874
     -1498.9534
 01 10  2  0 19 30.0000000  0  9G13G 3G10G 8G28G 1G 2G27G31
 -19257697.58147 -14856149.37246  22069299.6414   22069306.4264
     -3018.0474
  -1672233.31043   6912557.96345  24934955.4384   24934964.7234
     -3105.4224
  -4191660.57845    414543.64145  24056192.6094   24056204.9414
      -996.3754
 -25365320.36548 -19424794.06847  20747126.4144   20747132.9534
      1049.6724
 -19669044.35047 -15100307.16046  21574029.8754   21574035.8634
      1465.6724
   2363870.86743   1841970.68944  24935492.6254   24935515.7074
     -3851.2664
 -12176984.78746  -2998570.89746  22707758.3204   22707767.2424
      1680.0944
 -27182284.65348 -20997964.64747  20869775.9924   20869782.3554
      -156.4694
 -17412161.65746    895049.06946  22196672.2194   22196680.2734
     -1509.7814
 01 10  2  0 19 45.0000000  0  9G13G 3G10G 8G28G 1G 2G27G31
 -19212374.55047 -14820832.78746  22077924.6094   22077931.5744
     -3025.0624
  -1625606.38843   6948890.63745  24943828.2734   24943841.8834
     -3111.5314
  -4176646.17745    426243.12145  24059050.2664   24059062.8444
     -1005.5624
 -25381028.08948 -19437033.83847  20744137.3524   20744143.8324
      1044.6564
 -19690979.13347 -15117399.17446  21569855.9304   21569862.1294
      1458.9384
   2421658.20543   1886999.67144  24946490.0314   24946508.5984
     -3853.7504
 -12202148.75946  -3018179.13946  22702970.1804   22702979.4654
      1675.0634
 -27179897.30348 -20996104.37647  20870230.2814   20870236.5984
      -161.8914
 -17389433.93646    912758.97746  22200997.2274   22201005.1054
     -1520.6414
 01 10  2  0 20  0.0000000  0  9G13G 3G10G 8G28G 1G 2G27G31
 -19166947.33647 -14785435.01946  22086569.3444   22086576.6374
     -3031.8754
  -1578889.23343   6985293.60145  24952716.6414   24952727.4844
     -3117.4224
  -4161494.87445    438049.30045  24061932.9844   24061945.0234
     -1014.5624
 -25396661.67148 -19449215.83447  20741162.4924   20741168.9734
      1039.8284
 -19712813.77847 -15134413.15846  21565700.6954   21565706.8834
      1452.3754
   2479481.71143   1932056.74045  24957492.8524   24957511.6294
     -3856.0314
 -12227238.30646  -3037729.37746  22698195.6094   22698205.3404
      1670.2344
 -27177429.39248 -20994181.33247  20870699.8284   20870706.1214
      -167.1414
 -17366544.37747    930594.98646  22205353.1644   22205360.8554
     -1531.2974
 01 10  2  0 20 15.0000000  0  9G13G 3G10G 8G28G 1G 2G27G31
 -19121415.15947 -14749955.44946  22095233.8754   22095241.0274
     -3039.1094
  -1532081.18442   7021767.40845  24961623.7814   24961637.8484
     -3123.7194
  -4146205.94545    449962.68545  24064842.3524   24064853.5124
     -1023.9844
 -25412219.78948 -19461339.03047  20738201.7194   20738208.2814
      1034.5634
 -19734547.26847 -15151348.32246  21561565.0234   21561571.2114
      1445.3914
   2537342.01043   1977142.57145  24968504.5784   24968524.3524
     -3858.7194
 -12252252.57146  -3057220.96146  22693435.5004   22693444.7624
      1664.9694
 -27174879.87248 -20992194.69147  20871184.8524   20871191.1804
      -172.8284
 -17343492.27347    948557.64946  22209739.8444   22209747.7114
     -1542.3754
 01 10  2  0 20 30.0000000  0  9G13G 3G10G 8G28G 1G 2G27G31
 -19075776.18647 -14714392.67446  22103918.7034   22103925.8794
     -3046.1254
  -1485180.31643   7058313.53045  24970549.1564   24970556.8834
     -3129.7814
  -4130777.54845    461984.76345  24067778.5554   24067790.7584
     -1033.1874
 -25427700.38248 -19473401.81447  20735255.7814   20735262.3324
      1029.4694
 -19756177.58047 -15168203.08346  21557448.8754   21557454.9574
      1438.6094
   2595241.06643   2022258.54845  24979522.1414   24979538.0354
     -3861.2034
 -12277189.33846  -3076652.15146  22688690.0554   22688699.2704
      1659.8914
 -27172246.40648 -20990142.64347  20871686.0004   20871692.3284
      -178.3444
 -17320275.63646    966648.52946  22214157.8204   22214166.0044
     -1553.2344
 01 10  2  0 20 45.0000000  0  9G13G 3G10G 8G28G 1G 2G27G31
 -19030031.54547 -14678747.55146  22112623.5784   22112630.8594
     -3053.0624
  -1438187.73643   7094931.10544  24979490.9694   24979504.7304
     -3135.8124
  -4115210.71945    474114.70445  24070740.7894   24070752.2664
     -1042.3124
 -25443103.92348 -19485404.55847  20732324.7504   20732331.3014
      1024.4384
 -19777705.41247 -15184977.98746  21553352.3914   21553358.6954
      1431.8754
   2653177.83544   2067403.87745  24990547.7424   24990567.4454
     -3863.5784
 -12302049.46746  -3096023.63346  22683959.2734   22683968.4654
      1654.8914
 -27169529.70148 -20988025.72847  20872202.9844   20872209.3244
      -183.7814
 -17296895.37246    984866.91346  22218606.7894   22218615.2424
     -1564.0474
 01 10  2  0 21  0.0000000  0  9G13G 3G10G 8G28G 1G 2G27G31
 -18984182.41447 -14643021.01246  22121348.2504   22121354.9884
     -3060.1724
  -1391104.62943   7131619.28544  24988451.3524   24988463.9534
     -3141.9844
  -4099506.47245    486351.75545  24073729.4774   24073741.2344
     -1051.6254
 -25458431.22748 -19497347.90047  20729408.0474   20729414.5984
      1019.1884
 -19799131.68847 -15201673.75946  21549275.1724   21549281.2304
      1424.9384
   2711151.15643   2112577.76045  25001579.4534   25001596.4384
     -3866.1874
 -12326833.81746  -3115336.05046  22679243.1484   22679252.0944
      1649.6724
 -27166730.49548 -20985844.53447  20872735.6804   20872742.0554
      -189.4534
 -17273352.47646   1003212.00946  22223086.7194   22223094.8094
     -1575.0474
 01 10  2  0 21 15.0000000  0  9G13G 3G10G 8G28G 1G 2G27G31
 -18938231.73647 -14607215.33946  22130092.5784   22130099.3634
     -3066.9534
  -1343934.13743   7168375.59045  24997428.0944   24997440.2384
     -3147.7814
  -4083667.70545    498693.60245  24076743.6884   24076755.4804
     -1060.5944
 -25473684.95448 -19509233.90747  20726505.2894   20726511.8404
      1014.2664
 -19820459.14247 -15218292.51346  21545216.4454   21545222.4344
      1418.3444
   2769157.97943   2157777.66645  25012617.5784   25012634.2234
     -3868.4224
 -12351545.09546  -3134591.54046  22674540.6174   22674549.4454
      1644.7814
 -27163851.43948 -20983601.11647  20873283.5554   20873289.9064
      -194.7974
 -17249649.99346   1021681.46446  22227597.5084   22227605.3984
     -1585.6724
 01 10  2  0 21 30.0000000  0  9G13G 3G10G 8G28G 1G 2G27G31
 -18892175.88947 -14571327.72546  22138856.6484   22138864.2344
     -3073.7504
  -1296672.92543   7205202.48745  25006420.8984   25006436.5704
     -3153.6094
  -4067690.96245    511142.97145  24079783.6024   24079795.4304
     -1069.5624
 -25488861.18248 -19521059.52547  20723617.3594   20723624.0274
      1009.3134
 -19841684.00747 -15234831.34446  21541177.4224   21541183.6334
      1411.7034
   2827201.85643   2203006.48644  25023662.6334   25023680.8244
     -3870.6724
 -12376179.66846  -3153787.25846  22669852.8364   22669862.0984
      1639.8914
 -27160888.64548 -20981292.44647  20873847.4844   20873853.8484
      -200.1724
 -17225784.43246   1040277.98546  22232138.9774   22232147.0434
     -1596.3284
 01 10  2  0 21 45.0000000  0  9G13G 3G10G 8G28G 1G 2G27G31
 -18846016.27547 -14535359.25346  22147640.8594   22147647.9774
     -3080.8444
  -1249322.27743   7242099.03244  25015431.0704   25015437.2114
     -3159.7814
  -4051577.40945    523698.94645  24082850.5004   24082862.5044
     -1078.8594
 -25503960.87548 -19532825.50647  20720743.9844   20720750.5234
      1004.0314
 -19862807.37647 -15251291.08346  21537157.8524   21537164.0744
      1404.7664
   2885281.44343   2248263.18745  25034715.4774   25034727.2704
     -3873.2194
 -12400738.62446  -3172924.05346  22665179.2664   22665188.4104
      1634.6564
 -27157843.06948 -20978919.27547  20874426.9774   20874433.2464
      -205.8754
 -17201756.99746   1059000.65046  22236711.1644   22236719.0084
     -1607.2974
 01 10  2  0 22  0.0000000  0  9G13G 3G10G 8G28G 1G 2G27G31
 -18799749.31347 -14499307.13246  22156444.9304   22156451.7624
     -3087.8444
  -1201878.63843   7279068.16243  25024459.5084   25024473.8914
     -3165.7814
  -4035323.56145    536364.22145  24085942.4064   24085954.7854
     -1088.0784
 -25518980.21548 -19544528.87247  20717885.9534   20717892.5394
       998.7974
 -19883825.42847 -15267668.75846  21533157.9844   21533164.2304
      1397.8914
   2943400.23143   2293550.41544  25045776.7194   25045787.8914
     -3875.6874
 -12425218.07446  -3191998.88546  22660520.8834   22660530.1454
      1629.5004
 -27154710.76348 -20976478.51547  20875022.9224   20875029.2034
      -211.5164
 -17177564.09046   1077852.25546  22241314.8594   22241322.7854
     -1618.1874
 01 10  2  0 22 15.0000000  0  9G13G 3G10G 8G28G 1G 2G27G31
 -18753380.62847 -14463175.74646  22165268.8364   22165275.7074
     -3094.5474
  -1154347.78143   7316105.34445  25033504.2274   25033518.4454
     -3171.5314
  -4018934.97545    549134.49445  24089060.9774   24089073.1684
     -1096.9694
 -25533924.21148 -19556173.52547  20715042.1094   20715048.5434
       993.8754
 -19904743.49147 -15283968.52546  21529177.7194   21529183.7424
      1391.2814
   3001552.63943   2338863.78544  25056841.4144   25056858.2704
     -3877.8444
 -12449623.42746  -3211015.99546  22655877.0394   22655886.0084
      1624.6414
 -27151497.03248 -20973974.30947  20875634.5554   20875640.7774
      -216.8754
 -17153211.30546   1096828.43846  22245949.1644   22245956.7274
     -1628.7664
 01 10  2  0 22 30.0000000  0  9G13G 3G10G 8G28G 1G 2G27G31
 -18706910.97747 -14426965.68846  22174111.5704   22174118.5354
     -3101.4694
  -1106730.46843   7353209.76045  25042566.0944   25042579.6334
     -3177.5004
  -4002412.52145    562009.09045  24092205.8754   24092218.7344
     -1106.0784
 -25548793.54948 -19567760.00747  20712212.5474   20712219.1094
       988.6414
 -19925561.98847 -15300190.69946  21525215.9924   21525222.1334
      1384.4534
   3059737.87143   2384202.91945  25067913.8444   25067932.6564
     -3880.2344
 -12473955.15446  -3229975.73246  22651246.4924   22651255.8244
      1619.5314
 -27148202.22948 -20971406.92647  20876261.3364   20876267.7234
      -222.4844
 -17128699.23746   1115928.73046  22250613.8364   22250622.1484
     -1639.5784
 01 10  2  0 22 45.0000000  0  9G13G 3G10G 8G28G 1G 2G27G31
 -18660337.75747 -14390674.92446  22182974.4064   22182982.0744
     -3108.2814
  -1059024.24642   7390383.37645  25051643.8054   25051651.7074
     -3183.3124
  -3985753.36245    574990.17845  24095375.7424   24095389.6564
     -1115.1254
 -25563584.98548 -19579285.79147  20709397.8984   20709404.4844
       983.5474
 -19946278.15947 -15316333.14646  21521273.6644   21521279.8284
      1377.7194
   3117958.53343   2429569.54145  25078992.9614   25079009.7114
     -3882.5004
 -12498210.46346  -3248875.91646  22646631.0944   22646640.1454
      1614.5164
 -27144823.35548 -20968774.03947  20876904.3754   20876910.6094
      -228.0164
 -17104025.21346   1135155.23946  22255309.2114   22255317.3014
     -1650.2814
 01 10  2  0 23  0.0000000  0  9G13G 3G10G 8G28G 1G 2G27G31
 -18613661.42947 -14354303.81246  22191856.1484   22191863.6524
     -3115.0944
  -1011229.58742   7427625.98844  25060737.9534   25060747.4024
     -3189.1724
  -3968958.02245    588077.43345  24098572.0004   24098584.4614
     -1124.1564
 -25578298.71548 -19590751.01347  20706597.8364   20706604.3634
       978.4224
 -19966892.23347 -15332396.03346  21517350.9614   21517357.0904
      1370.9534
   3176214.12943   2474963.34745  25090078.7424   25090094.9654
     -3884.7814
 -12522389.51146  -3267716.67546  22642029.4144   22642038.3484
      1609.4694
 -27141360.55948 -20966075.75447  20877563.5084   20877569.8594
      -233.5624
 -17079189.54446   1154507.69546  22260034.9534   22260043.0664
     -1661.0164
 01 10  2  0 23 15.0000000  0  9G13G 3G10G 8G28G 1G 2G27G31
 -18566881.81447 -14317852.23446  22200758.0944   22200765.5514
     -3122.0004
   -963346.37642   7464937.76344  25069851.6644   25069865.9654
     -3195.0784
  -3952026.12345    601271.05445  24101793.7194   24101806.1804
     -1133.2814
 -25592934.15148 -19602155.23547  20703812.8914   20703819.3834
       973.1564
 -19987403.75147 -15348379.00446  21513447.6414   21513453.7934
      1364.0944
   3234504.89043   2520384.46145  25101170.9454   25101187.8834
     -3887.1414
 -12546491.83946  -3286497.66146  22637443.3204   22637452.0554
      1604.3444
 -27137813.22748 -20963311.60247  20878238.5234   20878244.8054
      -239.2344
 -17054191.97246   1173986.30546  22264791.5474   22264800.1764
     -1671.8284
 01 10  2  0 23 30.0000000  0  9G13G 3G10G 8G28G 1G 2G27G31
 -18520000.80847 -14281321.63546  22209680.0084   22209687.1604
     -3128.8754
   -915376.58942   7502316.76243  25078979.5004   25078994.0354
     -3200.9534
  -3934959.55945    614569.60945  24105041.6484   24105053.9924
     -1142.3594
 -25607492.82648 -19613499.63947  20701042.2894   20701048.8404
       967.9224
 -20007814.36847 -15364283.34846  21509563.4144   21509569.5904
      1357.2504
   3292828.88343   2565831.61444  25112270.2274   25112284.7384
     -3889.4694
 -12570519.15046  -3305220.19246  22632871.0634   22632879.9144
      1599.2194
 -27134182.90248 -20960482.77647  20878929.3984   20878935.9024
      -244.8914
 -17029034.38246   1193589.60846  22269579.1414   22269587.7934
     -1682.5944
 01 10  2  0 23 45.0010000  0  9G13G 3G10G 8G28G 1G 2G27G31
 -18473014.18947 -14244708.74646  22218620.8884   22218628.5094
     -3135.7194
   -867315.78742   7539766.70143  25088124.0134   25088135.3964
     -3206.8124
  -3917756.12145    627974.84945  24108315.7164   24108327.4854
     -1151.3914
 -25621974.16948 -19624783.78647  20698286.6854   20698293.0134
       962.6724
 -20028123.89247 -15380108.92746  21505698.6924   21505704.9034
      1350.4064
   3351191.22943   2611308.60445  25123376.9504   25123397.2514
     -3891.7664
 -12594471.58146  -3323884.37546  22628312.9584   22628321.8924
      1594.1094
 -27130467.79148 -20957587.88447  20879636.3334   20879642.8254
      -250.5474
 -17003713.85446   1213319.87546  22274397.4814   22274406.2514
     -1693.3444
 01 10  2  0 24  0.0010000  0  9G13G 3G10G 8G28G 1G 2G27G31
 -18425928.60847 -14208018.74446  22227580.9504   22227588.2314
     -3142.3444
   -819171.10142   7577282.09444  25097285.5054   25097298.8334
     -3212.4374
  -3900418.57545    641484.55345  24111614.6064   24111627.8064
     -1160.2344
 -25636376.39548 -19636006.28547  20695546.0524   20695552.6734
       957.6414
 -20048330.03747 -15395853.94046  21501853.8254   21501860.0604
      1343.7664
   3409583.49043   2656808.90045  25134487.0834   25134506.7394
     -3893.8444
 -12618346.27946  -3342487.98946  22623769.4424   22623778.0244
      1589.2034
 -27126668.64448 -20954627.51547  20880359.2084   20880365.4544
      -256.0004
 -16978234.39546   1233173.98646  22279245.9354   22279254.9744
     -1703.8914
 01 10  2  0 24 15.0010000  0  9G13G 3G10G 8G28G 1G 2G27G31
 -18378742.51247 -14171250.41746  22236559.9584   22236567.4974
     -3149.1874
   -770940.78942   7614864.20843  25106463.2084   25106471.3804
     -3218.3124
  -3882947.18545    655098.57145  24114939.2864   24114951.5604
     -1169.3124
 -25650701.55548 -19647168.73147  20692819.9424   20692826.6104
       952.3444
 -20068435.29647 -15411520.34646  21498027.6464   21498033.6574
      1336.8914
   3468008.21143   2702334.46845  25145605.9744   25145625.6064
     -3896.1564
 -12642145.98046  -3361033.15746  22619240.4744   22619249.5134
      1584.0474
 -27122786.19548 -20951602.22947  20881098.0524   20881104.3564
      -261.7034
 -16952595.58746   1253152.25446  22284124.9664   22284133.6654
     -1714.6564
 01 10  2  0 24 30.0010000  0  8G13G 3G10G 8G28G 2G27G31
 -18331454.31047 -14134402.53846  22245559.0674   22245566.6064
     -3155.9064
   -722623.41542   7652514.24145  25115658.3964   25115675.1464
     -3224.0004
  -3865340.33245    668818.16245  24118290.2084   24118303.1964
     -1178.2664
 -25664947.70248 -19658269.61347  20690108.9274   20690115.5714
       947.1564
 -20088437.80647 -15427106.68246  21494221.4664   21494227.5244
      1330.1094
 -12665868.88846  -3379518.48846  22614726.5674   22614735.4314
      1579.0164
 -27118818.56648 -20948510.57047  20881853.0914   20881859.4314
      -267.3124
 -16926796.00146   1273255.82246  22289034.6304   22289042.9314
     -1725.2974
 01 10  2  0 24 45.0010000  0  8G13G 3G10G 8G28G 2G27G31
 -18284065.09147 -14097475.93346  22254576.7474   22254584.1224
     -3162.6564
   -674220.08842   7690231.11944  25124869.8884   25124884.7164
     -3229.7814
  -3847599.08145    682642.44645  24121665.8254   24121679.3884
     -1187.2344
 -25679115.57848 -19669309.50147  20687412.9814   20687419.7314
       941.9064
 -20108338.47847 -15442613.67046  21490434.4274   21490440.4034
      1323.3134
 -12689515.90146  -3397944.67946  22610226.4664   22610235.3414
      1573.9384
 -27114766.46348 -20945353.08747  20882624.1534   20882630.5634
      -272.9694
 -16900836.50946   1293483.99946  22293974.6534   22293983.0364
     -1735.9694
 01 10  2  0 25  0.0010000  0  8G13G 3G10G 8G28G 2G27G31
 -18236574.08947 -14060470.02746  22263614.0134   22263621.7744
     -3169.5784
   -625730.02141   7728015.50044  25134096.0834   25134108.0404
     -3235.7034
  -3829722.55845    696572.15845  24125067.5994   24125080.1424
     -1196.3914
 -25693203.87648 -19680287.37947  20684731.9744   20684738.6654
       936.4534
 -20128136.22947 -15458040.45746  21486666.9974   21486673.1854
      1316.2974
 -12713085.93146  -3416310.88346  22605741.1924   22605750.2204
      1568.6414
 -27110628.61348 -20942128.79247  20883411.6064   20883417.9814
      -278.8284
 -16874716.18046   1313837.49346  22298945.0444   22298953.5324
     -1746.8284
 01 10  2  0 25 15.0010000  0  8G13G 3G10G 8G28G 2G27G31
 -18188981.90247 -14023385.27246  22272670.6854   22272678.1534
     -3176.2034
   -577153.88841   7765867.13144  25143341.2164   25143347.0634
     -3241.2664
  -3811711.34345    710606.79145  24128495.2634   24128507.9354
     -1205.2664
 -25707212.81948 -19691203.42547  20682066.2554   20682072.8884
       931.2664
 -20147831.34347 -15473387.26946  21482919.2944   21482925.3994
      1309.5784
 -12736579.27146  -3434617.34046  22601270.2554   22601279.1424
      1563.6564
 -27106405.24548 -20938837.86047  20884215.0604   20884221.3994
      -284.4374
 -16848435.49346   1334315.93546  22303946.2554   22303953.9814
     -1757.4064
 01 10  2  0 25 30.0010000  0  8G13G 3G10G 8G28G 2G27G31
 -18141287.89547 -13986221.17446  22281746.2394   22281753.5674
     -3182.9374
   -528491.29541   7803785.98544  25152601.5444   25152607.1924
     -3246.9844
  -3793565.02345    724746.72845  24131948.3334   24131961.9074
     -1214.2034
 -25721141.54748 -19702056.96247  20679415.6694   20679422.3604
       925.9694
 -20167423.17847 -15488653.60046  21479190.8494   21479196.9894
      1302.7504
 -12759995.33846  -3452863.57446  22596814.4504   22596823.4894
      1558.5634
 -27102095.52848 -20935479.63947  20885035.3884   20885041.8564
      -290.1414
 -16821994.08246   1354919.61646  22308977.5674   22308985.8104
     -1768.0624
 01 10  2  0 25 45.0010000  0  8G13G 3G10G 8G28G 2G27G31
 -18093494.98347 -13948980.00546  22290841.5674   22290848.9544
     -3189.4694
   -479745.06141   7841770.20242  25161877.2784   25161888.3104
     -3252.5314
  -3775286.38245    738989.79745  24135426.7244   24135439.1034
     -1222.9844
 -25734992.55048 -19712849.93847  20676779.6694   20676786.3374
       920.8284
 -20186914.20847 -15503841.37546  21475481.8414   21475487.9584
      1296.0634
 -12783336.66646  -3471051.57346  22592372.5914   22592381.7244
      1553.6094
 -27097701.96548 -20932056.08747  20885871.4034   20885877.8604
      -295.6874
 -16795394.71846   1375646.37946  22314039.5994   22314048.1464
     -1778.5474
 01 10  2  0 26  0.0010000  0  8G13G 3G10G 8G28G 2G27G31
 -18045602.45747 -13911661.22146  22299955.4974   22299963.0364
     -3196.3914
     16283.51251                  25171168.0754
     -3258.3914
  -3756874.59445    753336.57745  24138931.1304   24138944.0364
     -1232.0944
 -25748764.87848 -19723581.60847  20674159.0364   20674165.6574
       915.2814
 -20206303.54847 -15518949.92546  21471792.1144   21471798.1734
      1289.0004
 -12806602.30746  -3489180.60046  22587945.2714   22587954.0404
      1548.2974
 -27093223.44148 -20928566.33247  20886723.7554   20886730.2244
      -301.6414
 -16768636.62146   1396496.83246  22319131.3964   22319139.5674
     -1789.3914
 01 10  2  0 26 15.0010000  0  8G13G 3G10G 8G28G 2G27G31
 -17997608.15047 -13874263.11846  22309088.3024   22309095.9584
     -3202.9694
     65200.34541                  25180478.4274
     -3263.9844
  -3738327.54845    767788.75945  24142459.3884   24142472.8334
     -1240.9374
 -25762455.69248 -19734249.76247  20671553.7394   20671560.2674
       910.0474
 -20225588.78947 -15533977.35346  21468122.1224   21468128.2044
      1282.2504
 -12829789.83046  -3507248.75346  22583532.5524   22583541.6734
      1543.2664
 -27088657.40148 -20925008.38547  20887592.3104   20887598.6034
      -307.2814
 -16741717.60746   1417472.66346  22324253.9814   22324262.2474
     -1799.9224
 01 10  2  0 26 30.0010000  0  8G13G 3G10G 8G28G 2G27G31
 -17949513.94047 -13836787.17546  22318240.0674   22318248.1924
     -3209.4694
    114201.63941                  25189800.4894
     -3269.4374
  -3719647.20845    782344.82045  24146014.8884   24146027.6654
     -1249.6414
 -25776066.81048 -19744855.81047  20668963.5994   20668970.2084
       904.8914
 -20244771.55147 -15548924.92346  21464471.9894   21464478.0604
      1275.5784
 -12852900.93346  -3525257.35446  22579135.0134   22579144.1344
      1538.3284
 -27084005.51348 -20921383.53747  20888477.8174   20888484.2044
      -312.8594
 -16714639.62746   1438572.39046  22329406.3174   22329414.7944
     -1810.3594
 01 10  2  0 26 45.0010000  0  8G13G 3G10G 8G28G 2G27G31
 -17901319.71647 -13799233.29946  22327411.3174   22327419.2084
     -3216.4534
      6546.41451                  25199141.5214
     -3275.4224
  -3700833.25845    797004.99145  24149595.2244   24149607.5914
     -1258.8754
 -25789597.34748 -19755399.07147  20666389.0604   20666395.5054
       899.1724
 -20263851.28347 -15563792.21446  21460841.1924   21460847.2044
      1268.3754
 -12875935.06546  -3543205.98446  22574751.4664   22574760.2944
      1532.8594
 -27079267.03948 -20917691.22647  20889379.4034   20889385.7674
      -318.9694
 -16687402.22846   1459796.33346  22334589.5214   22334597.8924
     -1821.3124
 01 10  2  0 27  0.0010000  0  7G13G10G 8G28G 2G27G31
 -17853023.68947 -13761600.09646  22336601.8174   22336609.9664
     -3223.0784
  -3681883.85145    811770.71145  24153201.4354   24153213.6384
     -1267.7664
 -25803045.22248 -19765877.92747  20663829.6694   20663836.2204
       893.7974
 -20282825.89847 -15578577.59546  21457230.4664   21457236.4544
      1261.5314
 -12898890.07146  -3561092.95846  22570383.5914   22570392.3134
      1527.7504
 -27074439.67648 -20913929.64947  20890298.0284   20890304.4154
      -324.7344
 -16660003.50146   1481145.97946  22339803.5134   22339811.7784
     -1831.9064
 01 10  2  0 27 15.0010000  0  7G13G10G 8G28G 2G27G31
 -17804626.25847 -13723887.87246  22345811.7944   22345819.1224
     -3230.0474
  -3662799.32645    826641.72745  24156832.4744   24156844.4784
     -1276.9534
 -25816410.35348 -19776292.29647  20661286.5134   20661292.9814
       888.0944
 -20301695.71847 -15593281.32746  21453639.4894   21453645.5714
      1254.3284
 -12921766.26147  -3578918.51346  22566030.2714   22566039.3804
      1522.2974
 -27069523.57248 -20910098.91847  20891233.5524   20891239.8564
      -330.8594
 -16632443.95546   1502620.94446  22345047.8494   22345055.8454
     -1842.8124
 01 10  2  0 27 30.0010000  0  7G13G10G 8G28G 2G27G31
 -17756127.95147 -13686097.05046  22355040.3254   22355047.9234
     -3236.5474
  -3643580.47745    841617.38345  24160489.9354   24160502.6534
     -1285.6874
 -25829693.30148 -19786642.63047  20658758.8104   20658765.1264
       882.8134
 -20320461.13747 -15607903.69946  21450068.5994   21450074.6924
      1247.5784
 -12944564.08746  -3596683.00446  22561691.6694   22561700.5094
      1517.2814
 -27064519.09648 -20906199.32847  20892185.9194   20892192.2244
      -336.5474
 -16604724.29346   1524220.67946  22350322.7244   22350331.3994
     -1853.2814
 01 10  2  0 27 45.0010000  0  8G13G 3G10G 8G28G 2G27G31
 -17707531.40747 -13648229.68546  22364288.0994   22364295.8964
     -3243.0474
      6591.35851                  25236669.0524
     -3297.7814
  -3624229.69345    856695.84845  24164172.3724   24164184.6924
     -1294.4534
 -25842895.98748 -19796930.42647  20656246.3964   20656252.8174
       877.5004
 -20339124.39347 -15622446.45646  21446517.1464   21446523.1574
      1240.8134
 -12967285.78146  -3614388.17246  22557367.8724   22557376.6304
      1512.2504
 -27059428.33348 -20902232.50547  20893154.7634   20893161.1384
      -342.2664
 -16576846.95846   1545943.27446  22355627.7244   22355635.9544
     -1863.7504
 01 10  2  0 28  0.0010000  0  8G13G 3G10G 8G28G 2G27G31
 -17658835.95447 -13610285.24546  22373554.7474   22373562.5214
     -3249.6874
     16508.11151                  25246089.8414
     -3303.4374
  -3604746.27045    871877.69345  24167880.0054   24167893.7674
     -1303.3594
 -25856017.26648 -19807154.78747  20653749.5754   20653755.9744
       872.0004
 -20357684.40447 -15636908.76246  21442985.2394   21442991.2864
      1233.8594
 -12989930.43447  -3632033.30146  22553058.9584   22553067.8104
      1507.0314
 -27054250.23048 -20898197.62747  20894140.0674   20894146.4194
      -348.1724
 -16548811.16446   1567789.34246  22360963.0834   22360971.3724
     -1874.3754
 01 10  2  0 28 15.0010000  0  8G13G 3G10G 8G28G 2G27G31
 -17610040.36947 -13572262.76746  22382840.0834   22382847.7164
     -3256.2034
     66101.33641                  25255526.3254
     -3308.8754
  -3585129.00345    887163.81745  24171612.6304   24171625.2434
     -1312.0944
 -25869055.64448 -19817314.54647  20651268.2784   20651274.6424
       866.6254
 -20376139.77647 -15651289.54646  21439473.4194   21439479.4314
      1227.0474
 -13012496.48147  -3649617.20146  22548764.6384   22548773.4544
      1501.9534
 -27048983.17148 -20894093.42747  20895142.2084   20895148.6064
      -353.9374
 -16520615.67846   1589759.84146  22366328.2634   22366336.5054
     -1884.8594
 01 10  2  0 28 30.0010000  0  8G13G 3G10G 8G28G 2G27G31
 -17561146.79247 -13534163.94846  22392144.4034   22392152.2474
     -3262.8284
                                  25264979.5214
     -3314.3754
  -3565380.16945    902552.45845  24175370.9424   24175383.7314
     -1320.9694
 -25882012.93248 -19827411.12347  20648802.6224   20648809.0324
       861.1254
 -20394492.53147 -15665590.35846  21435980.8414   21435986.8064
      1220.1094
 -13034985.99147  -3667141.44746  22544484.7394   22544493.4974
      1496.7504
 -27043628.97048 -20889921.32547  20896161.1854   20896167.5244
      -359.8444
 -16492262.66846   1611853.09246  22371723.9114   22371732.0014
     -1895.4374
 01 10  2  0 28 45.0010000  0  8G13G 3G10G 8G28G 2G27G31
 -17512153.02746 -13495987.05146  22401467.0914   22401474.3724
     -3269.7814
     46441.32541                  25274449.1224
     -3320.2814
  -3545497.34845    918045.49445  24179155.0674   24179166.7084
     -1330.2034
 -25894886.48048 -19837442.44847  20646353.0364   20646359.4464
       855.2504
 -20412740.13147 -15679809.23946  21432508.6384   21432514.5914
      1212.8134
 -13057396.32447  -3684603.99946  22540220.3644   22540229.2864
      1491.1884
 -27038184.93648 -20885679.22747  20897197.3334   20897203.6494
      -366.1254
 -16463749.82246   1634070.88546  22377149.4504   22377157.3764
     -1906.3754
 01 10  2  0 29  0.0010000  0  8G13G 3G10G 8G28G 2G27G31
 -17463057.87747 -13457731.16346  22410810.4354   22410818.5134
     -3276.2504
                                  25283931.7784
     -3326.2194
  -3525479.31745    933643.91945  24182964.1224   24182975.9744
     -1338.9064
 -25907674.65448 -19847407.24047  20643919.4354   20643925.7864
       849.8284
 -20430881.14647 -15693945.06246  21429056.2864   21429062.3454
      1206.0004
 -13079726.12947  -3702003.79646  22535971.1534   22535980.0874
      1486.1094
 -27032649.54448 -20881365.93147  20898250.3804   20898256.6854
      -371.9224
 -16435075.84446   1656414.25446  22382606.2784   22382614.6384
     -1916.8124
 01 10  2  0 29 15.0010000  0  7G13G10G 8G28G 2G27G31
 -17413864.26747 -13419398.53946  22420171.6384   22420179.1774
     -3282.8754
  -3505329.07445    949345.35645  24186798.5674   24186809.5994
     -1347.7814
 -25920380.22548 -19857307.67547  20641501.6534   20641507.9114
       844.2504
 -20448918.41947 -15708000.04746  21425623.9034   21425629.9974
      1198.9844
 -13101978.14947  -3719342.98746  22531736.7394   22531745.3214
      1480.8444
 -27027025.51848 -20876983.57647  20899320.7314   20899327.1064
      -377.9224
 -16406243.85346   1678880.72946  22388092.5754   22388101.0404
     -1927.4224
 01 10  2  0 29 30.0010000  0  7G13G10G 8G28G 2G27G31
 -17364572.37547 -13380989.35046  22429551.2394   22429559.0014
     -3289.3444
  -3485046.73045    965149.69745  24190658.4814   24190671.1774
     -1356.5004
 -25933002.68148 -19867143.34147  20639099.5524   20639105.8564
       838.7664
 -20466851.52047 -15721973.85746  21422211.1224   21422217.0994
      1192.1254
 -13124152.24447  -3736621.45846  22527517.0834   22527525.8174
      1475.7344
 -27021312.41648 -20872531.80847  20900407.9584   20900414.3334
      -383.7974
 -16377253.75946   1701470.40946  22393609.1384   22393617.8024
     -1937.8914
 01 10  2  0 29 45.0010000  0  7G13G10G 8G28G 2G27G31
 -17315182.22947 -13342503.58246  22438950.1464   22438957.7434
     -3295.8754
  -3464632.34545    981056.95545  24194543.1384   24194553.2554
     -1365.2974
 -25945541.82748 -19876914.08947  20636713.6064   20636719.9234
       833.2344
 -20484680.35747 -15735866.42146  21418818.5914   21418824.6494
      1185.1884
 -13146248.23847  -3753839.06446  22523312.3414   22523321.0054
      1470.5314
 -27015509.93648 -20868010.39447  20901512.0674   20901518.4314
      -389.7504
 -16348105.52146   1724183.31846  22399155.8644   22399164.0714
     -1948.4224
 01 10  2  0 30  0.0010000  0  7G13G10G 8G28G 2G27G31
 -17265693.27347 -13303940.83146  22448367.7314   22448375.9504
     -3302.4534
  -3444085.35045    997067.54345  24198452.8884   24198465.2314
     -1374.1254
 -25957996.50948 -19886619.02147  20634343.5364   20634349.8064
       827.5944
 -20502404.13247 -15749677.11646  21415445.5994   21415451.6104
      1178.1724
 -13168265.24047  -3770995.12746  22519122.6774   22519131.6924
      1465.2504
 -27009617.05348 -20863418.53947  20902633.5754   20902639.9744
      -395.7814
 -16318798.53446   1747019.92846  22404733.1854   22404741.3924
     -1958.9844
 01 10  2  0 30 15.0010000  0  7G13G10G 8G28G 2G27G31
 -17216105.79147 -13265301.31846  22457804.1304   22457811.7864
     -3309.1564
  -3423406.03145   1013181.21845  24202388.2244   24202403.3214
     -1383.0624
 -25970366.64048 -19896258.06547  20631989.5444   20631996.0014
       821.8284
 -20520022.74947 -15763405.87246  21412093.2084   21412099.3134
      1171.0314
 -13190203.25947  -3788089.65546  22514948.0054   22514956.7394
      1459.8754
 -27003633.71548 -20858756.19847  20903772.1064   20903778.4464
      -401.9374
 -16289333.08646   1769980.01746  22410340.3254   22410348.4274
     -1969.6724
 01 10  2  0 30 30.0010000  0  7G13G10G 8G28G 2G27G31
 -17166421.47546 -13226586.32246  22467258.3644   22467266.4424
     -3315.4844
  -3402595.98745   1029396.80845  24206348.6614   24206362.0364
     -1391.6564
 -25982653.68748 -19905832.37547  20629651.2864   20629657.6614
       816.3914
 -20537537.91847 -15777054.02346  21408759.8174   21408765.8174
      1164.2664
 -13212063.86647  -3805123.84346  22510788.1774   22510796.6184
      1454.8284
 -26997561.40448 -20854024.52447  20904927.4744   20904933.8374
      -407.7664
 -16259711.00146   1793062.15146  22415976.8564   22415985.0754
     -1980.0004
 01 10  2  0 30 45.0010000  0  7G13G10G 8G28G 2G27G31
 -17116639.00046 -13187794.85846  22476731.8644   22476740.4234
     -3322.1724
  -3381653.96545   1045715.16645  24210333.4744   24210347.0604
     -1400.5944
 -25994855.85848 -19915340.54847  20627329.2474   20627335.7284
       810.5784
 -20554948.04447 -15790620.33146  21405446.8024   21405452.8254
      1157.0944
 -13233845.44747  -3822096.46646  22506643.1924   22506651.7394
      1449.4064
 -26991398.33248 -20849222.13447  20906100.3564   20906106.7784
      -413.9694
 -16229930.80046   1816267.50046  22421644.1614   22421652.1224
     -1990.6874
 01 10  2  0 31  0.0010000  0  7G13G10G 8G28G 2G27G31
 -17066757.62847 -13148926.32446  22486224.1384   22486232.2044
     -3328.6874
  -3360579.20745   1062137.00245  24214343.9974   24214358.3804
     -1409.3754
 -26006972.04448 -19924781.71747  20625023.7314   20625030.1424
       804.9064
 -20572252.04047 -15804103.93346  21402154.0994   21402160.2164
      1150.0944
 -13255547.05747  -3839006.76646  22502513.2004   22502521.5134
      1444.1414
 -26985143.40748 -20844348.16747  20907290.6924   20907297.1264
      -420.0314
 -16199991.80546   1839596.58046  22427340.6854   22427349.4664
     -2001.2034
 01 10  2  0 31 15.0010000  0  7G13G10G 8G28G 2G27G31
 -17016778.53946 -13109981.65846  22495734.7554   22495742.8454
     -3335.0474
  -3339372.71045   1078661.48445  24218379.5994   24218392.6224
     -1417.9844
 -26019002.85748 -19934156.36447  20622734.3174   20622740.7744
       799.3594
 -20589450.76147 -15817505.50246  21398881.0214   21398887.0094
      1143.2344
 -13277169.41647  -3855855.31546  22498398.9034   22498407.5444
      1439.0004
 -26978797.20648 -20839403.07647  20908498.3334   20908504.6964
      -425.9694
 -16169894.92346   1863048.68746  22433068.3724   22433076.9424
     -2011.5624
 01 10  2  0 31 30.0010000  0  7G13G10G 8G28G 2G27G31
 -16966702.82947 -13070961.68546  22505264.0054   22505271.9664
     -3341.8284
  -3318035.61145   1095287.72645  24222439.7784   24222453.1534
     -1427.0784
 -26030949.14448 -19943465.14347  20620460.7944   20620467.1814
       793.3594
 -20606544.98147 -15830825.64646  21395628.2244   21395634.3064
      1135.9064
 -13298713.47347  -3872642.85046  22494299.0834   22494307.4194
      1433.4224
 -26972360.51848 -20834387.47347  20909723.2394   20909729.6494
      -432.3594
 -16139641.24046   1886622.97446  22438825.6384   22438834.5484
     -2022.3594
 01 10  2  0 31 45.0010000  0  7G13G10G 8G28G 2G27G31
 -16916528.40247 -13031864.80646  22514812.2394   22514820.5284
     -3348.1414
  -3296565.77745   1112017.41245  24226525.5134   24226538.0444
     -1435.6564
 -26042808.24548 -19952705.98347  20618204.1694   20618210.5914
       787.7974
 -20623532.33947 -15844062.51846  21392395.5674   21392401.7084
      1129.0314
 -13320176.87647  -3889367.53346  22490214.4354   22490222.7244
      1428.3134
 -26965830.78548 -20829299.36947  20910965.5524   20910971.9504
      -438.3124
 -16109228.63846   1910321.09346  22444612.2634   22444620.4114
     -2032.6874
 01 10  2  0 32  0.0010000  0  7G13G10G 8G28G 2G27G31
 -16866256.91846 -12992692.28646  22524378.5364   22524386.5564
     -3354.7664
  -3274964.96545   1128849.12345  24230635.2314   24230647.1654
     -1444.5164
 -26054581.55248 -19961879.97147  20615963.9584   20615970.3684
       781.9064
 -20640414.38847 -15857217.33046  21389183.0364   21389189.0954
      1121.8444
 -13341561.08847  -3906030.51446  22486145.0524   22486153.4584
      1422.8594
 -26959209.36748 -20824139.82247  20912225.8174   20912232.0994
      -444.5944
 -16078658.88446   1934141.66846  22450429.7784   22450438.0564
     -2043.3284
 01 10  2  0 32 15.0010000  0  7G13G10G 8G28G 2G27G31
 -16815886.37846 -12953442.58246  22533963.1304   22533971.5134
     -3361.3754
  -3253231.23945   1145784.42345  24234772.0834   24234786.1384
     -1453.3754
 -26066266.64448 -19970985.22747  20613740.2164   20613746.6964
       776.0164
 -20657188.81247 -15870288.27246  21385990.9894   21385996.9894
      1114.6564
 -13362863.85347  -3922630.02946  22482091.4354   22482100.1574
      1417.4224
 -26952493.93748 -20818907.02347  20913503.5134   20913509.7824
      -450.8754
 -16047929.96946   1958086.28246  22456277.5214   22456285.9974
     -2053.9374
 01 10  2  0 32 30.0010000  0  7G13G10G 8G28G 2G27G31
 -16765417.81946 -12914116.50746  22543567.0754   22543575.5054
     -3367.7194
  -3231365.46945   1162822.65045  24238933.7244   24238947.7084
     -1461.9844
 -26077864.02748 -19980022.13347  20611533.3494   20611539.7244
       770.3444
 -20673856.21647 -15883275.83746  21382819.1144   21382825.3134
      1107.7194
 -13384085.85047  -3939166.60446  22478052.9034   22478061.1814
      1412.2344
 -26945684.92148 -20813601.29547  20914799.3724   20914805.5834
      -456.9374
 -16017042.75046   1982154.23946  22462154.9274   22462163.4154
     -2064.2974
 01 10  2  0 32 45.0010000  0  7G13G10G 8G28G 2G27G31
 -16714854.91946 -12874716.91746  22553189.0604   22553197.1734
     -3374.0164
  -3209371.37945   1179960.83345  24243118.5834   24243131.1144
     -1470.5474
 -26089377.13248 -19988993.36747  20609342.4274   20609348.9314
       764.7194
 -20690420.22547 -15896182.82746  21379667.0674   21379673.1384
      1100.8134
 -13405230.58947  -3955642.98646  22474029.5214   22474037.9974
      1407.0634
 -26938785.76548 -20808225.33047  20916112.2474   20916118.6464
      -462.9534
 -15986000.95946   2006342.63846  22468061.8104   22468070.0874
     -2074.6094
 01 10  2  0 33  0.0010000  0  7G13G10G 8G28G 2G27G31
 -16664193.89146 -12835240.85946  22562829.7784   22562837.7514
     -3380.6724
  -3187245.27745   1197201.87945  24247328.4664   24247341.8064
     -1479.4844
 -26100801.68848 -19997895.60247  20607168.3334   20607174.8134
       758.6724
 -20706876.86947 -15909006.15446  21376535.5444   21376541.5564
      1093.5314
 -13426294.02347  -3972056.00146  22470020.7394   22470029.4504
      1401.5164
 -26931792.33948 -20802775.90647  20917443.0444   20917449.4194
      -469.3754
 -15954800.85746   2030654.39246  22473999.2864   22474007.9744
     -2085.2974
 01 10  2  0 33 15.0010000  0  7G13G10G 8G28G 2G27G31
 -16613436.56646 -12795689.76146  22572488.8724   22572496.9504
     -3387.0164
  -3164988.85445   1214544.48145  24251563.6224   24251576.8334
     -1488.0944
 -26112139.12648 -20006729.95747  20605011.0444   20605017.4544
       752.9384
 -20723227.69747 -15921747.03346  21373424.2084   21373430.1384
      1086.5314
 -13447277.70947  -3988406.88046  22466028.1384   22466036.7554
      1396.2664
 -26924706.01148 -20797254.09647  20918791.4424   20918797.7354
      -475.5164
 -15923444.05846   2055088.25946  22479965.9114   22479974.1774
     -2095.6564
 01 10  2  0 33 30.0010000  0  7G13G10G 8G28G 2G27G31
 -16562580.56046 -12756061.77246  22582166.2714   22582174.2784
     -3393.7504
  -3142599.79045   1231990.42745  24255824.2084   24255836.9274
     -1497.0944
 -26123386.79348 -20015494.36147  20602870.5674   20602877.0014
       746.7664
 -20739470.00947 -15934403.35246  21370333.3024   21370339.2434
      1079.1254
 -13468179.16047  -4004693.68646  22462050.4664   22462059.1654
      1390.6094
 -26917524.03348 -20791657.74847  20920158.1464   20920164.4624
      -482.0624
 -15891928.26046   2079646.02346  22485963.3334   22485971.3414
     -2106.4374
 01 10  2  0 33 45.0010000  0  7G13G10G 8G28G 2G27G31
 -16511626.11646 -12716357.08046  22591862.4584   22591871.2044
     -3400.0624
  -3120077.97045   1249539.82245  24260110.1144   24260122.7394
     -1505.7034
 -26134544.17048 -20024188.40847  20600747.3024   20600753.7594
       740.9844
 -20755603.65847 -15946974.99846  21367262.9894   21367269.0244
      1072.1564
 -13488998.07147  -4020916.17146  22458088.8174   22458097.5754
      1385.3754
 -26910246.00448 -20785986.56047  20921543.2314   20921549.6424
      -488.2194
 -15860253.45646   2104327.69446  22491990.9034   22491999.0174
     -2116.7504
 01 10  2  0 34  0.0010000  0  7G13G10G 8G28G 2G27G31
 -16460575.71346 -12676577.61446  22601577.2164   22601585.3294
     -3406.6874
  -3097426.14745   1267190.49645  24264420.4274   24264436.2284
     -1514.5784
 -26145613.57248 -20032813.90447  20598641.0674   20598647.3604
       734.8914
 -20771631.09947 -15959463.88146  21364213.3494   21364219.5134
      1064.8284
 -13509736.85147  -4037076.21746  22454142.0754   22454150.4814
      1379.7814
 -26902874.25648 -20780242.34047  20922946.0364   20922952.4584
      -494.7034
 -15828422.38046   2129131.12346  22498047.9894   22498056.3724
     -2127.4064
 01 10  2  0 34 15.0010000  0  7G13G10G 8G28G 2G27G31
 -16409428.67046 -12636722.83946  22611310.4584   22611319.1104
     -3413.1094
  -3074643.67245   1284943.03345  24268756.0284   24268770.1184
     -1523.2664
 -26156594.01148 -20041370.07847  20596551.4664   20596557.7594
       728.9844
 -20787551.35447 -15971869.25046  21361183.7084   21361189.6614
      1057.6884
 -13530394.59747  -4053173.11946  22450211.1854   22450219.9784
      1374.4064
 -26895407.78748 -20774424.31447  20924366.8334   20924373.1614
      -501.0004
 -15796434.33846   2154056.87246  22504134.9354   22504143.6924
     -2137.8594
 01 10  2  0 34 30.0010000  0  7G13G10G 8G28G 2G27G31
 -16358183.95946 -12596791.96746  22621061.7864   22621070.4274
     -3419.4064
  -3051729.42345   1302798.19645  24273116.1924   24273130.5754
     -1531.8444
 -26167483.91048 -20049855.70247  20594479.2244   20594485.6694
       723.1414
 -20803363.10947 -15984190.06846  21358174.6304   21358180.6654
      1050.6564
 -13550969.98547  -4069205.84946  22446295.5914   22446304.1034
      1369.1094
 -26887845.09648 -20768531.30947  20925805.9194   20925812.2714
      -507.2344
 -15764288.18646   2179105.81746  22510252.1534   22510260.3844
     -2148.1874
 01 10  2  0 34 45.0010000  0  7G13G10G 8G28G 2G27G31
 -16306845.14046 -12556787.76746  22630831.5214   22630839.2824
     -3425.7034
  -3028687.04645   1320753.25145  24277500.9194   24277514.0014
     -1540.4064
 -26178286.46648 -20058273.26547  20592423.5054   20592429.8454
       717.2814
 -20819069.58247 -15996428.85347  21355185.8174   21355191.6884
      1043.6094
 -13571466.38147  -4085177.01846  22442395.0444   22442403.4154
      1363.8134
 -26880189.30948 -20762565.76047  20927262.8414   20927269.1574
      -513.4844
 -15731987.47546   2204275.20146  22516398.4894   22516406.7434
     -2158.5164
 01 10  2  0 35  0.0010000  0  7G13G10G 8G28G 2G27G31
 -16255407.94346 -12516706.90346  22640619.0054   22640627.7394
     -3432.4374
  -3005512.17745   1338811.49845  24281911.7944   24281923.6694
     -1549.4224
 -26188996.88348 -20066619.02947  20590385.4034   20590391.7674
       710.9384
 -20834666.28547 -16008582.10746  21352217.9274   21352223.9854
      1036.0944
 -13591879.17447  -4101083.04546  22438511.0444   22438519.4384
      1358.0474
 -26872435.72548 -20756524.00747  20928738.3564   20928744.7434
      -520.1874
 -15699527.86946   2229568.40846  22522576.1384   22522584.9784
     -2169.2814
 01 10  2  0 35 15.0010000  0  7G13G10G 8G28G 2G27G31
 -16203875.18146 -12476551.58746  22650426.3884   22650434.4784
     -3438.7194
  -2982207.71945   1356970.73945  24286346.9424   24286360.2824
     -1557.9694
 -26199617.70648 -20074894.97847  20588364.3564   20588370.7434
       705.0474
 -20850155.92547 -16020651.92947  21349270.2554   21349276.1964
      1029.0474
 -13612211.03847  -4116926.01046  22434641.7554   22434650.3254
      1352.7344
 -26864586.90248 -20750408.04447  20930231.7394   20930238.0914
      -526.4534
 -15666912.33446   2254983.10946  22528782.4584   22528791.3334
     -2179.5784
 01 10  2  0 35 30.0010000  0  7G13G10G 8G28G 2G27G31
 -16152245.26946 -12436320.55746  22660251.1924   22660259.3174
     -3445.2034
  -2958772.02445   1375232.25845  24290806.2864   24290821.0914
     -1566.7194
 -26210146.90048 -20083099.53347  20586360.5524   20586366.8334
       698.9064
 -20865536.51947 -16032636.78347  21346343.3334   21346349.2394
      1021.7664
 -13632460.04847  -4132704.41146  22430788.3174   22430796.7124
      1347.2034
 -26856640.80448 -20744216.27647  20931743.9974   20931750.2784
      -532.9534
 -15634139.12746   2280520.67346  22535018.9744   22535027.5444
     -2190.0944
 01 10  2  0 35 45.0010000  0  7G13G10G 8G28G 2G27G31
 -16100520.84446 -12396015.89246  22670093.6614   22670101.8684
     -3451.5314
  -2935207.64745   1393594.00945  24295289.9424   24295304.0914
     -1575.3284
 -26220586.56748 -20091234.32347  20584374.0134   20584380.3994
       692.8914
 -20880810.30947 -16044538.40947  21343436.9974   21343443.0564
      1014.5944
 -13652628.52047  -4148420.06146  22426950.4814   22426958.7714
      1341.7814
 -26848599.61448 -20737950.41247  20933273.9274   20933280.1384
      -539.3444
 -15601210.74146   2306179.15846  22541285.3104   22541294.0094
     -2200.5004
 01 10  2  0 36  0.0010000  0  7G13G10G 8G28G 2G27G31
 -16048699.61746 -12355635.80046  22679955.5524   22679964.1344
     -3457.9064
  -2911512.37245   1412057.78745  24299799.4664   24299811.6694
     -1583.9694
 -26230934.01648 -20099297.25547  20582404.9584   20582411.3684
       686.8134
 -20895974.81847 -16056354.88747  21340551.2394   21340557.3564
      1007.4064
 -13672713.89147  -4164070.95046  22423128.6064   22423136.8604
      1336.3284
 -26840460.61148 -20731608.33147  20934822.9034   20934829.2084
      -545.7974
 -15568124.94746   2331960.30446  22547581.5364   22547589.5324
     -2210.9064
 01 10  2  0 36 15.0010000  0  7G13G10G 8G28G 2G27G31
 -15996782.83946 -12315181.22746  22689834.6224   22689843.0404
     -3464.2814
  -2887687.44345   1430622.59145  24304333.2634   24304344.8104
     -1592.6254
 -26241190.16948 -20107289.04947  20580453.1774   20580459.6344
       680.7194
 -20911031.12147 -16068087.04647  21337686.1384   21337692.0794
      1000.1724
 -13692717.27347  -4179657.95346  22419321.7164   22419329.9234
      1330.8444
 -26832224.70348 -20725190.73847  20936390.1694   20936396.4274
      -552.2664
 -15534882.97546   2357863.13546  22553907.3254   22553915.4154
     -2221.3124
 01 10  2  0 36 30.0010000  0  7G13G10G 8G28G 2G27G31
 -15944768.70146 -12274650.82046  22699732.4424   22699740.7784
     -3470.8594
  -2863731.19845   1449289.74345  24308891.8414   24308904.1854
     -1601.4694
 -26251352.86748 -20115208.02047  20578519.3724   20578525.8294
       674.3914
 -20925977.20347 -16079733.31347  21334841.9274   21334847.8564
       992.7194
 -13712636.65647  -4195179.50546  22415531.3254   22415539.5914
      1325.1564
 -26823889.80248 -20718696.00847  20937976.2004   20937982.5404
      -558.9694
 -15501483.09046   2383889.02746  22560263.0524   22560270.8134
     -2231.9224
 01 10  2  0 36 45.0010000  0  7G13G10G 8G28G 2G27G31
 -15892659.39146 -12234046.23246  22709648.9424   22709657.4784
     -3477.0314
  -2839645.68845   1468057.57545  24313475.7394   24313488.4464
     -1609.9374
 -26261423.85848 -20123055.52947  20576602.7634   20576609.0914
       668.4224
 -20940815.00247 -16091295.21447  21332018.3494   21332024.2784
       985.6564
 -13732473.89947  -4210637.05946  22411756.3804   22411764.4234
      1319.8284
 -26815457.63948 -20712125.49047  20939580.7244   20939587.0634
      -565.3124
 -15467927.34246   2410036.36546  22566648.1144   22566656.5324
     -2242.1724
 01 10  2  0 37  0.0010000  0  7G13G10G 8G28G 2G27G31
 -15840455.45146 -12193367.90746  22719582.7784   22719590.8924
     -3483.4694
  -2815431.34845   1486925.84245  24318083.8334   24318097.7474
     -1618.6414
 -26271403.07848 -20130831.52847  20574703.8804   20574710.3494
       662.1564
 -20955544.68847 -16102772.86547  21329215.2474   21329221.2124
       978.3134
 -13752229.19047  -4226030.74546  22407997.0134   22408005.1144
      1314.2194
 -26806928.23248 -20705479.19847  20941203.8024   20941210.1654
      -571.9374
 -15434216.12546   2436304.84246  22573063.2714   22573071.1734
     -2252.6564
 01 10  2  0 37 15.0010000  0  7G13G10G 8G28G 2G27G31
 -15788156.90746 -12152615.86646  22729535.0914   22729543.4624
     -3489.6254
  -2791088.25745   1505894.40345  24322716.0054   24322728.4544
     -1627.0944
 -26281290.31948 -20138535.85747  20572822.4034   20572828.6384
       656.1724
 -20970166.05747 -16114166.12147  21326432.9034   21326438.8564
       971.2504
 -13771902.36647  -4241360.44746  22404253.2554   22404261.4034
      1308.9064
 -26798301.31548 -20698756.92647  20942845.5524   20942851.8454
      -578.2974
 -15400349.65246   2462694.28646  22579508.0674   22579516.2164
     -2262.8444
 01 10  2  0 37 30.0010000  0  7G13G10G 8G28G 2G27G31
 -15735764.83046 -12111790.93046  22739505.0134   22739513.5714
     -3496.0314
  -2766617.55245   1524962.40745  24327371.8414   24327382.5914
     -1635.7504
 -26291086.08848 -20146168.91147  20570958.2714   20570964.5874
       649.8914
 -20984679.96147 -16125475.63147  21323671.1464   21323677.0874
       963.9064
 -13791494.26247  -4256626.81346  22400524.9664   22400533.2784
      1303.2974
 -26789577.50748 -20691959.14747  20944505.5444   20944511.8254
      -584.9374
 -15366328.98746   2489203.90446  22585981.8884   22585990.0714
     -2273.2814
 01 10  2  0 37 45.0010000  0  7G13G10G 8G28G 2G27G31
 -15683279.70246 -12070893.51146  22749492.9814   22749501.7394
     -3502.0164
  -2742019.66945   1544129.49545  24332052.4354   24332065.6104
     -1644.0004
 -26300790.49948 -20153730.77447  20569111.6854   20569117.9314
       644.0164
 -20999086.61847 -16136701.57847  21320929.3724   21320935.2554
       956.9694
 -13811005.11447  -4271830.02846  22396812.2084   22396820.8024
      1298.1094
 -26780756.86148 -20685085.91847  20946184.2634   20946190.4504
      -591.1874
 -15332154.55646   2515833.32146  22592484.8884   22592492.2984
     -2283.3284
 01 10  2  0 38  0.0010000  0  7G13G10G 8G28G 2G27G31
 -15630700.13046 -12029922.50146  22759498.0834   22759506.5834
     -3508.5474
  -2717293.26345   1563396.79945  24336758.4354   24336772.9114
     -1652.8124
 -26310401.71548 -20161220.01747  20567282.7004   20567288.9934
       637.5474
 -21013384.39747 -16147842.67547  21318208.8494   21318214.9314
       949.4534
 -13830433.22747  -4286968.76846  22393114.9814   22393123.3644
      1292.3594
 -26771837.65648 -20678135.88147  20947881.3724   20947887.6774
      -598.0004
 -15297824.85446   2542583.75146  22599017.7634   22599026.1224
     -2293.9064
 01 10  2  0 38 15.0010000  0  7G13G10G 8G28G 2G27G31
 -15578025.67946 -11988877.56646  22769521.8104   22769530.6964
     -3514.8124
  -2692437.75845   1582764.61045  24341488.9114   24341502.9074
     -1661.3444
 -26319918.89248 -20168635.98147  20565471.4814   20565477.7864
       631.3284
 -21027572.46147 -16158898.28847  21315508.8884   21315514.8064
       942.2034
 -13849777.84147  -4302042.44346  22389433.8414   22389442.3994
      1286.8444
 -26762818.95848 -20671108.32447  20949597.6064   20949603.9354
      -604.5784
 -15263339.44346   2569455.49646  22605580.2394   22605588.9744
     -2304.2344
 01 10  2  0 38 30.0010000  0  8G13G 7G10G 8G28G 2G27G31
 -15525256.94446 -11947759.16246  22779563.6224   22779571.9814
     -3521.1094
    -16393.61952                  24985139.3174
      3278.8914
  -2667454.05745   1602232.37145  24346242.6854   24346255.0174
     -1669.9064
 -26329342.38748 -20175978.94247  20563678.2244   20563684.4464
       625.0474
 -21041651.51247 -16169868.95347  21312829.6854   21312835.7904
       934.8914
 -13869039.64047  -4317051.58746  22385768.1534   22385776.6304
      1281.2814
 -26753701.22048 -20664003.59647  20951332.6924   20951339.0564
      -611.2194
 -15228699.08046   2596447.96946  22612172.1774   22612180.9114
     -2314.5784
 01 10  2  0 38 45.0010000  0  8G13G 7G10G 8G28G 2G27G31
 -15472392.54746 -11906566.17546  22789623.0754   22789631.8564
     -3527.3594
    -65564.31243                  24975781.8804
      3277.3134
  -2642340.43245   1621801.34945  24351021.5674   24351034.0404
     -1678.4534
 -26338670.20548 -20183247.35147  20561903.1694   20561909.3804
       618.7664
 -21055619.59647 -16180753.15247  21310171.6064   21310177.6534
       927.6254
 -13888216.64847  -4331994.66246  22382119.0754   22382127.4354
      1275.7504
 -26744482.39748 -20656820.09347  20953086.8174   20953093.1224
      -617.8444
 -15193902.16446   2623562.44446  22618793.5674   22618802.1264
     -2324.8914
 01 10  2  0 39  0.0010000  0  8G13G 7G10G 8G28G 2G27G31
 -15419435.41246 -11865300.95446  22799701.0444   22799709.5674
     -3533.5474
   -114711.26243                  24966429.8024
      3275.7034
  -2617099.89145   1641469.20645  24355825.3104   24355839.1304
     -1686.9064
 -26347904.87148 -20190443.18047  20560145.9744   20560152.3024
       612.5314
 -21069479.39247 -16191552.96747  21307534.2314   21307540.3604
       920.3914
 -13907311.52647  -4346873.73346  22378485.5284   22378494.0054
      1270.2664
 -26735164.98848 -20649559.77647  20954859.9974   20954866.2434
      -624.4374
 -15158951.65146   2650796.57346  22625444.4034   22625453.3254
     -2335.1254
 01 10  2  0 39 15.0010000  0  8G13G 7G10G 8G28G 2G27G31
 -15366386.07946 -11823963.88546  22809795.4894   22809804.2594
     -3539.8444
   -163834.51343                  24957082.3334
      3273.9224
  -2591733.10345   1661235.48345  24360652.6464   24360667.3104
     -1695.4694
 -26357046.57148 -20197566.56747  20558406.3964   20558412.5954
       606.2034
 -21083231.34147 -16202268.74547  21304917.1614   21304923.2554
       913.0474
 -13926324.72347  -4361689.16646  22374867.3494   22374875.6614
      1264.6564
 -26725749.33148 -20642222.90047  20956651.7714   20956658.0284
      -631.1414
 -15123848.26346   2678149.86246  22632124.3104   22632132.4934
     -2345.4694
 01 10  2  0 39 30.0010000  0  8G13G 7G10G 8G28G 2G27G31
 -15313244.56946 -11782555.00646  22819908.4744   22819917.5134
     -3545.7814
   -212933.53543                  24947739.8804
      3272.5314
  -2566240.03845   1681100.09845  24365504.0524   24365519.2204
     -1703.6724
 -26366094.86648 -20204617.16447  20556684.4114   20556690.6104
       600.1724
 -21096875.18247 -16212900.28647  21302320.7634   21302326.8334
       906.0474
 -13945255.91447  -4376440.69546  22371264.8884   22371273.2354
      1259.4064
 -26716234.95748 -20634809.09847  20958462.1854   20958468.4424
      -637.5164
 -15088591.83646   2705622.38346  22638833.8104   22638842.2284
     -2355.4534
 01 10  2  0 39 45.0010000  0  8G13G 7G10G 8G28G 2G27G31
 -15260012.40246 -11741075.46346  22830038.4974   22830046.6104
     -3551.8444
   -262009.37443    -10193.23255  24938398.8254   24938417.2394
      3270.9224
  -2540622.33145   1701061.86745  24370378.7004   24370394.4074
     -1712.0004
 -26375050.92748 -20211595.89847  20554980.3564   20554986.4974
       593.9694
 -21110412.19047 -16223448.57847  21299744.9424   21299750.9194
       898.8754
 -13964106.47047  -4391129.39546  22367677.7394   22367686.0174
      1254.0004
 -26706623.04948 -20627319.30147  20960291.2244   20960297.4704
      -644.0784
 -15053183.91846   2733212.95346  22645571.5674   22645579.7164
     -2365.5944
 01 10  2  0 40  0.0010000  0  8G13G 7G10G 8G28G 2G27G31
 -15206688.84746 -11699524.72246  22840185.0444   22840193.8724
     -3557.8444
   -311060.59043    -48414.84545  24929066.2714   24929082.0714
      3269.3444
  -2514879.24745   1721121.34845  24375278.2004   24375293.7674
     -1720.2814
 -26383913.51148 -20218501.78847  20553293.6774   20553299.9934
       587.8284
 -21123841.24447 -16233912.75447  21297189.2784   21297195.4194
       891.7664
 -13982875.35047  -4405754.44146  22364105.9664   22364114.3724
      1248.6414
 -26696912.36948 -20619752.53247  20962139.1854   20962145.5954
      -650.5784
 -15017623.79846   2760922.12146  22652338.2314   22652346.5794
     -2375.6414
 01 10  2  0 40 15.0010000  0  8G13G 7G10G 8G28G 2G27G31
 -15153275.05246 -11657903.65646  22850349.7394   22850358.6614
     -3563.9374
   -360087.67643    -86617.46045  24919735.8174   24919755.5324
      3267.6564
  -2489011.81545   1741277.67445  24380200.1534   24380214.3604
     -1728.6414
 -26392683.28348 -20225335.35847  20551624.7084   20551631.0604
       581.5634
 -21137163.24647 -16244293.51547  21294654.1614   21294660.2674
       884.5634
 -14001563.35347  -4420316.46846  22360549.7004   22360557.8494
      1243.1724
 -26687103.69548 -20612109.40847  20964005.5214   20964011.7204
      -657.1874
 -14981912.57346   2788749.03146  22659134.0754   22659142.0714
     -2385.7974
 01 10  2  0 40 30.0010000  0  8G13G 7G10G 8G28G 2G27G31
 -15099768.19846 -11616210.09146  22860531.9424   22860540.3494
     -3570.2974
   -409087.39042   -124798.90845  24910410.6774   24910430.6264
      3265.6564
  -2463017.17545   1761533.21345  24385146.3804   24385162.2044
     -1737.2974
 -26401357.03048 -20232094.10747  20549974.3724   20549980.5954
       574.9694
 -21150375.17047 -16254588.49847  21292140.1694   21292146.0874
       877.0474
 -14020167.41147  -4434813.09346  22357009.2944   22357017.6884
      1237.3914
 -26677193.82648 -20604387.43047  20965891.5994   20965897.7164
      -664.1094
 -14946047.31346   2816695.97246  22665958.3884   22665966.3024
     -2396.2194
 01 10  2  0 40 45.0010000  0  8G13G 7G10G 8G28G 2G27G31
 -15046170.41346 -11574445.65446  22870731.0364   22870739.6654
     -3576.1414
   -458061.14143   -162960.04145  24901091.6064   24901110.7124
      3264.1254
  -2436897.44545   1781886.14645  24390116.5754   24390131.5324
     -1745.4224
 -26409936.40048 -20238779.30347  20548341.5754   20548347.8104
       568.8594
 -21163478.88947 -16264799.15947  21289646.5444   21289652.5794
       870.0474
 -14038689.45247  -4449245.80446  22353485.0604   22353493.6304
      1232.1414
 -26667184.44848 -20596587.91347  20967796.2714   20967802.4464
      -670.5474
 -14910030.14446   2844761.29446  22672812.6694   22672820.8994
     -2406.1414
 01 10  2  0 41  0.0010000  0  8G13G 7G10G 8G28G 2G27G31
 -14992484.21846 -11532612.33846  22880947.4814   22880955.7714
     -3581.9694
   -507010.71943   -201102.39945  24891776.7714   24891794.4234
      3262.5474
  -2410655.10345   1802334.68145  24395110.7554   24395126.0634
     -1753.5314
 -26418423.45648 -20245392.56947  20546726.6534   20546732.8884
       562.7814
 -21176476.67347 -16274927.27447  21287173.2244   21287179.1884
       863.0314
 -14057131.67547  -4463616.30946  22349975.5524   22349983.6534
      1226.8754
 -26657077.65648 -20588712.48247  20969719.2944   20969725.4584
      -676.9844
 -14873863.57546   2872943.01146  22679694.6384   22679702.8214
     -2416.0314
 01 10  2  0 41 15.0010000  0  8G13G 7G10G 8G28G 2G27G31
 -14938710.85346 -11490711.09446  22891179.5134   22891187.6614
     -3587.7664
   -555937.07043   -239226.60545  24882466.1144   24882482.6424
      3261.0164
  -2384291.60845   1822877.58045  24400127.4584   24400142.8254
     -1761.5474
 -26426819.16748 -20251934.66647  20545128.8964   20545134.9894
       556.7034
 -21189369.56447 -16284973.66047  21284719.6304   21284725.6064
       856.0784
 -14075495.18847  -4477925.50346  22346480.7554   22346488.7634
      1221.6414
 -26646874.39348 -20580761.88347  20971661.1464   20971667.4154
      -683.4064
 -14837548.94846   2901240.10646  22686604.9744   22686613.4274
     -2425.8594
 01 10  2  0 41 30.0010000  0  8G13G 7G10G 8G28G 2G27G31
 -14884849.28146 -11448741.10846  22901430.0364   22901439.4154
     -3593.8444
   -604838.62743   -277331.50945  24873160.4114   24873179.7284
      3259.1414
  -2357806.01845   1843515.62345  24405167.2864   24405182.0794
     -1769.9064
 -26435122.27748 -20258404.60447  20543548.8644   20543555.1104
       550.2974
 -21202156.37247 -16294937.38347  21282286.4274   21282292.4034
       848.7814
 -14093778.72847  -4492172.36746  22343001.4194   22343009.8494
      1216.1094
 -26636573.27248 -20572735.03347  20973621.4114   20973627.7744
      -690.1414
 -14801085.17546   2929653.41146  22693544.3174   22693552.2314
     -2436.0164
 01 10  2  0 41 45.0010000  0  8G13G 7G10G 8G28G 2G27G31
 -14830898.51446 -11406701.62346  22911696.2244   22911705.8604
     -3599.5474
   -653713.75043   -315415.79645  24863859.4974   24863878.4974
      3257.6094
  -2331197.25945   1864249.63445  24410230.1144   24410244.4154
     -1777.8754
 -26443331.07048 -20264801.04547  20541986.8104   20541993.0444
       544.2504
 -21214835.71947 -16304817.36947  21279873.4894   21279879.4784
       841.8444
 -14111980.95547  -4506355.87046  22339537.9424   22339546.3604
      1210.9224
 -26626172.79548 -20564630.75747  20975600.4034   20975606.5444
      -696.5474
 -14764471.29646   2958183.68546  22700511.5054   22700520.0754
     -2445.7814
 01 10  2  0 42  0.0010000  0  8G13G 7G10G 8G28G 2G27G31
 -14776859.75446 -11364593.57946  22921980.1384   22921988.7674
     -3605.5314
   -702562.91743   -353479.91145  24854564.3644   24854583.7394
      3255.7344
  -2304466.38944   1885078.78645  24415316.8884   24415331.8454
     -1786.1414
 -26451446.43348 -20271124.68747  20540442.4114   20540448.7864
       537.9064
 -21227408.48447 -16314614.30847  21277480.9504   21277486.8804
       834.6414
 -14130102.80347  -4520476.74746  22336089.3104   22336097.7394
      1205.4384
 -26615673.72248 -20556449.65447  20977598.4664   20977604.6424
      -703.2344
 -14727708.42646   2986830.06046  22707507.3414   22707515.5364
     -2455.8284
 01 10  2  0 42 15.0010000  0  8G13G 7G10G 8G28G 2G27G31
 -14722734.82346 -11322418.38146  22932279.0444   22932287.4624
     -3611.2194
   -751387.45943   -391524.80745  24845273.1534   24845291.4154
      3254.1094
  -2277615.29745   1906001.66745  24420426.7784   24420443.6814
     -1794.1254
 -26459469.78548 -20277376.62947  20538915.5054   20538921.8804
       531.7814
 -21239876.46647 -16324329.58747  21275108.4354   21275114.3414
       827.6724
 -14148145.91347  -4534536.26046  22332655.8174   22332664.2004
      1200.2194
 -26605077.60548 -20548192.93347  20979614.6614   20979621.0014
      -709.6874
 -14690798.45646   3015591.06346  22714530.9034   22714539.8254
     -2465.5944
 01 10  2  0 42 30.0010000  0  8G13G 7G10G 8G28G 2G27G31
 -14668523.33046 -11280175.74146  22942596.0524   22942604.3534
     -3616.9694
   -800186.50643   -429549.84445  24835985.6464   24836001.3294
      3252.4224
  -2250643.53745   1927018.55045  24425560.4034   24425574.6464
     -1802.0944
 -26467400.21448 -20283556.16347  20537406.5674   20537412.6614
       525.6254
 -21252238.84247 -16333962.58047  21272756.0754   21272762.0174
       820.6564
 -14166109.58647  -4548533.88546  22329237.4034   22329245.6574
      1194.9534
 -26594383.51948 -20539859.87647  20981649.7004   20981655.8884
      -716.1874
 -14653740.87946   3044467.06746  22721582.8414   22721591.3644
     -2475.3914
 01 10  2  0 42 45.0010000  0  8G13G 7G10G 8G28G 2G27G31
 -14614226.66146 -11237866.72846  22952928.0674   22952936.6494
     -3622.7194
   -848960.59343   -467555.35545  24826705.0524   24826721.6384
      3250.6414
  -2223552.67645   1948128.22145  24430715.2004   24430729.6534
     -1810.1414
 -26475238.54648 -20289663.93647  20535915.0364   20535921.2824
       519.3754
 -21264496.72747 -16343514.15747  21270423.3024   21270429.3254
       813.6094
 -14183994.99647  -4562470.51446  22325833.8644   22325841.8724
      1189.6414
 -26583592.56248 -20531451.32347  20983703.0214   20983709.3844
      -722.7504
 -14616537.10946   3073457.01746  22728662.5134   22728670.7314
     -2485.2344
 01 10  2  0 43  0.0010000  0  8G13G 7G10G 8G28G 2G27G31
 -14559844.39846 -11195491.02646  22963276.2784   22963285.0364
     -3628.1564
   -897708.76543   -505540.79145  24817428.7474   24817444.6884
      3249.2034
  -2196342.08345   1969331.23945  24435893.9194   24435907.3414
     -1817.8754
 -26482984.01948 -20295699.34747  20534440.9894   20534447.1534
       513.4384
 -21276649.40447 -16352983.75247  21268110.6614   21268116.6384
       806.8594
 -14201801.28347  -4576345.49346  22322445.1774   22322453.0914
      1184.6254
 -26572703.71048 -20522966.50047  20985775.2164   20985781.4034
      -729.0164
 -14579186.67746   3102561.22246  22735770.0524   22735778.7164
     -2494.7504
 01 10  2  0 43 15.0010000  0  8G13G 7G10G 8G28G 2G27G31
 -14505379.09146 -11153050.61246  22973640.9504   22973649.7084
     -3633.6254
   -946433.16443   -543507.64445  24808156.2084   24808173.9074
      3247.6564
  -2169014.53545   1990625.37545  24441093.3964   24441107.2164
     -1825.5944
 -26490638.88848 -20301664.15847  20532984.2244   20532990.4704
       507.4694
 -21288699.29147 -16362373.24847  21265817.5524   21265823.5524
       800.0634
 -14219530.94447  -4590160.77146  22319071.5284   22319079.5604
      1179.5784
 -26561719.32648 -20514407.23147  20987865.5914   20987871.8024
      -735.3284
 -14541692.22046   3131777.66646  22742905.4114   22742913.6304
     -2504.2664
 01 10  2  0 43 30.0010000  0  8G13G 7G10G 8G28G 2G27G31
 -14450829.30446 -11110544.35046  22984021.0364   22984029.2784
     -3639.6874
   -995131.56443   -581454.21045  24798889.0834   24798907.5324
      3245.4534
  -2141568.30445   2012011.92745  24446317.2634   24446331.6224
     -1833.9064
 -26498201.17048 -20307556.83047  20531545.2244   20531551.4704
       500.8134
 -21300644.57947 -16371681.23847  21263544.6144   21263550.6264
       792.6564
 -14237182.18547  -4603914.93446  22315712.8644   22315720.8844
      1173.9224
 -26550637.49148 -20505772.02347  20989974.3724   20989980.6884
      -742.2504
 -14504052.16946   3161107.56146  22750068.0054   22750076.3534
     -2514.3914
 01 10  2  0 43 45.0010000  0  8G13G 7G10G 8G28G 2G27G31
 -14396193.73046 -11067971.24846  22994418.8024   22994427.1384
     -3645.1564
  -1043802.16443   -619379.13445  24789628.7394   24789644.2124
      3243.8594
  -2114002.28845   2033491.86245  24451561.9354   24451576.9744
     -1841.6414
 -26505669.12948 -20313375.99447  20530123.9114   20530130.2284
       494.7974
 -21312483.84747 -16380906.61647  21261291.4814   21261297.4814
       785.8284
 -14254753.44147  -4617606.77646  22312368.8804   22312376.8644
      1168.8284
 -26539456.51648 -20497059.56747  20992101.9114   20992108.2164
      -748.6414
 -14466265.29346   3190551.86446  22757258.4814   22757267.0404
     -2523.9374
 01 10  2  0 44  0.0010000  0  8G13G 7G10G 8G28G 2G27G31
 -14341474.28446 -11025332.79246  23004831.0524   23004839.6924
     -3650.7814
  -1092446.30443   -657283.49245  24780371.0284   24780389.1734
      3242.0314
  -2086318.42345   2055063.63145  24456830.4744   24456845.3134
     -1849.5314
 -26513044.18348 -20319122.76847  20528720.5214   20528726.7204
       488.5784
 -21324218.72647 -16390050.64947  21259058.4894   21259064.5954
       778.8284
 -14272246.38447  -4631237.58846  22309040.2634   22309048.3294
      1163.5784
 -26528177.89148 -20488271.01847  20994248.3174   20994254.4704
      -755.1724
 -14428333.57946   3220109.01046  22764476.3414   22764484.4194
     -2533.6094
 01 10  2  0 44 15.0010000  0  8G13G 7G10G 8G28G 2G27G31
 -14286669.53946 -10982627.88246  23015260.0134   23015269.1574
     -3656.4224
  -1141061.98943   -695165.66845  24771119.8254   24771135.8134
      3240.0784
  -2058515.39045   2076728.25545  24462121.9194   24462136.5714
     -1857.4374
 -26520324.68448 -20324795.86247  20527335.0914   20527341.3844
       482.2664
 -21335847.63447 -16399112.10947  21256845.3884   21256851.3994
       771.7974
 -14289659.44547  -4644806.16646  22305726.3884   22305734.2084
      1158.2664
 -26516799.82448 -20479404.98347  20996413.2864   20996419.5094
      -761.7974
 -14390255.65446   3249780.11146  22771722.6694   22771731.5444
     -2543.3444
 01 10  2  0 44 30.0010000  0  8G13G 7G10G 8G28G 2G27G31
 -14231782.71846 -10939859.00446  23025705.6304   23025713.1814
     -3661.9374
  -1189651.97143   -733027.80445  24761872.2164   24761888.1104
      3238.4224
  -2030596.46445   2098483.18345  24467434.8174   24467448.2984
     -1865.2034
 -26527513.24548 -20330397.31747  20525967.2634   20525973.5674
       476.0944
 -21347373.38447 -16408093.18447  21254652.2314   21254658.2434
       764.8594
 -14306995.49847  -4658314.73546  22302427.6304   22302435.5674
      1153.0944
 -26505325.09248 -20470463.62647  20998597.0364   20998603.2004
      -768.2814
 -14352034.64646   3279562.69946  22778995.6224   22779004.6734
     -2552.9064
 01 10  2  0 44 45.0010000  0  8G13G 7G10G 8G28G 2G27G31
 -14176814.95546 -10897027.05646  23036165.0754   23036173.4234
     -3667.1564
  -1238216.56143   -770870.08345  24752631.2084   24752648.0404
      3236.8284
  -2002562.62145   2120327.66845  24472769.6774   24472781.1654
     -1872.6724
 -26534610.62748 -20335927.72147  20524616.4894   20524622.7474
       470.1884
 -21358796.81347 -16416994.52647  21252478.4194   21252484.2904
       758.2034
 -14324255.33947  -4671763.91146  22299142.6924   22299150.7594
      1148.1724
 -26493754.34448 -20461447.44847  21000798.7084   21000804.8964
      -774.5314
 -14313671.66146   3309455.90346  22786296.1144   22786305.5754
     -2562.2034
 01 10  2  0 45  0.0010000  0  8G13G 7G10G 8G28G 2G27G31
 -14121766.15246 -10854131.95246  23046640.8564   23046649.9074
     -3672.5164
  -1286755.10143   -808692.15845  24743394.3494   24743413.2554
      3235.1094
  -1974413.93845   2142261.62545  24478125.6534   24478139.7784
     -1880.2974
 -26541616.34448 -20341386.69747  20523283.5604   20523290.0634
       464.0784
 -21370117.65647 -16425815.93147  21250324.1384   21250330.0794
       751.4064
 -14341438.75947  -4685153.53946  22295873.1464   22295880.9544
      1143.1094
 -26482087.21648 -20452356.17047  21003018.8174   21003025.0994
      -780.9374
 -14275166.67046   3339459.78046  22793623.3804   22793632.3134
     -2571.6254
 01 10  2  0 45 15.0010000  0  8G13G 7G10G 8G28G 2G27G31
 -14066635.18046 -10811172.85646  23057131.0284   23057139.6224
     -3678.1564
  -1335265.92043   -846492.65745  24734163.1144   24734180.6144
      3233.1254
  -1946149.18544   2164286.04645  24483503.5834   24483518.1884
     -1888.2194
 -26548528.87948 -20346773.07647  20521967.8964   20521974.1534
       457.6884
 -21381334.45447 -16434556.26947  21248189.6144   21248195.6494
       744.2814
 -14358544.25947  -4698482.47046  22292617.6854   22292625.8214
      1137.7504
 -26470322.06448 -20443188.51947  21005257.6464   21005263.7634
      -787.6414
 -14236518.44846   3369575.25946  22800978.4974   22800986.9854
     -2581.3594
 01 10  2  0 45 30.0010000  0  8G13G 7G10G 8G28G 2G27G31
 -14011423.08046 -10768150.50946  23067638.2314   23067647.7284
     -3683.5624
  -1383749.49743   -884271.89145  24724937.1774   24724955.8024
      3231.2664
  -1917769.28344   2186400.15545  24488905.1924   24488918.6734
     -1895.8754
 -26555348.60748 -20352087.13547  20520670.0284   20520676.3684
       451.5004
 -21392447.96547 -16443216.11547  21246074.7634   21246080.7984
       737.4224
 -14375572.62247  -4711751.27446  22289377.4744   22289385.3764
      1132.6094
 -26458459.49948 -20433944.95247  21007515.2244   21007521.3884
      -794.1414
 -14197728.03946   3399801.54746  22808359.6534   22808368.3764
     -2590.8124
 01 10  2  0 45 45.0010000  0  8G13G 7G10G 8G28G 2G27G31
 -13956130.92746 -10725065.80446  23078159.5834   23078168.3644
     -3688.7194
  -1432206.25843   -922030.16045  24715715.0134   24715732.9704
      3229.6094
  -1889275.51844   2208602.98445  24494327.0674   24494341.2284
     -1903.2664
 -26562076.23248 -20357329.41147  20519390.0214   20519396.3134
       445.5164
 -21403459.25647 -16451796.31447  21243979.3964   21243985.4784
       730.7814
 -14392524.74647  -4724960.67646  22286151.5754   22286159.5954
      1127.6884
 -26446500.32548 -20424626.10947  21009790.9194   21009797.0714
      -800.4064
 -14158796.56046   3430137.74146  22815768.0604   22815776.4194
     -2600.0314
 01 10  2  0 46  0.0010000  0  8G13G 7G10G 8G28G 2G27G31
 -13900759.78646 -10681919.54446  23088697.2714   23088706.9194
     -3694.2344
  -1480636.85543   -959768.07745  24706498.9274   24706516.2394
      3227.6254
  -1860669.06544   2230893.66645  24499770.1464   24499786.0754
     -1911.0624
 -26568712.72648 -20362500.68947  20518127.2084   20518133.4074
       439.1724
 -21414369.15747 -16460297.50947  21241903.1464   21241909.0284
       723.7504
 -14409401.50547  -4738111.35546  22282939.9744   22282947.9814
      1122.4064
 -26434445.24548 -20415232.53947  21012084.8414   21012091.0634
      -807.0784
 -14119725.17746   3460582.95546  22823203.0134   22823211.7004
     -2609.6094
 01 10  2  0 46 15.0010000  0  8G13G 7G10G 8G28G 2G27G31
 -13845308.03846 -10638710.46346  23099249.2164   23099258.3374
     -3699.4534
  -1529038.86843   -997483.77245  24697288.1694   24697305.7984
      3225.8284
  -1831948.15244   2253273.49845  24505236.0284   24505251.3604
     -1918.5474
 -26575255.67748 -20367599.07347  20516882.1854   20516888.4074
       433.0944
 -21425175.70647 -16468718.17047  21239846.9424   21239852.8254
       716.9844
 -14426200.88347  -4751201.74146  22279743.2634   22279751.2004
      1117.3754
 -26422292.14148 -20405762.57947  21014397.3804   21014403.6264
      -813.4844
 -14080512.24846   3491138.46646  22830664.8804   22830673.0754
     -2618.9224
 01 10  2  0 46 30.0010000  0  8G13G 7G10G 8G28G 2G27G31
 -13789777.65946 -10595440.11546  23109816.1464   23109825.3134
     -3704.6094
  -1577413.61043  -1035178.18245  24688083.2004   24688100.0094
      3224.0944
  -1803114.54844   2275741.16745  24510722.5994   24510733.5714
     -1925.9534
 -26581706.51548 -20372625.68447  20515654.4504   20515660.6494
       427.0004
 -21435880.29247 -16477059.37247  21237809.8724   21237815.9194
       710.2664
 -14442924.36047  -4764232.97746  22276560.8254   22276568.7514
      1112.3914
 -26410042.34048 -20396217.27647  21016728.7084   21016734.8374
      -819.8594
 -14041159.49146   3521802.92746  22838153.3414   22838161.5954
     -2628.1564
 01 10  2  0 46 45.0010000  0  8G13G 7G10G 8G28G 2G27G31
 -13734167.60546 -10552107.69046  23120398.7474   23120407.9274
     -3710.0624
  -1625759.56143  -1072850.16545  24678882.5134   24678901.1494
      3222.0474
  -1774167.39744   2298297.31045  24516231.0674   24516245.8494
     -1933.6564
 -26588063.87648 -20377579.44747  20514444.6694   20514450.9274
       420.6414
 -21446481.81247 -16485320.26647  21235792.3104   21235798.1814
       703.2664
 -14459570.86247  -4777204.23446  22273393.1774   22273401.2084
      1107.1414
 -26397694.65048 -20386595.69747  21019078.2244   21019084.4934
      -826.5164
 -14001665.97746   3552577.07046  22845669.1694   22845677.4584
     -2637.6414
 01 10  2  0 47  0.0010000  0  8G13G 7G10G 8G28G 2G27G31
 -13678478.34846 -10508713.55146  23130995.9424   23131005.8374
     -3715.1094
  -1674076.76343  -1110499.71145  24669688.3494   24669705.4854
      3220.3134
  -1745107.33945   2320941.43645  24521761.4194   24521775.0754
     -1940.9694
 -26594328.16648 -20382460.69847  20513252.7084   20513259.0834
       414.6414
 -21456980.78247 -16493501.24847  21233794.3964   21233800.3254
       696.6414
 -14476140.80247  -4790115.84346  22270239.8334   22270247.6534
      1102.2504
 -26385249.19948 -20376897.94047  21021446.5214   21021452.7554
      -832.8284
 -13962032.33546   3583460.42346  22853210.7944   22853219.7394
     -2646.7814
 01 10  2  0 47 15.0010000  0  8G13G 7G10G 8G28G 2G27G31
 -13622711.27646 -10465258.77446  23141607.6924   23141617.1424
     -3720.5314
  -1722365.92443  -1148127.48645  24660499.2474   24660513.1494
      3218.2034
  -1715935.70545   2343672.49845  24527313.7084   24527328.4544
     -1948.6254
 -26600500.03148 -20387269.92047  20512078.1304   20512084.3884
       408.2344
 -21467378.22247 -16501603.11747  21231815.8964   21231821.9894
       689.6254
 -14492635.15447  -4802968.54346  22267101.0914   22267109.1104
      1096.9694
 -26372706.96148 -20367124.76547  21023833.3724   21023839.4664
      -839.5164
 -13922259.82646   3614451.96746  22860778.6774   22860787.7284
     -2656.2664
 01 10  2  0 47 30.0010000  0  8G13G 7G10G 8G28G 2G27G31
 -13566864.62446 -10421741.97246  23152234.9424   23152243.9704
     -3725.7664
  -1770624.69043  -1185731.50745  24651315.0604   24651334.3994
      3216.2194
  -1686650.90245   2366491.79645  24532884.9894   24532901.7744
     -1956.0944
 -26606577.35348 -20392005.47347  20510921.6384   20510927.7904
       402.0004
 -21477671.98347 -16509624.19747  21229856.9894   21229862.8724
       682.7814
 -14509051.94847  -4815760.81446  22263976.9194   22263984.6924
      1091.8594
 -26360065.76248 -20357274.47747  21026238.7634   21026245.0564
      -846.0474
 -13882346.75746   3645553.03646  22868374.2554   22868382.9194
     -2665.5624
 01 10  2  0 47 45.0010000  0  8G13G 7G10G 8G28G 2G27G31
 -13510940.34546 -10378164.69646  23162877.0604   23162885.9354
     -3730.7344
  -1818854.28343  -1223312.88445  24642137.2164   24642155.6774
      3214.4384
  -1657254.77545   2389397.74845  24538479.0214   24538492.1964
     -1963.3284
 -26612561.61848 -20396668.52047  20509782.8414   20509789.1574
       395.9694
 -21487863.76947 -16517565.81847  21227917.4974   21227923.4974
       676.2034
 -14525392.85147  -4828493.95146  22260867.5524   22260875.1614
      1087.0004
 -26347327.04748 -20347348.20747  21028662.8104   21028669.1614
      -852.3754
 -13842295.00846   3676762.17246  22875996.0054   22876005.1384
     -2674.5944
 01 10  2  0 48  0.0010000  0  8G13G 7G10G 8G28G 2G27G31
 -13454939.73446 -10334527.93646  23173534.4814   23173543.5674
     -3735.9534
  -1867055.52443  -1260872.04145  24632965.1924   24632982.4814
      3212.4064
  -1627748.53845   2412389.53845  24544095.2004   24544108.9034
     -1970.7974
 -26618453.60548 -20401259.66547  20508661.5754   20508667.7984
       389.6884
 -21497954.69447 -16525428.83947  21225997.2004   21226003.3174
       669.3284
 -14541658.87347  -4841168.73346  22257772.0994   22257779.6734
      1081.8754
 -26334491.75148 -20337346.67947  21031105.4274   21031111.6144
      -858.9534
 -13802105.86346   3708078.37546  22883643.7864   22883652.7554
     -2683.8914
 01 10  2  0 48 15.0010000  0  8G13G 7G10G 8G28G 2G27G31
 -13398862.22446 -10290831.24146  23184205.1854   23184215.4314
     -3740.9694
  -1915226.99243  -1298408.11645  24623797.7164   24623815.3804
      3210.5164
  -1598131.51644   2435467.67445  24549730.1064   24549743.4704
     -1978.0624
 -26624252.14848 -20405777.98847  20507558.1304   20507564.2714
       383.5474
 -21507943.78047 -16533212.51047  21224096.6384   21224102.6034
       662.6414
 -14557849.00947  -4853784.38946  22254691.1534   22254698.9854
      1076.9064
 -26321558.74548 -20327269.01247  21033566.4194   21033572.5834
      -865.3754
 -13761778.66946   3739502.14646  22891317.7164   22891326.7204
     -2692.9694
 01 10  2  0 48 30.0010000  0  8G13G 7G10G 8G28G 2G27G31
 -13342709.95746 -10247076.31846  23194890.7084   23194900.3564
     -3745.9694
  -1963370.45943  -1335922.31845  24614636.9034   24614656.1264
      3208.6414
  -1568406.13744   2458630.21945  24555386.6774   24555399.7244
     -1985.2974
 -26629959.33048 -20410225.12147  20506472.1614   20506478.3604
       377.4224
 -21517833.17947 -16540918.50447  21222214.4974   21222220.4854
       655.9844
 -14573965.34647  -4866342.53346  22251624.2004   22251631.9384
      1071.9694
 -26308529.95948 -20317116.71447  21036045.8494   21036052.1654
      -871.7814
 -13721315.74046   3771031.69446  22899017.5284   22899025.9234
     -2702.0474
 01 10  2  0 48 45.0010000  0  8G13G 7G10G 8G28G 2G27G31
 -13286482.50046 -10203262.81946  23205589.7244   23205599.2314
     -3751.1874
  -2011484.90443  -1373413.90445  24605480.8644   24605496.8644
      3206.4534
  -1538571.96744   2481877.55145  24561064.3564   24561079.3134
     -1992.7504
 -26635574.05548 -20414600.21747  20505403.5054   20505409.6814
       371.0634
 -21527622.11748 -16548546.21547  21220351.6144   21220357.5564
       649.0784
 -14590007.20547  -4878842.65046  22248571.5214   22248579.2354
      1066.7974
 -26295404.59548 -20306889.15647  21038543.3644   21038549.6924
      -878.4224
 -13680716.71846   3802667.27046  22906743.2784   22906751.6144
     -2711.3124
 01 10  2  0 49  0.0010000  0  8G13G 7G10G 8G28G 2G27G31
 -13230179.09946 -10159390.11946  23216305.2864   23216313.3534
     -3755.9534
  -2059569.00843  -1410881.86045  24596330.8254   24596349.5094
      3204.7194
  -1508628.27945   2505210.18545  24566763.0214   24566776.9234
     -1999.7664
 -26641095.18748 -20418902.38347  20504353.1614   20504359.1494
       365.0944
 -21537309.53547 -16556094.81847  21218508.2394   21218514.1104
       642.5784
 -14605973.55747  -4891283.92746  22245533.2164   22245540.9074
      1062.0314
 -26282181.44648 -20296585.40947  21041059.8724   21041066.0484
      -884.6724
 -13639980.86646   3834409.48446  22914495.6464   22914504.5094
     -2720.1414
 01 10  2  0 49 15.0010000  0  8G13G 7G10G 8G28G 2G27G31
 -13173803.08746 -10115460.83046  23227031.8174   23227041.2784
     -3761.1094
  -2107625.32843  -1448328.13645  24587185.6694   24587201.1774
      3202.5474
  -1478578.30444   2528625.68545  24572480.8334   24572495.2634
     -2007.1414
 -26646525.55748 -20423133.82347  20503319.7164   20503325.8454
       358.7034
 -21546898.49747 -16563566.70347  21216683.4584   21216689.4234
       635.7034
 -14621867.33647  -4903668.65046  22242508.8724   22242516.5524
      1056.8914
 -26268863.29348 -20286207.62847  21043594.0604   21043600.3294
      -891.3284
 -13599111.39546   3866255.80946  22922272.7244   22922281.4584
     -2729.3444
 01 10  2  0 49 30.0010000  0  8G13G 7G10G 8G28G 2G27G31
 -13117352.28346 -10071473.28546  23237775.2164   23237784.0674
     -3765.7344
  -2155651.45743  -1485751.00345  24578046.7944   24578064.9974
      3200.8594
  -1448420.12944   2552125.40645  24578219.2394   24578236.1654
     -2013.9844
 -26651862.72748 -20427292.65047  20502303.8644   20502309.9354
       352.8594
 -21556386.78147 -16570960.13347  21214877.8254   21214883.7904
       629.3444
 -14637686.39147  -4915995.15946  22239498.2554   22239505.8884
      1052.2664
 -26255447.74548 -20275753.95847  21046146.9504   21046153.1034
      -897.4694
 -13558106.36946   3898207.76746  22930075.6144   22930084.1384
     -2738.0474
 01 10  2  0 49 45.0010000  0  8G13G 7G10G 8G28G 2G27G31
 -13060829.32946 -10027429.48146  23248530.6464   23248540.2004
     -3770.6724
  -2203649.18443  -1523151.54445  24568911.5754   24568931.3494
      3198.8284
  -1418156.18644   2575707.58745  24583978.8804   24583995.2904
     -2021.1874
 -26657108.76948 -20431380.46047  20501305.8724   20501311.8844
       346.6094
 -21565776.59747 -16578276.83847  21213091.1224   21213097.1344
       622.6414
 -14653432.94047  -4928265.16046  22236501.7474   22236509.8134
      1047.2814
 -26241936.90248 -20265226.02647  21048717.9424   21048724.3064
      -903.9844
 -13516968.21546   3930263.45146  22937904.2784   22937912.7204
     -2747.0474
 01 10  2  0 50  0.0010000  0  8G13G 7G10G 8G28G 2G27G31
 -13004233.29146  -9983328.78146  23259301.5914   23259311.0524
     -3775.5624
  -2251616.84643  -1560528.83945  24559783.7714   24559800.2984
      3196.7814
  -1387785.49544   2599373.00045  24589758.0914   24589771.2434
     -2028.3124
 -26662262.22748 -20435396.13047  20500325.1534   20500331.3294
       340.4224
 -21575066.73447 -16585515.87047  21211323.2004   21211329.1884
       615.9694
 -14669105.77347  -4940477.71946  22233519.4274   22233527.2594
      1042.3594
 -26228329.39348 -20254622.77747  21051307.4354   21051313.6104
      -910.4374
 -13475695.99046   3962423.60946  22945758.0994   22945766.6464
     -2756.0004
 01 10  2  0 50 15.0010000  0  8G13G 7G10G 8G28G 2G27G31
 -12947562.40546  -9939169.71145  23270084.9744   23270094.2354
     -3780.6094
  -2299552.20043  -1597880.86945  24550662.8644   24550681.2434
      3194.5474
  -1357306.36445   2623122.88545  24595559.0284   24595572.2284
     -2035.6094
 -26667320.98148 -20439338.00547  20499362.4504   20499368.4854
       334.0164
 -21584255.21348 -16592675.69247  21209574.6464   21209580.6574
       609.0944
 -14684702.89347  -4952631.28946  22230551.3724   22230559.2634
      1037.2034
 -26214623.15248 -20243942.59247  21053915.6534   21053921.8294
      -917.1254
 -13434287.88145   3994689.64346  22953637.2244   22953646.0284
     -2765.1414
 01 10  2  0 50 30.0010000  0  8G13G 7G10G 8G28G 2G27G31
 -12890819.19246  -9894954.30046  23280882.4744   23280892.0284
     -3785.2504
  -2347457.23143  -1635209.28545  24541545.9814   24541563.2004
      3192.7034
  -1326721.54545   2646955.16545  24601378.2784   24601393.2244
     -2042.4534
 -26672287.12548 -20443207.71847  20498417.5134   20498423.6654
       328.0314
 -21593344.18648 -16599757.97247  21207845.0364   21207851.0954
       602.6724
 -14700226.51847  -4964727.58646  22227597.1924   22227605.1064
      1032.5004
 -26200820.21848 -20233187.06347  21056542.3884   21056548.7044
      -923.3754
 -13392746.50845   4027059.53646  22961541.9894   22961551.1464
     -2773.8124
 01 10  2  0 50 45.0010000  0  8G13G 7G10G 8G28G 2G27G31
 -12834003.41446  -9850682.36546  23291695.4744   23291704.9704
     -3790.0784
  -2395331.02643  -1672513.37545  24532436.1224   24532451.5014
      3190.5944
  -1296030.70745   2670870.01245  24607219.6304   24607233.7084
     -2049.5164
 -26677159.90748 -20447004.67547  20497490.2244   20497496.3534
       321.7974
 -21602333.37548 -16606762.49947  21206134.4894   21206140.3254
       596.0164
 -14715676.25947  -4976766.30846  22224657.2244   22224664.9744
      1027.5784
 -26186920.10548 -20222355.80847  21059187.2314   21059193.3964
      -929.8594
 -13351071.64245   4059533.44246  22969472.8644   22969481.6574
     -2782.7034
 01 10  2  0 51  0.0010000  0  8G13G 7G10G 8G28G 2G27G31
 -12777115.38346  -9806354.08145  23302520.0054   23302530.4034
     -3795.0314
  -2443173.34043  -1709792.87645  24523331.1924   24523350.4974
      3188.3284
  -1265234.15845   2694867.24945  24613079.4814   24613092.2474
     -2056.7194
 -26681939.41048 -20450728.95147  20496580.5444   20496586.6384
       315.3914
 -21611222.73647 -16613689.24147  21204442.8104   21204448.8454
       589.2034
 -14731052.07347  -4988747.43046  22221731.3254   22221739.2634
      1022.4844
 -26172922.63448 -20211448.69047  21061850.8644   21061857.0874
      -936.5164
 -13309263.56745   4092111.13946  22977428.8104   22977437.9074
     -2791.7504
 01 10  2  0 51 15.0010000  0  8G13G 7G10G 8G28G 2G27G31
 -12720155.42046  -9761969.80246  23313359.7314   23313370.1064
     -3799.7034
  -2490983.84143  -1747047.65845  24514234.0524   24514250.2634
      3186.3134
  -1234332.10945   2718946.72645  24618960.0134   24618974.7714
     -2063.6254
 -26686625.18548 -20454380.19447  20495688.9744   20495695.1264
       309.2814
 -21620012.38848 -16620538.28447  21202770.1774   21202776.2354
       582.6724
 -14746353.98947  -5000670.97046  22218819.2864   22218827.0134
      1017.6884
 -26158827.64248 -20200465.58547  21064533.2084   21064539.3134
      -942.9064
 -13267322.66146   4124792.33546  22985410.3804   22985417.8024
     -2800.4694
 01 10  2  0 51 30.0010000  0  8G13G 7G10G 8G28G 2G27G31
 -12663124.26246  -9717530.02846  23324212.6144   23324221.7244
     -3804.3444
  -2538762.62043  -1784277.72145  24505141.8024   24505162.9384
      3184.2814
  -1203325.45244   2743107.63345  24624859.7474   24624874.5754
     -2070.5004
 -26691217.73648 -20457958.80047  20494814.9274   20494821.0324
       303.1724
 -21628702.81847 -16627310.01947  21201116.2084   21201122.1614
       576.1564
 -14761582.53247  -5012537.33446  22215921.5284   22215929.2904
      1012.8914
 -26144635.48948 -20189406.76847  21067233.7084   21067240.0954
      -949.2814
 -13225249.60146   4157576.52246  22993416.5214   22993425.5604
     -2809.1724
 01 10  2  0 51 45.0010000  0  8G13G 7G10G 8G28G 2G27G31
 -12606023.16446  -9673035.74245  23335078.1384   23335086.4624
     -3808.7814
  -2586510.48243  -1821483.71445  24496055.0054   24496072.7744
      3182.4224
  -1172215.52144   2767349.12445  24630781.2634   24630794.9194
     -2077.1564
 -26695717.73048 -20461465.27747  20493958.6304   20493964.8644
       297.2034
 -21637295.03347 -16634005.21647  21199481.2474   21199487.2244
       569.8284
 -14776738.72447  -5024347.31846  22213037.0674   22213045.0994
      1008.2814
 -26130347.09748 -20178272.96347  21069952.6694   21069959.0564
      -955.4844
 -13183045.78845   4190462.60446  23001447.4114   23001456.5564
     -2817.6414
 01 10  2  0 52  0.0010000  0  8G13G 7G10G 8G28G 2G27G31
 -12548853.93446  -9628488.36946  23345957.4504   23345966.6774
     -3813.8124
  -2634228.62343  -1858666.50145  24486974.3964   24486988.9894
      3179.9224
  -1141004.20744   2791669.51345  24636719.7004   24636735.4314
     -2084.3914
 -26700126.77248 -20464900.88547  20493119.4894   20493125.6304
       290.6414
 -21645790.59048 -16640625.09947  21197864.8104   21197870.8454
       562.8754
 -14791824.15747  -5036102.16746  22210166.7244   22210174.4854
      1003.0634
 -26115963.88948 -20167065.27347  21072689.9114   21072696.1104
      -962.3124
 -13140713.01945   4223449.15746  23009503.2554   23009512.4114
     -2826.7344
 01 10  2  0 52 15.0010000  0  8G13G 7G10G 8G28G 2G27G31
 -12491611.15846  -9583883.69446  23356850.0364   23356858.7944
     -3818.4534
  -2681910.98343  -1895821.42645  24477900.8724   24477917.6814
      3177.7814
  -1109686.05044   2816073.22845  24642679.9114   24642695.6064
     -2091.2504
 -26704439.02648 -20468261.08047  20492298.9894   20492305.1654
       284.4384
 -21654183.80947 -16647165.24047  21196267.3644   21196273.3064
       556.3134
 -14806833.10247  -5047797.41546  22207310.4974   22207318.3174
       998.2194
 -26101480.03048 -20155779.15247  21075446.1464   21075452.3214
      -968.7814
 -13098245.88645   4256540.42546  23017584.3254   23017593.5634
     -2835.4224
 01 10  2  0 52 30.0010000  0  8G13G 7G10G 8G28G 2G27G31
 -12434303.13946  -9539228.17846  23367755.8174   23367764.2474
     -3822.8754
  -2729565.23743  -1932954.43945  24468831.4114   24468847.5404
      3175.8284
  -1078269.37244   2840553.64645  24648657.8104   24648674.2084
     -2097.8914
 -26708662.09648 -20471551.77147  20491495.3724   20491501.4894
       278.3914
 -21662482.67647 -16653631.85547  21194688.2944   21194694.2004
       549.9534
 -14821773.51547  -5059439.26046  22204467.2394   22204475.0134
       993.5784
 -26086903.33548 -20144420.70047  21078219.8564   21078226.1034
      -975.0474
 -13055652.65745   4289729.93946  23025689.1384   23025697.6034
     -2843.9064
 01 10  2  0 52 45.0010000  0  8G13G 7G10G 8G28G 2G27G31
 -12376926.88646  -9494519.49245  23378674.0214   23378683.9274
     -3827.1874
  -2777187.93043  -1970062.83045  24459769.4114   24459788.9854
      3173.9694
  -1046751.28244   2865113.11345  24654655.5524   24654672.2314
     -2104.4224
 -26712792.58748 -20474770.32947  20490709.4584   20490715.5404
       272.4534
 -21670684.16447 -16660022.59847  21193127.3174   21193133.2244
       543.6884
 -14836642.29347  -5071025.28846  22201638.0284   22201645.9424
       989.0314
 -26072230.50548 -20132987.33247  21081012.2714   21081018.3994
      -981.2194
 -13012930.42345   4323019.98446  23033819.0914   23033827.4154
     -2852.2664
 01 10  2  0 53  0.0010000  0  8G13G 7G10G 8G28G 2G27G31
 -12319484.36446  -9449759.16846  23389605.7714   23389615.7354
     -3831.7194
  -2824780.30544  -2007147.68445  24450713.9584   24450729.9934
      3171.8134
  -1015133.80844   2889750.05845  24660672.0674   24660689.0754
     -2111.1414
 -26716832.15648 -20477918.03047  20489940.7394   20489946.8454
       266.2664
 -21678790.04347 -16666338.84047  21191584.7714   21191590.7004
       537.1884
 -14851441.15347  -5082556.82546  22198821.8254   22198829.5994
       984.2504
 -26057463.10048 -20121480.26847  21083822.3024   21083828.5954
      -987.6564
 -12970081.13445   4356409.01846  23041973.4354   23041982.6494
     -2860.8594
 01 10  2  0 53 15.0010000  0  8G13G 7G10G 8G28G 2G27G31
 -12261974.33446  -9404946.24545  23400549.6464   23400560.2204
     -3836.4064
  -2872340.57343  -2044207.45445  24441661.8724   24441677.1814
      3169.4534
   -983415.56544   2914465.45545  24666707.9114   24666724.1814
     -2118.0474
 -26720779.06948 -20480993.54147  20489189.5604   20489195.5954
       259.8754
 -21686798.65747 -16672579.28947  21190060.9424   21190066.8844
       530.5004
 -14866168.52947  -5094032.67046  22196019.3024   22196026.9354
       979.2814
 -26042599.46048 -20109898.21847  21086650.8564   21086657.1034
      -994.2814
 -12927103.51246   4389898.04746  23050151.6534   23050160.7744
     -2869.5944
 01 10  2  0 53 30.0010000  0  8G13G 7G10G 8G28G 2G27G31
 -12204396.19046  -9360080.22445  23411505.8804   23411515.8564
     -3840.7974
  -2919867.44043  -2081241.26645  24432618.0914   24432636.6104
      3167.3594
   -951595.91444   2939259.90745  24672762.3104   24672778.1104
     -2124.7034
 -26724632.33048 -20483996.06847  20488456.1774   20488462.2824
       253.7504
 -21694709.09147 -16678743.24247  21188555.5604   21188561.5604
       524.0944
 -14880823.54847  -5105452.13146  22193230.3174   22193237.9854
       974.5944
 -26027638.50848 -20098240.34247  21089497.6534   21089503.8064
     -1000.6414
 -12883996.95446   4423487.56246  23058354.7714   23058363.5994
     -2878.0624
 01 10  2  0 53 45.0010000  0  8G13G 7G10G 8G28G 2G27G31
 -12146752.25946  -9315162.98745  23422474.8104   23422484.8454
     -3845.2034
  -2967362.64843  -2118250.35145  24423580.3644   24423598.0054
      3165.1884
   -919677.29744   2964131.48145  24678837.0604   24678850.1884
     -2131.3124
 -26728393.74748 -20486927.03047  20487740.5214   20487746.6854
       247.5944
 -21702523.50947 -16684832.37247  21187068.5444   21187074.6964
       517.6724
 -14895408.30147  -5116816.83146  22190455.1694   22190462.8134
       969.8754
 -26012582.18248 -20086508.14147  21092362.8564   21092368.9854
     -1007.0314
 -12840763.85546   4457175.67346  23066582.2244   23066590.6424
     -2886.5164
 01 10  2  0 54  0.0010000  0  8G13G 7G10G 8G28G 2G27G31
 -12089043.08746  -9270194.86845  23433458.2164   23433467.6304
     -3849.3124
  -3014826.23343  -2155234.82145  24414547.9194   24414565.1854
      3163.3134
   -887660.41345   2989079.62845  24684930.4974   24684945.4894
     -2137.5944
 -26732063.54348 -20489786.60147  20487042.3414   20487048.3644
       241.7034
 -21710242.24747 -16690846.95147  21185599.6924   21185605.7744
       511.5164
 -14909923.21947  -5128127.11946  22187692.8494   22187700.4114
       965.4534
 -25997430.71248 -20074701.80747  21095245.9504   21095252.2314
     -1013.1564
 -12797404.81446   4490961.92146  23074832.5994   23074840.6064
     -2894.6724
 01 10  2  0 54 15.0010000  0  8G13G 7G10G 8G28G 2G27G31
 -12031268.43246  -9225175.71545  23444450.9744   23444461.1264
     -3853.9374
  -3062257.18744  -2192193.85845  24405522.5994   24405538.7634
      3160.8444
   -855544.96144   3014104.56045  24691041.0674   24691055.3684
     -2144.4224
 -26735640.71548 -20492573.99847  20486361.4194   20486367.5834
       235.2814
 -21717864.62047 -16696786.44247  21184149.2164   21184155.0754
       504.8444
 -14924367.52047  -5139382.37546  22184944.2864   22184951.9074
       960.4844
 -25982183.29448 -20062820.71247  21098147.5214   21098153.7314
     -1019.8124
 -12753919.45546   4524846.62446  23083107.2634   23083114.6034
     -2903.3444
 01 10  2  0 54 30.0010000  0  8G13G 7G10G 8G28G 2G27G31
 -11973428.62746  -9180105.84145  23455457.7474   23455468.2044
     -3858.1724
  -3109655.20544  -2229127.20445  24396502.5674   24396518.7314
      3158.7194
   -823331.24644   3039206.09445  24697171.7474   24697187.2084
     -2150.8754
 -26739125.27748 -20495289.22747  20485698.2714   20485704.2594
       229.2034
 -21725390.63747 -16702650.84847  21182716.9034   21182722.8924
       498.5164
 -14938741.21147  -5150582.61446  22182208.8964   22182216.6924
       955.8914
 -25966839.80148 -20050864.74547  21101067.1614   21101073.5244
     -1026.1254
 -12710308.06546   4558829.48945  23091406.6384   23091414.9384
     -2911.6254
 01 10  2  0 54 45.0010000  0  8G13G 7G10G 8G28G 2G27G31
 -11915524.23446  -9134985.59845  23466477.0754   23466487.0634
     -3862.4844
  -3157020.41244  -2266035.03445  24387489.5604   24387507.1064
      3156.5164
   -791019.95044   3064383.62245  24703320.5604   24703332.3764
     -2157.3594
 -26742517.52648 -20497932.52647  20485052.9274   20485059.1034
       223.0164
 -21732820.92747 -16708440.65947  21181303.2864   21181309.1814
       492.1254
 -14953044.84947  -5161728.26846  22179487.1924   22179494.6034
       951.1884
 -25951400.59148 -20038834.20347  21104005.2394   21104011.5094
     -1032.5164
 -12666571.51646   4592909.89346  23099728.8414   23099738.0674
     -2919.9844
 01 10  2  0 55  0.0010000  0  8G13G 7G10G 8G28G 2G27G31
 -11857555.39346  -9089815.15945  23477507.3174   23477518.8414
     -3866.6254
  -3204352.30944  -2302916.88245  24378482.4194   24378498.8884
      3154.4384
   -758611.16644   3089637.18645  24709487.5214   24709501.1884
     -2163.7344
 -26745816.98348 -20500503.52147  20484424.9974   20484431.0674
       216.9844
 -21740155.32247 -16714155.75747  21179907.4354   21179913.3994
       485.8754
 -14967278.26147  -5172819.19746  22176778.6694   22176786.0094
       946.6724
 -25935865.31948 -20026728.80247  21106961.7554   21106967.9314
     -1038.7814
 -12622709.92046   4627087.76646  23108075.4974   23108084.1034
     -2928.1414
 01 10  2  0 55 15.0010000  0  8G13G 7G10G 8G28G 2G27G31
 -11799525.60746  -9044597.25845  23488550.6304   23488559.9034
     -3870.7194
  -3251653.94145  -2339775.17045  24369481.4424   24369499.2354
      3152.3914
   -726108.65043   3114963.73745  24715671.9274   24715690.0134
     -2170.0004
 -26749026.89948 -20503004.74147  20483814.0914   20483820.2434
       210.9694
 -21747397.15247 -16719798.72247  21178529.2944   21178535.3534
       479.6724
 -14981444.82347  -5183858.02946  22174082.6064   22174090.4154
       942.1724
 -25920237.20448 -20014551.05747  21109935.3884   21109941.6814
     -1045.0164
 -12578726.84446   4661360.26246  23116445.5054   23116454.3334
     -2936.2814
 01 10  2  0 55 30.0010000  0  8G13G 7G10G 8G28G 2G27G31
 -11741434.87746  -8999331.80445  23499605.1384   23499614.9384
     -3874.7974
  -3298924.57244  -2376609.27645  24360486.0994   24360501.0324
      3150.2664
   -693512.31143   3140363.40845  24721874.8644   24721891.4154
     -2176.2814
 -26752146.69248 -20505435.73647  20483220.4504   20483226.5564
       204.9064
 -21754546.00047 -16725369.23447  21177169.1144   21177175.0564
       473.4224
 -14995544.16447  -5194844.48446  22171399.6064   22171406.9464
       937.6414
 -25904515.80548 -20002300.62247  21112927.2784   21112933.4314
     -1051.2814
 -12534622.23646   4695727.46946  23124838.5754   23124847.3214
     -2944.4374
 01 10  2  0 55 45.0010000  0  8G13G 7G10G 8G28G 2G27G31
 -11683282.36346  -8954018.24845  23510670.5674   23510681.0244
     -3878.8914
  -3346162.63945  -2413418.04145  24351496.8104   24351513.8174
      3148.0944
   -660821.20544   3165836.87745  24728095.5364   24728111.0094
     -2182.5624
 -26755175.11348 -20507795.53647  20482643.9664   20482650.0484
       198.8444
 -21761600.87447 -16730866.52347  21175826.4424   21175832.4074
       467.1884
 -15009575.13347  -5205777.66146  22168729.6534   22168737.3104
       933.1094
 -25888699.79548 -19989976.46747  21115936.8564   21115942.8804
     -1057.5624
 -12490395.06646   4730190.19546  23133254.9194   23133263.5604
     -2952.5624
 01 10  2  0 56  0.0010000  0  8G13G 7G10G 8G28G 2G27G31
 -11625068.27946  -8908656.72545  23521749.2244   23521759.7284
     -3883.0164
  -3393367.92845  -2450201.21145  24342513.4424   24342532.3494
      3145.8914
   -628035.69043   3191383.97045  24734335.7944   24734352.8254
     -2188.8594
 -26758111.93648 -20510083.96147  20482085.1694   20482091.2984
       192.7034
 -21768561.73247 -16736290.55247  21174501.8104   21174507.8684
       460.8914
 -15023537.72847  -5216657.56746  22166072.6304   22166080.2744
       928.5314
 -25872789.06448 -19977578.50247  21118964.6534   21118970.7944
     -1063.9064
 -12446045.62546   4764748.19145  23141694.0134   23141702.7824
     -2960.7194
 01 10  2  0 56 15.0010000  0  8G13G 7G10G 8G28G 2G27G31
 -11566791.91846  -8863246.65945  23532839.3104   23532849.1924
     -3887.1564
  -3440538.99044  -2486957.80045  24333536.6064   24333554.2004
      3143.6094
   -595154.99544   3217005.15145  24740592.5754   24740605.4814
     -2195.2034
 -26760955.93848 -20512300.05847  20481544.1464   20481550.1694
       186.5004
 -21775427.55247 -16741640.52747  21173195.3564   21173201.2164
       454.5474
 -15037430.90447  -5227483.37246  22163428.7394   22163436.2554
       923.8914
 -25856782.35248 -19965105.74547  21122010.4744   21122016.7434
     -1070.3284
 -12401573.34746   4799401.89946  23150156.4274   23150164.7514
     -2968.9064
 01 10  2  0 56 30.0010000  0  8G13G 7G10G 8G28G 2G27G31
 -11508453.48646  -8817788.22545  23543939.5444   23543949.8724
     -3891.3444
  -3487675.50144  -2523687.37645  24324566.0914   24324581.1774
      3141.2504
   -562179.50943   3242700.30645  24746867.0914   24746882.1304
     -2201.5624
 -26763706.99948 -20514443.73047  20481020.4584   20481026.3994
       180.2504
 -21782198.40248 -16746916.49947  21171906.7554   21171912.6264
       448.1724
 -15051254.66747  -5238255.09246  22160798.1694   22160805.6734
       919.2344
 -25840679.56148 -19952558.12747  21125074.8724   21125081.1654
     -1076.7664
 -12356978.46346   4834151.15246  23158642.6854   23158650.8454
     -2977.1094
 01 10  2  0 56 45.0010000  0  8G13G 7G10G 8G28G 2G27G31
 -11450056.12746  -8772283.87645  23555053.6064   23555064.1224
     -3895.1094
  -3534779.98945  -2560392.00845  24315603.5914   24315620.8454
      3139.2344
   -529112.43243   3268466.76845  24753158.8564   24753174.0714
     -2207.5314
 -26766367.57248 -20516516.89947  20480514.3644   20480520.4814
       174.3754
 -21788877.13647 -16752120.69447  21170635.8884   21170641.8884
       442.1884
 -15065011.90447  -5248974.97346  22158180.0364   22158187.4584
       914.9384
 -25824483.43248 -19939937.77347  21128156.9274   21128163.2674
     -1082.8444
 -12312264.07646   4868993.52246  23167151.7084   23167160.3844
     -2984.9224
 01 10  2  0 57  0.0010000  0  8G13G 7G10G 8G28G 2G27G31
 -11391599.80446  -8726733.57245  23566177.4354   23566187.0014
     -3899.2194
  -3581851.81745  -2597071.26645  24306645.4194   24306662.4854
      3136.8594
   -495953.57543   3294304.73345  24759469.4354   24759483.6184
     -2213.8124
 -26768937.31048 -20518519.28147  20480025.1924   20480031.1814
       168.1094
 -21795463.41347 -16757252.83847  21169382.4584   21169388.3994
       435.8134
 -15078702.33647  -5259642.79646  22155574.6144   22155582.1304
       910.2814
 -25808193.51548 -19927244.33847  21131256.8254   21131262.9894
     -1089.2974
 -12267430.08446   4903929.09046  23175683.7944   23175693.0214
     -2993.0944
 01 10  2  0 57 15.0010000  0  8G13G 7G10G 8G28G 2G27G31
 -11333083.65446  -8681136.64445  23577312.4504   23577321.5714
     -3903.0004
  -3628889.44645  -2633723.76445  24297694.6614   24297713.1814
      3134.7504
   -462702.06144   3320214.94245  24765797.0444   24765812.9034
     -2219.7814
 -26771415.02548 -20520449.95747  20479553.7634   20479559.8334
       162.1414
 -21801956.07147 -16762312.03647  21168146.8964   21168152.9314
       429.7814
 -15092324.78447  -5270257.63646  22152982.8254   22152990.3764
       905.9534
 -25791808.49948 -19914476.80147  21134374.7164   21134380.9504
     -1095.4374
 -12222475.67846   4938958.51745  23184237.9274   23184246.8024
     -3000.9064
 01 10  2  0 57 30.0010000  0  8G13G 7G10G 8G28G 2G27G31
 -11274509.16546  -8635494.28445  23588458.0994   23588468.3564
     -3906.8914
  -3675893.90945  -2670350.51645  24288750.3414   24288766.6464
      3132.5164
   -429359.66143   3346195.93445  24772141.7084   24772154.7314
     -2225.8444
 -26773801.66848 -20522309.66747  20479099.6614   20479105.7314
       156.0784
 -21808356.58747 -16767299.44147  21166928.8884   21166934.8994
       423.6414
 -15105880.64847  -5280820.60146  22150403.0284   22150410.8964
       901.5164
 -25775329.61848 -19901636.12247  21137510.4744   21137516.7554
     -1101.7034
 -12177402.61046   4974080.37945  23192815.0754   23192823.4814
     -3008.8124
 01 10  2  0 57 45.0010000  0  8G13G 7G10G 8G28G 2G27G31
 -11215875.55646  -8589805.84945  23599615.5754   23599624.9314
     -3910.7504
  -3722863.67244  -2706950.18245  24279810.7714   24279826.4314
      3130.2814
   -395925.45043   3372248.50345  24778504.5834   24778519.3534
     -2231.8754
 -26776095.98348 -20524097.43747  20478663.0444   20478669.0914
       150.0004
 -21814663.77147 -16772214.11747  21165728.6614   21165734.6494
       417.5004
 -15119368.70647  -5291330.73646  22147836.4274   22147844.0604
       897.0634
 -25758755.55648 -19888721.27547  21140664.3884   21140670.6344
     -1107.9844
 -12132209.90446   5009295.49246  23201414.8414   23201423.7744
     -3016.7194
 01 10  2  0 58  0.0010000  0  8G13G 7G10G 8G28G 2G27G31
 -11157182.86646  -8544071.39745  23610785.7314   23610796.5404
     -3914.7034
  -3769798.30245  -2743522.47745  24270880.5444   24270898.4314
      3127.8914
   -362399.64744   3398372.43845  24784884.5054   24784901.5134
     -2238.0164
 -26778297.66548 -20525813.01847  20478243.8724   20478250.0134
       143.7664
 -21820877.60047 -16777056.03947  21164546.3174   21164552.2004
       411.2344
 -15132788.91447  -5301787.99046  22145282.5284   22145290.2554
       892.5004
 -25742086.09048 -19875732.08547  21143836.7244   21143842.9234
     -1114.3914
 -12086897.69446   5044603.70645  23210037.2084   23210045.5564
     -3024.7034
 01 10  2  0 58 15.0010000  0  9G13G 7G10G 8G28G26G 2G27G31
 -11098433.40446  -8498292.66245  23621964.7164   23621974.9974
     -3918.6724
  -3816699.41845  -2780068.65945  24261954.8024   24261971.4234
      3125.4844
   -328784.52643   3424565.92845  24791281.0994   24791297.9314
     -2244.1094
 -26780408.53148 -20527457.84447  20477842.3104   20477848.4854
       137.5784
 -21826999.97547 -16781826.70947  21163380.9814   21163386.9704
       404.9694
     -5622.55253                  24912384.9034
      2811.9064
 -15146143.20747  -5312193.88546  22142741.4194   22142748.8994
       887.9694
 -25725323.04748 -19862669.98147  21147026.4584   21147032.8104
     -1120.7974
 -12041468.26546   5080003.26046  23218682.5214   23218690.5994
     -3032.6564
 01 10  2  0 58 30.0010000  0  9G13G 7G10G 8G28G26G 2G27G31
 -11039625.23046  -8452468.19645  23633155.5754   23633166.3134
     -3922.3914
  -3863564.57645  -2816586.76645  24253037.7244   24253054.2864
      3123.2504
   -295078.28443   3450830.42545  24797695.6924   24797711.1424
     -2250.0004
 -26782426.20848 -20529030.04847  20477458.2394   20477464.4274
       131.5164
 -21833028.75747 -16786524.44447  21162233.8724   21162239.8964
       398.9224
    -47767.03643                  24904364.9814
      2807.4064
 -15159429.41347  -5322546.72646  22140212.8964   22140220.6104
       883.5944
 -25708464.10348 -19849533.14747  21150234.5444   21150240.9314
     -1127.0164
 -11995919.74146   5115495.61046  23227350.0214   23227358.3214
     -3040.4224
 01 10  2  0 58 45.0010000  0  9G13G 7G10G 8G28G26G 2G27G31
 -10980759.90746  -8406599.23245  23644357.7394   23644367.7634
     -3926.4064
  -3910394.38945  -2853077.38345  24244124.7714   24244140.3134
      3120.6724
   -261282.14143   3477165.00345  24804127.2474   24804141.3254
     -2256.2194
 -26784351.49848 -20530530.26347  20477091.9974   20477098.0674
       125.1564
 -21838965.11247 -16791150.16447  21161104.2004   21161110.1774
       392.5474
    -89842.27743                  24896358.4034
      2802.5634
 -15172648.55647  -5332847.30846  22137697.5134   22137704.8764
       878.9224
 -25691510.19848 -19836322.31747  21153460.7784   21153467.2124
     -1133.5784
 -11950253.50446   5151079.68745  23236040.1144   23236048.2864
     -3048.4694
 01 10  2  0 59  0.0010000  0  9G13G 7G10G 8G28G26G 2G27G31
 -10921838.47246  -8360686.50245  23655569.8174   23655579.9704
     -3929.8914
  -3957189.61545  -2889541.02645  24235220.8254   24235236.6494
      3118.5634
   -227397.48644   3503568.57045  24810575.0364   24810590.7314
     -2261.8594
 -26786185.34248 -20531959.23047  20476743.1064   20476749.2124
       119.2664
 -21844809.98447 -16795704.59947  21159992.1144   21159998.1264
       386.6564
   -131848.92443                  24888364.7084
      2798.2194
 -15185801.76147  -5343096.51446  22135194.2554   22135201.8174
       874.7344
 -25674462.19648 -19823038.16647  21156704.9744   21156711.2554
     -1139.6254
 -11904470.84246   5186754.49846  23244752.0674   23244760.2394
     -3056.0004
 01 10  2  0 59 15.0010000  0  9G13G 7G10G 8G28G26G 2G27G31
 -10862860.07646  -8314729.40445  23666793.8644   23666804.1224
     -3933.8754
  -4003948.77745  -2925976.59245  24226322.1614   24226337.1184
      3115.9844
   -193423.55744   3530041.70545  24817040.2554   24817055.3884
     -2268.0004
 -26787926.52048 -20533315.98247  20476411.7554   20476417.8254
       112.8914
 -21850562.32447 -16800186.92647  21158897.3334   21158903.3454
       380.3134
   -173785.51243                  24880384.4114
      2793.3444
 -15198887.98447  -5353293.52146  22132704.0214   22132711.6424
       870.0944
 -25657318.94348 -19809679.79047  21159967.2004   21159973.4234
     -1146.1414
 -11858571.00546   5222520.60845  23253486.5604   23253495.1424
     -3063.9844
 01 10  2  0 59 30.0010000  0  9G13G 7G10G 8G28G26G 2G27G31
 -10803823.99046  -8268727.35545  23678027.5134   23678037.5244
     -3937.5784
  -4050670.59045  -2962382.99445  24217431.2554   24217449.5634
      3113.5944
   -159359.61544   3556584.92645  24823522.6854   24823538.9784
     -2273.8444
 -26789573.71548 -20534599.50447  20476098.1464   20476104.2864
       106.7664
 -21856221.22147 -16804596.44247  21157820.5604   21157826.5834
       374.2344
   -215650.67443     -2171.70955  24872418.6534   24872428.2204
      2788.7194
 -15211906.13447  -5363437.49046  22130226.6144   22130234.2714
       865.6884
 -25640079.29548 -19796246.30447  21163247.7634   21163254.1494
     -1152.4374
 -11812553.20546   5258378.64945  23262243.5674   23262252.2784
     -3071.7034
 01 10  2  0 59 45.0010000  0  9G13G 7G10G 8G28G26G 2G27G31
 -10744732.43446  -8222682.07445  23689272.8174   23689282.4314
     -3941.2504
  -4097356.61045  -2998761.51145  24208547.7474   24208563.1854
      3111.2344
   -125207.84744   3583196.60445  24830020.8494   24830039.0874
     -2279.6874
 -26791128.80348 -20535811.25247  20475802.1924   20475808.3684
       100.6254
 -21861788.57247 -16808934.62547  21156761.1304   21156767.1654
       368.1414
   -257445.90443    -34739.43545  24864465.5914   24864477.6654
      2784.0314
 -15224858.12847  -5373529.90346  22127762.0134   22127769.3884
       861.2814
 -25622744.96848 -19782739.03847  21166546.5754   21166553.0324
     -1158.7504
 -11766419.70146   5294326.82445  23271022.6384   23271031.1034
     -3079.3914
 01 10  2  1  0  0.0010000  0  9G13G 7G10G 8G28G26G 2G27G31
 -10685587.46046  -8176595.16745  23700527.5914   23700538.5404
     -3944.7974
  -4144008.29245  -3035113.28645  24199669.0524   24199686.5054
      3108.9384
    -90970.40144   3609875.02345  24836537.4034   24836553.2744
     -2285.3594
 -26792593.20948 -20536952.33447  20475523.4744   20475529.5324
        94.5944
 -21867266.20347 -16813202.89447  21155718.6064   21155724.5714
       362.1724
   -299172.58543    -67253.75145  24856523.7634   24856535.7314
      2779.4694
 -15237745.80147  -5383572.20446  22125309.5054   22125316.9384
       857.0164
 -25605317.60348 -19769159.27747  21169862.7554   21169869.1064
     -1164.9374
 -11720172.61046   5330363.52346  23279822.7784   23279831.7124
     -3086.9224
 01 10  2  1  0 15.0010000  0  9G13G 7G10G 8G28G26G 2G27G31
 -10626388.67146  -8130466.33445  23711792.9274   23711803.4074
     -3948.3124
  -4190624.54345  -3071437.49745  24190798.3414   24190815.0914
      3106.6094
    -56646.92244   3636620.50445  24843069.1384   24843084.9504
     -2291.0474
 -26793966.20348 -20538022.19047  20475262.2314   20475268.2434
        88.5164
 -21872653.44047 -16817400.72747  21154693.6694   21154699.6694
       356.1884
   -340829.88043    -99713.95645  24848597.8024   24848608.7984
      2774.8754
 -15250568.53347  -5393563.89746  22122869.5524   22122876.9504
       852.7344
 -25587796.45248 -19755506.44147  21173196.8804   21173203.3254
     -1171.1564
 -11673811.48146   5366489.07346  23288645.2944   23288653.9814
     -3094.4844
 01 10  2  1  0 30.0010000  0  9G13G 7G10G 8G28G26G 2G27G31
 -10567135.91546  -8084295.42745  23723067.5444   23723077.8494
     -3952.0164
  -4237204.49045  -3107733.36345  24181933.7474   24181948.6344
      3104.0784
    -22237.08644   3663433.35145  24849617.0364   24849631.6884
     -2296.8754
 -26795247.04848 -20539020.24247  20475018.5054   20475024.5524
        82.2974
 -21877949.72247 -16821527.68447  21153685.7864   21153691.6224
       350.0314
   -382416.65143   -132119.27845  24840683.8564   24840693.5174
      2770.0784
 -15263325.72947  -5403504.52846  22120441.8024   22120449.5524
       848.2664
 -25570180.72948 -19741779.90847  21176548.9194   21176555.3764
     -1177.5624
 -11627336.04446   5402703.70045  23297489.1774   23297497.9584
     -3102.1874
 01 10  2  1  0 45.0010000  0  9G13G 7G10G 8G28G26G 2G27G31
 -10507828.69646  -8038082.15345  23734354.4354   23734365.8644
     -3955.6724
  -4283747.18445  -3144000.19345  24173077.4354   24173093.3294
      3101.5474
     12259.32844   3690313.53945  24856180.7394   24856198.0284
     -2302.7034
 -26796434.87548 -20539945.80747  20474792.4424   20474798.4784
        76.0314
 -21883154.57047 -16825583.39647  21152695.2864   21152701.2394
       343.8914
   -423931.96643   -164468.89045  24832783.9584   24832793.7124
      2765.2664
 -15276016.76547  -5413393.60246  22118026.6304   22118034.1924
       843.8134
 -25552469.72248 -19727979.12947  21179919.3254   21179925.6774
     -1183.9694
 -11580745.96246   5439007.66146  23306354.9274   23306363.3684
     -3109.8594
 01 10  2  1  1  0.0010000  0  9G13G 7G10G 8G28G26G 2G27G31
 -10448467.34745  -7991826.61245  23745649.4034   23745660.0834
     -3959.2504
  -4330252.44545  -3180237.86445  24164227.6304   24164242.3644
      3099.0474
     46841.93144   3717260.93145  24862761.6384   24862774.2634
     -2308.4064
 -26797529.67448 -20540798.88847  20474584.1224   20474590.1814
        69.8444
 -21888267.99247 -16829567.85847  21151722.2944   21151728.0954
       337.8284
   -465375.59843   -196762.59645  24824897.8964   24824906.2084
      2760.4844
 -15288641.75247  -5423231.20746  22115624.2004   22115631.4704
       839.4384
 -25534663.46148 -19714104.12147  21183307.6854   21183313.9074
     -1190.2974
 -11534041.74046   5475400.54545  23315242.2314   23315250.9544
     -3117.4534
 01 10  2  1  1 15.0010000  0  9G13G 7G10G 8G28G26G 2G27G31
 -10389052.68146  -7945529.58145  23756956.7784   23756967.7984
     -3962.5474
  -4376720.40745  -3216446.46145  24155385.3564   24155400.9934
      3096.8134
     81509.94344   3744274.93445  24869358.6304   24869371.9934
     -2313.8594
 -26798531.73248 -20541579.70147  20474393.4194   20474399.4314
        63.9064
 -21893290.52747 -16833481.50647  21150766.4424   21150772.4894
       332.0004
   -506747.67543   -229000.65445  24817023.8494   24817031.3414
      2755.9534
 -15301201.10047  -5433017.67746  22113234.2084   22113241.6654
       835.3134
 -25516762.26448 -19700155.14147  21186714.2714   21186720.5404
     -1196.3754
 -11487224.02846   5511881.89246  23324151.8334   23324159.9584
     -3124.7664
 01 10  2  1  1 30.0010000  0  9G13G 7G10G 8G28G26G 2G27G31
 -10329586.40545  -7899192.29845  23768272.2314   23768283.4744
     -3966.1094
  -4423152.19645  -3252626.90545  24146549.2554   24146564.7394
      3094.2344
    116261.52344   3771353.98545  24875971.9744   24875986.3454
     -2319.5474
 -26799442.46348 -20542289.35247  20474220.1464   20474226.1694
        57.6414
 -21898223.72047 -16837325.53947  21149827.5674   21149833.4154
       325.9064
   -548049.33243   -261183.66345  24809165.3564   24809173.9854
      2751.0944
 -15313696.42847  -5442754.24946  22110856.3644   22110863.5524
       830.8914
 -25498767.51148 -19686133.25947  21190138.5914   21190144.9894
     -1202.7664
 -11440294.66346   5548450.19745  23333082.2784   23333090.8134
     -3132.3284
 01 10  2  1  1 45.0010000  0  9G13G 7G10G 8G28G26G 2G27G31
 -10270066.18346  -7852813.02745  23779598.5754   23779609.0914
     -3969.6094
  -4469544.69645  -3288776.68845  24137720.9274   24137734.3844
      3091.7344
    151099.09344   3798500.06245  24882601.5054   24882616.0404
     -2325.1724
 -26800258.66648 -20542925.34547  20474064.8724   20474071.0244
        51.4384
 -21903064.85247 -16841097.82547  21148906.4354   21148912.3534
       319.8594
   -589277.38543   -293309.44045  24801319.8564   24801331.6384
      2746.2814
 -15326125.01247  -5452438.81846  22108491.1854   22108498.3844
       826.5314
 -25480676.35848 -19672036.25847  21193581.2314   21193587.4784
     -1209.1094
 -11393251.16946   5585107.48945  23342034.2784   23342042.3564
     -3139.8444
 01 10  2  1  2  0.0010000  0  9G13G 7G10G 8G28G26G 2G27G31
 -10210492.84745  -7806392.32645  23790935.4584   23790946.0794
     -3973.3754
  -4515898.34045  -3324896.22445  24128899.7554   24128914.3494
      3088.8444
    186021.71944   3825712.39345  24889247.5834   24889265.3174
     -2331.0624
 -26800981.02348 -20543488.20947  20473927.4114   20473933.4234
        44.9694
 -21907814.58847 -16844798.90447  21148002.5914   21148008.5324
       313.5474
   -630432.23743   -325378.17245  24793488.4814   24793498.2474
      2741.1414
 -15338487.50747  -5462071.89346  22106138.7394   22106146.0914
       821.9064
 -25462489.29848 -19657864.52647  21197042.0524   21197048.2284
     -1215.7344
 -11346094.50846   5621852.93946  23351007.8104   23351016.5094
     -3147.6094
 01 10  2  1  2 15.0010000  0  9G13G 7G10G 8G28G26G 2G27G31
 -10150867.89546  -7759931.40745  23802281.9504   23802293.7084
     -3976.3594
  -4562213.86845  -3360986.03345  24120085.9894   24120100.8884
      3086.7814
    221027.81943   3852989.81445  24895908.2714   24895925.3844
     -2336.1564
 -26801610.56648 -20543978.75547  20473807.6774   20473813.7474
        39.2344
 -21912474.22348 -16848429.76847  21147115.9894   21147121.9424
       308.0004
   -671514.60443   -357390.37145  24785670.9584   24785681.5444
      2736.7664
 -15350785.04247  -5471654.34846  22103798.7004   22103805.9234
       818.0314
 -25444207.34448 -19643618.84847  21200520.9894   21200527.2944
     -1221.5944
 -11298826.20246   5658685.39446  23360002.7634   23360011.6614
     -3154.5784
 01 10  2  1  2 30.0010000  0  9G13G 7G10G 8G28G26G 2G27G31
 -10091193.87545  -7713432.26345  23813636.9744   23813646.9504
     -3980.1254
  -4608493.38145  -3397047.77145  24111278.4424   24111294.7594
      3083.8444
    256114.88944   3880330.30645  24902585.4194   24902600.8684
     -2342.0784
 -26802149.43648 -20544398.64447  20473704.9114   20473710.9114
        32.6724
 -21917046.11147 -16851992.25347  21146245.7084   21146251.7314
       301.6254
   -712526.54443   -389347.67445  24777865.2084   24777877.4464
      2731.5314
 -15363020.07547  -5481188.10246  22101470.4504   22101477.5214
       813.3444
 -25425832.75348 -19629300.98747  21204017.4354   21204023.6464
     -1228.2974
 -11251448.91346   5695602.78346  23369018.5604   23369028.0674
     -3162.3444
 01 10  2  1  2 45.0010000  0  9G13G 7G10G 8G28G26G 2G27G31
 -10031466.99846  -7666891.95845  23825003.6304   23825013.3604
     -3983.4844
  -4654732.38145  -3433077.97445  24102480.9114   24102496.4784
      3081.3134
    291286.67343   3907736.81345  24909278.9114   24909292.8964
     -2347.5474
 -26802593.32748 -20544744.52247  20473620.5054   20473626.5404
        26.4844
 -21921526.09047 -16855483.12747  21145393.2944   21145399.2714
       295.6724
   -753463.62643   -421246.67245  24770075.8104   24770088.7864
      2726.6884
 -15375188.41247  -5490669.88446  22099154.6224   22099161.8924
       809.0474
 -25407361.24648 -19614907.60547  21207532.6384   21207538.7674
     -1234.6094
 -11203958.74046   5732608.12346  23378055.9114   23378063.8374
     -3169.7194
 01 10  2  1  3  0.0010000  0  9G13G 7G10G 8G28G26G 2G27G31
  -9971689.27645  -7620311.98745  23836378.1304   23836389.8174
     -3986.8914
  -4700932.29845  -3469077.67845  24093688.2164   24093703.2554
      3078.6564
    326541.00443   3935207.61845  24915987.0444   24916001.3104
     -2353.0474
 -26802943.77248 -20545017.58647  20473553.8414   20473559.8994
        20.2344
 -21925916.03547 -16858903.84647  21144557.7634   21144563.8104
       289.6414
   -794327.15843   -453088.38345  24762300.7864   24762310.0134
      2721.7664
 -15387291.95747  -5500101.18046  22096851.4194   22096858.7944
       804.7194
 -25388794.55948 -19600440.05947  21211065.6694   21211071.9504
     -1240.9694
 -11156357.84346   5769699.75046  23387113.7784   23387122.2084
     -3177.0944
 01 10  2  1  3 15.0010000  0  9G13G 7G10G 8G28G26G 2G27G31
  -9911861.91345  -7573693.37145  23847762.9744   23847774.3564
     -3990.0784
  -4747093.67745  -3505047.34245  24084904.8104   24084920.4584
      3076.2344
    361876.80343   3962741.92245  24922711.0054   24922730.0174
     -2358.3444
 -26803201.59148 -20545218.47347  20473504.8964   20473510.8844
        14.1884
 -21930216.84947 -16862255.10347  21143739.4194   21143745.4314
       283.8444
   -835117.67144   -484873.14945  24754538.6224   24754548.2824
      2717.0164
 -15399331.50247  -5509482.60346  22094560.3024   22094567.4894
       800.5944
 -25370133.40448 -19585898.89647  21214616.7554   21214623.0714
     -1247.1414
 -11108647.37746   5806876.76046  23396192.7394   23396201.2864
     -3184.2504
 01 10  2  1  3 30.0010000  0  9G13G 7G10G 8G28G26G 2G27G31
  -9851986.20345  -7527037.06145  23859157.4424   23859167.5834
     -3993.2814
  -4793217.34945  -3540987.68645  24076126.5914   24076142.3684
      3073.7194
    397292.52243   3990338.49045  24929451.1384   24929466.5634
     -2363.6254
 -26803367.62348 -20545347.83747  20473473.1924   20473479.3924
         8.0634
 -21934429.76247 -16865537.88047  21142937.8174   21142943.8884
       277.9844
   -875835.95544   -516601.65245  24746790.3964   24746798.6964
      2712.1884
 -15411308.25447  -5518815.10046  22092281.2784   22092288.4664
       796.4064
 -25351378.83848 -19571284.95147  21218185.7864   21218192.1964
     -1253.3754
 -11060828.79745   5844138.00845  23405292.0604   23405300.2084
     -3191.4534
 01 10  2  1  3 45.0010000  0  9G13G 7G10G 8G28G26G 2G27G31
  -9792061.81045  -7480342.82845  23870560.2864   23870571.0014
     -3996.6724
  -4839302.28945  -3576897.82045  24067356.9504   24067372.8334
      3070.9224
    432788.64743   4017997.72745  24936205.2864   24936217.6884
     -2369.1874
 -26803441.18948 -20545405.14547  20473459.2244   20473465.3644
         1.7194
 -21938554.09147 -16868751.61947  21142152.8964   21142158.8494
       271.9064
   -916480.97844   -548273.15745  24739055.2554   24739062.3724
      2707.1414
 -15423221.47647  -5528098.09546  22090014.0604   22090021.1884
       792.0004
 -25332530.01548 -19556597.55347  21221772.4504   21221778.8604
     -1259.8284
 -11012901.72245   5881483.77646  23414411.9974   23414420.1924
     -3198.8444
 01 10  2  1  4  0.0010000  0  9G13G 7G10G 8G28G26G 2G27G31
  -9732086.90045  -7433609.25045  23881973.4894   23881982.7744
     -3999.9374
  -4885345.98645  -3612775.83145  24058594.1924   24058608.7514
      3068.2814
    468366.93644   4045721.00245  24942976.3104   24942989.6034
     -2374.5624
 -26803419.76648 -20545388.43947  20473463.1614   20473469.2084
        -4.5164
 -21942587.66547 -16871894.64347  21141385.2864   21141391.2164
       265.9534
   -957050.26443   -579885.50145  24731334.3414   24731344.3764
      2702.1564
 -15435069.13147  -5537330.00346  22087759.5134   22087766.7244
       787.7344
 -25313584.70048 -19541834.96547  21225377.6464   21225383.9854
     -1266.1724
 -10964864.32145   5918915.55245  23423552.4974   23423561.7244
     -3206.0944
 01 10  2  1  4 15.0010000  0  9G13G 7G10G 8G28G26G 2G27G31
  -9672064.60245  -7386838.67545  23893395.2244   23893406.2904
     -4003.0474
  -4931351.05745  -3648623.70045  24049839.9584   24049855.5244
      3065.7194
    504024.13044   4073505.77245  24949761.0214   24949775.6384
     -2379.7344
 -26803306.29548 -20545300.00547  20473484.8724   20473490.9784
       -10.6254
 -21946533.48847 -16874969.28947  21140634.6384   21140640.6854
       260.1254
   -997546.36843   -611440.86545  24723628.4744   24723637.0564
      2697.2974
 -15446854.16847  -5546513.11346  22085516.9504   22085524.3254
       783.5944
 -25294545.69848 -19526999.38247  21229000.6854   21229007.1424
     -1272.3754
 -10916719.91745   5956430.68945  23432714.6924   23432723.6854
     -3213.1724
 01 10  2  1  4 30.0010000  0  9G13G 7G10G 8G28G26G 2G27G31
  -9611994.29945  -7340030.80545  23904825.9814   23904837.5874
     -4006.3754
  -4977316.21245  -3684440.46345  24041093.3804   24041107.7634
      3062.9064
    539760.81744   4101352.43345  24956562.3564   24956579.1304
     -2385.1724
 -26803099.61948 -20545138.94347  20473524.0524   20473530.1464
       -17.0004
 -21950390.62147 -16877974.82847  21139900.3724   21139906.2204
       254.0944
  -1037967.95143   -642938.10945  24715936.4034   24715946.0404
      2692.1564
 -15458575.55947  -5555646.63246  22083286.4194   22083293.6534
       779.2194
 -25275411.90848 -19512089.92747  21232641.6774   21232648.0284
     -1278.8444
 -10868467.73045   5994029.79445  23441896.9424   23441905.5484
     -3220.5004
 01 10  2  1  4 45.0010000  0  9G13G 7G10G 8G28G26G 2G27G31
  -9551875.15246  -7293184.78445  23916267.9354   23916275.2984
     -4009.5784
  -5023239.99645  -3720225.04445  24032354.4664   24032369.0364
      3060.2194
    575577.92843   4129261.81045  24963378.2634   24963394.5564
     -2390.4844
 -26802798.10948 -20544903.98747  20473581.3884   20473587.4704
       -23.2504
 -21954157.91547 -16880910.35947  21139183.4664   21139189.4544
       248.1564
  -1078313.35344   -674376.04345  24708258.7474   24708269.8254
      2687.1564
 -15470232.15147  -5564729.65846  22081068.2864   22081075.5674
       774.9384
 -25256182.05947 -19497105.63447  21236300.8494   21236307.1064
     -1285.2034
 -10820106.86145   6031713.60645  23451100.0214   23451108.9894
     -3227.6724
 01 10  2  1  5  0.0010000  0  9G13G 7G10G 8G28G26G 2G27G31
  -9491706.92145  -7246300.52345  23927715.7864   23927727.2634
     -4012.8914
  -5069121.66645  -3755976.78045  24023622.8964   24023640.1034
      3057.3284
    611475.58243   4157233.92045  24970208.7164   24970224.7044
     -2395.8914
 -26802401.46648 -20544594.90147  20473656.9424   20473662.9894
       -29.6724
 -21957834.92647 -16883775.54747  21138483.9894   21138489.8604
       242.0944
  -1118582.02644   -705754.21245  24700596.8564   24700608.5674
      2681.9534
 -15481823.60347  -5573761.92546  22078862.4814   22078869.5284
       770.5634
 -25236855.63948 -19482046.08847  21239978.7784   21239985.2474
     -1291.6874
 -10771637.15645   6069482.24045  23460323.8964   23460332.9934
     -3234.9844
 01 10  2  1  5 15.0010000  0  9G13G 7G10G 8G28G26G 2G27G31
  -9431488.36645  -7199377.08645  23939176.3644   23939187.4784
     -4016.1564
  -5114959.28044  -3791694.16745  24014899.3804   24014914.7944
      3054.4384
    647455.00943   4185269.71245  24977055.0214   24977071.2554
     -2401.2664
 -26801908.01448 -20544210.37447  20473750.7714   20473756.9234
       -36.0474
 -21961420.29547 -16886569.31947  21137801.5604   21137807.5484
       236.0474
  -1158771.97643   -737071.01345  24692947.4974   24692955.7164
      2676.7814
 -15493348.40047  -5582742.25246  22076669.4424   22076676.5364
       766.1884
 -25217431.01147 -19466910.01047  21243674.9584   21243681.2514
     -1298.1724
 -10723057.46545   6107336.54545  23469567.5364   23469576.3884
     -3242.2194
 01 10  2  1  5 30.0010000  0  9G13G 7G10G 8G28G26G 2G27G31
  -9371221.65445  -7152416.09845  23950643.1464   23950654.7864
     -4019.3124
  -5160754.47445  -3827378.51345  24006185.6384   24006200.7714
      3051.6884
    683513.81243   4213367.39545  24983916.8804   24983932.6224
     -2406.4844
 -26801319.26448 -20543751.59047  20473862.8024   20473868.8024
       -42.3284
 -21964915.98747 -16889293.22047  21137136.5054   21137142.5524
       230.1414
  -1198884.70243   -768327.63845  24685314.4664   24685326.7514
      2671.7034
 -15504808.50847  -5591672.17646  22074488.2944   22074495.4584
       761.9384
 -25197909.91747 -19451698.77047  21247389.6694   21247395.7634
     -1304.5314
 -10674370.00345   6145274.86145  23478832.4584   23478841.6144
     -3249.3284
 01 10  2  1  5 45.0010000  0  9G13G 7G10G 8G28G26G 2G27G31
  -9310907.85345  -7105418.45445  23962121.4504   23962130.9464
     -4022.5164
  -5206507.73545  -3863030.20845  23997478.6304   23997494.4194
      3048.7974
    719650.96043   4241526.12745  24990794.1534   24990810.2594
     -2411.7664
 -26800636.09748 -20543219.23647  20473992.7554   20473998.7674
       -48.7194
 -21968322.78147 -16891947.84447  21136488.0994   21136493.9234
       224.1254
  -1238920.78444   -799524.53045  24677696.2634   24677707.4354
      2666.4844
 -15516204.76447  -5600552.34246  22072319.7164   22072326.8214
       757.5944
 -25178293.10547 -19436412.94347  21251122.6304   21251129.1104
     -1311.0164
 -10625575.88245   6183296.26745  23488117.7314   23488126.3844
     -3256.5164
 01 10  2  1  6  0.0010000  0  9G13G 7G10G 8G28G26G 2G27G31
  -9250546.01645  -7058383.32545  23973607.6384   23973618.2004
     -4025.6724
  -5252217.54045  -3898648.03645  23988779.6534   23988795.1854
      3045.8914
    755867.41344   4269746.67745  24997686.5524   24997702.9974
     -2417.0164
 -26799857.06848 -20542612.18147  20474141.0994   20474147.1224
       -55.0944
 -21971639.50347 -16894532.28147  21135856.6854   21135862.5794
       218.1564
  -1278878.56844   -830660.43045  24670091.9894   24670103.0324
      2661.2664
 -15527535.86847  -5609381.74746  22070163.4894   22070170.4074
       753.2814
 -25158579.15548 -19421051.42547  21254874.4744   21254880.9074
     -1317.4694
 -10576674.18045   6221401.53946  23497423.5754   23497432.5564
     -3263.6414
 01 10  2  1  6 15.0010000  0  9G13G 7G10G 8G28G26G 2G27G31
  -9190137.54545  -7011311.92745  23985104.0134   23985115.5014
     -4028.7034
  -5297884.43545  -3934232.43545  23980090.3334   23980105.6424
      3043.1094
    792161.74744   4298027.82345  25004591.8724   25004609.3374
     -2422.1414
 -26798982.83348 -20541930.94747  20474307.3724   20474313.5134
       -61.3754
 -21974867.30847 -16897047.43647  21135242.6304   21135248.3964
       212.2974
  -1318758.69744   -861735.80045  24662502.7784   24662513.2244
      2656.1414
 -15538802.92647  -5618161.24246  22068019.5134   22068026.6534
       749.0784
 -25138768.99847 -19405614.93547  21258643.8174   21258650.2164
     -1323.8124
 -10527666.31045   6259589.50645  23506749.5134   23506758.9504
     -3270.6564
 01 10  2  1  6 30.0010000  0  9G13G 7G10G 8G28G26G 2G27G31
  -9129685.10445  -6964206.18645  23996607.2004   23996617.8454
     -4031.5784
  -5343510.73645  -3969785.18545  23971407.1224   23971421.2004
      3040.4224
    828531.11344   4326367.53045  25011515.0754   25011531.3684
     -2427.0474
 -26798015.91548 -20541177.48247  20474491.4584   20474497.4704
       -67.5164
 -21978008.55147 -16899495.14047  21134644.8414   21134650.8534
       206.5784
  -1358563.33144   -892752.32445  24654929.1304   24654940.4894
      2651.1724
 -15550008.38247  -5626892.73547  22065887.3494   22065894.4664
       745.0164
 -25118864.99448 -19390105.32547  21262431.8564   21262438.1854
     -1330.0164
 -10478554.99845   6297858.06746  23516094.9424   23516104.0634
     -3277.4844
 01 10  2  1  6 45.0010000  0  9G13G 7G10G 8G28G26G 2G27G31
  -9069186.89345  -6917064.82845  24008120.2084   24008130.7474
     -4034.8444
  -5389093.75145  -4005304.19845  23962732.4274   23962746.4584
      3037.3284
    864977.35843   4354767.10545  25018449.5444   25018465.1574
     -2432.3914
 -26796953.92648 -20540349.93647  20474693.5524   20474699.5524
       -74.0944
 -21981061.11547 -16901873.73647  21134063.8414   21134069.7944
       200.4534
  -1398289.84945   -923707.99045  24647369.4744   24647382.0174
      2645.7344
 -15561150.12047  -5635574.57747  22063767.0444   22063774.2554
       740.5634
 -25098864.86447 -19374520.79947  21266237.4894   21266243.7594
     -1336.6414
 -10429338.43845   6336208.66345  23525459.9814   23525469.8534
     -3284.7194
 01 10  2  1  7  0.0010000  0  9G13G 7G10G 8G28G26G 2G27G31
  -9008643.15545  -6869887.99245  24019640.9894   24019652.2904
     -4037.7504
  -5434633.33045  -4040789.38145  23954067.2784   23954080.4544
      3034.5634
    901500.19543   4383226.37245  25025399.0284   25025416.2714
     -2437.3914
 -26795796.72248 -20539448.20447  20474913.7714   20474919.9234
       -80.2814
 -21984025.15847 -16904183.36547  21133499.7244   21133505.5364
       194.7034
  -1437937.99044   -954602.60545  24639824.1144   24639831.7714
      2640.6254
 -15572228.17747  -5644206.80147  22061658.8884   22061665.9584
       736.4534
 -25078768.49847 -19358861.28847  21270061.5524   21270068.1854
     -1342.9224
 -10380016.82645   6374641.08945  23534846.5524   23534855.4274
     -3291.5474
 01 10  2  1  7 15.0010000  0  9G13G 7G10G 8G28G26G 2G27G31
  -8948052.73945  -6822674.75845  24031171.3884   24031182.1494
     -4040.8914
  -5480127.50245  -4076239.21445  23945408.9584   23945422.9424
      3031.4694
    938100.88444   4411746.32045  25032363.8254   25032380.1654
     -2442.6254
 -26794542.51348 -20538470.87647  20475152.3964   20475158.5484
       -86.7974
 -21986899.20547 -16906422.86147  21132952.8884   21132958.8884
       188.6414
  -1477505.82644   -985434.64245  24632293.9504   24632300.8454
      2635.2344
 -15583241.08147  -5652788.25347  22059563.2784   22059570.3964
       732.0634
 -25058574.25648 -19343125.51647  21273904.6384   21273911.1424
     -1349.5164
 -10330588.98145   6413156.31345  23544252.1384   23544261.4464
     -3298.6874
 01 10  2  1  7 30.0010000  0  9G13G 7G10G 8G28G26G 2G27G31
  -8887415.54445  -6775425.11545  24042710.1854   24042722.4704
     -4043.9534
  -5525575.83745  -4111653.28045  23936761.1384   23936776.0604
      3028.4224
    974779.34644   4440326.86445  25039344.8174   25039357.5714
     -2447.7194
 -26793191.07148 -20537417.78847  20475409.5214   20475415.6494
       -93.2814
 -21989683.05547 -16908592.07447  21132423.0994   21132428.8994
       182.6724
  -1516992.90644  -1016203.73645  24624780.9114   24624790.0794
      2629.8594
 -15594188.62247  -5661318.77347  22057480.0524   22057486.9234
       727.7344
 -25038281.84147 -19327313.23447  21277765.6774   21277772.1924
     -1356.0164
 -10281055.03745   6451754.19245  23553677.5754   23553686.8134
     -3305.7194
 01 10  2  1  7 45.0010000  0  9G13G 7G10G 8G28G26G 2G27G31
  -8826734.32945  -6728141.13445  24054257.3414   24054269.8964
     -4046.9064
  -5570980.37945  -4147033.25845  23928121.3024   23928135.4854
      3025.4694
   1011532.64344   4468965.66745  25046338.3254   25046350.6104
     -2452.7664
 -26791744.63048 -20536290.66647  20475684.7004   20475690.6654
       -99.6564
 -21992379.18747 -16910692.93647  21131909.9274   21131915.9154
       176.7814
  -1556401.24445  -1046911.47245  24617281.2864   24617291.3334
      2624.5634
 -15605073.29947  -5669800.30647  22055408.7394   22055415.7044
       723.5164
 -25017893.61447 -19311426.30847  21281645.9664   21281652.2354
     -1362.4534
 -10231417.84445   6490432.55045  23563123.2864   23563131.9274
     -3312.6094
 01 10  2  1  8  0.0010000  0  9G13G 7G10G 8G28G26G 2G27G31
  -8766008.13645  -6680822.12845  24065813.7944   24065823.3024
     -4049.8284
  -5616339.67145  -4182377.95145  23919488.1534   23919503.7314
      3022.5164
   1048361.74543   4497663.58145  25053346.7944   25053362.7244
     -2457.7194
 -26790201.75148 -20535088.40247  20475978.0994   20475984.0874
      -106.0004
 -21994986.53147 -16912724.61247  21131413.7314   21131419.5794
       170.9384
  -1595729.28245  -1077556.63845  24609797.4814   24609806.9664
      2619.2504
 -15615893.86047  -5678231.88747  22053349.5214   22053356.2244
       719.3134
 -24997408.25547 -19295463.68247  21285543.9114   21285550.2744
     -1368.8594
 -10181676.43245   6529192.11045  23572588.8254   23572598.5094
     -3319.4844
 01 10  2  1  8 15.0010000  0  9G13G 7G10G 8G28G26G 2G27G31
  -8705237.42645  -6633468.42145  24077377.0834   24077387.6104
     -4052.7814
  -5661653.51945  -4217687.26045  23910865.2864   23910880.9114
      3019.4844
   1085266.08444   4526420.16645  25060368.4974   25060385.4234
     -2462.7194
 -26788562.40148 -20533810.97047  20476290.4194   20476296.5134
      -112.4374
 -21997505.21447 -16914687.20547  21130934.7314   21130940.5794
       165.0314
  -1634976.73145  -1108139.01645  24602328.8884   24602340.0484
      2613.8594
 -15626650.45547  -5686613.62447  22051302.5284   22051309.4814
       715.0474
 -24976825.76447 -19279425.37947  21289460.6614   21289467.1654
     -1375.3284
 -10131831.29445   6568032.45645  23582073.7634   23582082.6384
     -3326.3914
 01 10  2  1  8 30.0010000  0  9G13G 7G10G 8G28G26G 2G27G31
  -8644424.19945  -6586081.59545  24088950.2474   24088962.7784
     -4055.6254
  -5706923.29745  -4252962.23445  23902250.7394   23902264.0214
      3016.5314
   1122243.70343   4555233.73445  25067405.0994   25067419.5404
     -2467.6254
 -26786828.17148 -20532459.60147  20476620.2244   20476626.3294
      -118.7664
 -21999936.94047 -16916582.03047  21130471.9194   21130477.9314
       159.2344
  -1674145.04444  -1138659.70545  24594875.5364   24594884.8564
      2608.5944
 -15637344.88647  -5694946.92047  22049267.5444   22049274.6614
       710.8914
 -24956147.78747 -19263312.66947  21293395.5834   21293401.9934
     -1381.7034
 -10081884.44545   6606952.12345  23591578.1304   23591587.0524
     -3333.1724
 01 10  2  1  8 45.0010000  0  9G13G 7G10G 8G28G26G 2G27G31
  -8583565.76345  -6538659.53145  24100530.8804   24100542.7204
     -4058.7344
  -5752145.77745  -4288200.33845  23893645.6614   23893660.0794
      3013.2504
   1159297.17744   4584106.51745  25074456.4974   25074470.8804
     -2472.7504
 -26784996.00948 -20531031.92147  20476968.7004   20476974.6424
      -125.4064
 -22002278.94447 -16918406.95047  21130026.2244   21130032.1064
       153.1414
  -1713230.93744  -1169116.24845  24587437.2634   24587446.4424
      2602.9384
 -15647974.23347  -5703229.50147  22047244.8724   22047252.1184
       706.4534
 -24935371.30247 -19247123.19347  21297349.2164   21297355.3924
     -1388.3914
 -10031833.32345   6645953.00245  23601103.2944   23601113.6224
     -3340.2194
 01 10  2  1  9  0.0010000  0  9G13G 7G10G 8G28G26G 2G27G31
  -8522664.35745  -6491204.00145  24112119.9354   24112131.3294
     -4061.4534
  -5797322.41445  -4323402.72845  23885048.7634   23885063.6734
      3010.3134
   1196424.28944   4613036.67845  25081522.1694   25081537.2314
     -2477.5314
 -26783067.48148 -20529529.15947  20477335.8414   20477341.9704
      -131.7194
 -22004533.03347 -16920163.36247  21129597.0604   21129602.9314
       147.4064
  -1752235.90144  -1199509.61345  24580014.6304   24580024.1494
      2597.7034
 -15658540.41947  -5711462.86247  22045234.2164   22045241.3104
       702.3754
 -24914498.02547 -19230858.29847  21301321.1464   21301327.6964
     -1394.7194
  -9981680.02045   6685033.51745  23610646.9274   23610655.1574
     -3346.8754
 01 10  2  1  9 15.0010000  0  9G13G 7G10G 8G28G26G 2G27G31
  -8461719.78045  -6443714.84345  24123718.0994   24123730.2554
     -4064.4374
  -5842452.46145  -4358568.80045  23876461.2164   23876475.2714
      3007.0784
   1233625.24943   4642024.32145  25088601.1924   25088616.6654
     -2482.5164
 -26781042.14248 -20527950.94847  20477721.2554   20477727.3844
      -138.2974
 -22006698.77847 -16921850.93047  21129185.0054   21129190.9464
       141.4064
  -1791159.01945  -1229839.21045  24572608.2864   24572617.5364
      2592.1094
 -15669042.96847  -5719646.63947  22043235.5214   22043242.6034
       698.0164
 -24893527.42647 -19214517.57547  21305311.7004   21305317.9584
     -1401.3124
  -9931424.38445   6724193.74745  23620210.2164   23620218.3644
     -3353.8124
 01 10  2  1  9 30.0010000  0  9G13G 7G10G 8G28G26G 2G27G31
  -8400728.82845  -6396189.55345  24135324.7554   24135335.5754
     -4067.4534
  -5887532.09345  -4393695.61245  23867881.4584   23867894.8214
      3003.7814
   1270903.10843   4671071.90245  25095695.0914   25095714.8174
     -2487.5944
 -26778916.19048 -20526294.34547  20478125.7784   20478131.8254
      -144.9224
 -22008772.72747 -16923466.97547  21128790.2394   21128796.2044
       135.3594
  -1829996.58645  -1260102.30245  24565217.7004   24565228.1464
      2586.4534
 -15679478.43747  -5727778.14447  22041249.7944   22041256.6774
       693.6094
 -24872455.89647 -19198098.19847  21309321.6694   21309327.9624
     -1407.9844
  -9881063.24445   6763436.21345  23629793.2714   23629801.0444
     -3360.7664
 01 10  2  1  9 45.0010000  0  9G13G 7G10G 8G28G26G 2G27G31
  -8339694.12645  -6348630.08745  24146938.3334   24146949.2004
     -4070.3284
  -5932563.37445  -4428784.72245  23859312.5444   23859326.6574
      3000.5474
   1308255.10943   4700177.21745  25102800.8644   25102818.9504
     -2492.5624
 -26776691.87048 -20524561.08647  20478548.9424   20478555.0834
      -151.4694
 -22010757.34247 -16925013.40747  21128412.7084   21128418.7204
       129.4224
  -1868750.64744  -1290300.10545  24557842.8964   24557854.0214
      2580.9064
 -15689849.26048  -5735859.27447  22039276.3414   22039283.2354
       689.3284
 -24851285.72247 -19181601.95047  21313350.1534   21313356.4584
     -1414.5474
  -9830599.24045   6802758.81645  23639396.8334   23639404.7474
     -3367.5944
 01 10  2  1 10  0.0010000  0  8G13G 7G 8G28G26G 2G27G31
  -8278618.31045  -6301038.66645  24158560.4034   24158573.3684
     -4072.9844
  -5977548.28345  -4463837.75745  23850752.2784   23850764.9624
      2997.5474
 -26774371.37048 -20522752.88647  20478990.6464   20478996.7044
      -157.8124
 -22012655.07947 -16926492.13947  21128051.5994   21128057.5524
       123.7194
  -1907423.08244  -1320434.44545  24550483.4034   24550494.7634
      2575.5164
 -15700157.77248  -5743891.85147  22037314.4194   22037321.2904
       685.2504
 -24830019.19647 -19165030.63547  21317397.0284   21317403.3804
     -1420.8914
  -9780035.17045   6842159.39345  23649018.4034   23649026.5874
     -3374.1564
 01 10  2  1 10 15.0010000  0  9G13G 7G11G 8G28G26G 2G27G31
  -8217500.60245  -6253414.59545  24170191.2784   24170203.7984
     -4075.9844
  -6022485.48845  -4498853.53645  23842200.3414   23842214.7004
      2994.1414
    -21075.36755                  24986790.4814
      1619.4384
 -26771953.54748 -20520868.84847  20479450.5754   20479456.6104
      -164.5164
 -22014464.88647 -16927902.35247  21127707.1534   21127713.0014
       117.6414
  -1946012.40944  -1350504.02745  24543139.6924   24543147.9464
      2569.7504
 -15710402.88948  -5751875.03247  22035364.9114   22035371.6734
       680.8284
 -24808655.05447 -19148383.24447  21321462.5524   21321468.7514
     -1427.6094
  -9729370.16645   6881638.63145  23658659.4354   23658667.3964
     -3381.1094
 01 10  2  1 10 30.0010000  0  9G13G 7G11G 8G28G26G 2G27G31
  -8156341.17245  -6205758.01145  24181829.6614   24181842.4624
     -4078.7034
  -6067374.60045  -4533831.88145  23833658.6064   23833673.1304
      2990.9384
    -45337.37845                  24982173.6774
      1615.3754
 -26769438.05748 -20518908.70947  20479929.2554   20479935.2904
      -171.0004
 -22016186.69347 -16929243.99747  21127379.4974   21127385.3804
       111.8134
  -1984518.39744  -1380508.61345  24535813.3884   24535823.5174
      2564.2344
 -15720584.63848  -5759808.83147  22033427.3254   22033434.0174
       676.6414
 -24787193.20047 -19131659.71447  21325546.1924   21325552.6614
     -1434.0944
  -9678604.62845   6921196.18545  23668320.0524   23668329.7474
     -3387.7664
 01 10  2  1 10 45.0010000  0  9G13G 7G11G 8G28G26G 2G27G31
  -8095141.07845  -6158069.74145  24193476.1854   24193486.9354
     -4081.3124
  -6112216.01145  -4568773.09045  23825125.0214   23825140.0364
      2987.8754
    -69538.57945                  24977567.8644
      1611.4224
 -26766825.57248 -20516872.99347  20480426.4504   20480432.4744
      -177.3594
 -22017821.25147 -16930517.65347  21127068.3644   21127074.2124
       106.1094
  -2022941.28045  -1410448.47445  24528501.8414   24528513.1184
      2558.7814
 -15730703.74548  -5767693.81547  22031501.6924   22031508.4074
       672.5634
 -24765634.18847 -19114860.49047  21329649.2084   21329655.7474
     -1440.4694
  -9627739.54145   6960831.32245  23677998.9034   23678008.0244
     -3394.2814
 01 10  2  1 11  0.0010000  0  9G13G 7G11G 8G28G26G 2G27G31
  -8033899.40845  -6110349.02645  24205130.1464   24205141.6464
     -4084.2344
  -6157008.15145  -4603675.86645  23816601.3884   23816615.6654
      2984.4064
    -93677.33245                  24972974.0214
      1607.0784
 -26764114.57448 -20514760.50947  20480942.4504   20480948.4274
      -184.0944
 -22019367.50347 -16931722.50547  21126774.0674   21126780.1034
       100.0634
  -2061279.54645  -1440322.38245  24521205.4114   24521214.4384
      2552.9844
 -15740759.02648  -5775529.07047  22029588.0914   22029594.8174
       668.1414
 -24743976.71647 -19097984.53747  21333770.4584   21333776.8334
     -1447.1874
  -9576773.93345   7000544.81645  23687697.1694   23687705.6924
     -3401.1414
 01 10  2  1 11 15.0010000  0  9G13G 7G11G 8G28G26G 2G27G31
  -7972616.51945  -6062596.27745  24216790.5054   24216803.9274
     -4086.8754
  -6201750.89745  -4638540.19245  23808086.9744   23808100.0324
      2981.2194
   -117753.59845                  24968392.3414
      1603.0004
 -26761305.18348 -20512571.35747  20481477.0604   20481483.1184
      -190.5624
 -22020825.63647 -16932858.68247  21126496.8254   21126502.8024
        94.2814
  -2099533.00645  -1470130.23045  24513926.2714   24513936.3174
      2547.4224
 -15750750.65748  -5783314.72347  22027687.0604   22027694.0484
       664.0004
 -24722220.78547 -19081031.86247  21337910.1144   21337916.4664
     -1453.6724
  -9525708.24945   7040336.26645  23697414.9114   23697424.0794
     -3407.6874
 01 10  2  1 11 30.0010000  0  9G13G 7G11G 8G28G26G 2G27G31
  -7911290.03645  -6014809.49745  24228462.6614   24228473.5754
     -4090.0004
  -6246441.25045  -4673363.66145  23799582.7554   23799596.8564
      2977.4694
   -141764.19645    -16210.74655  24963822.9274   24963833.7244
      1598.3754
 -26758394.49048 -20510303.26747  20482030.9354   20482036.9114
      -197.5624
 -22022193.05247 -16933924.18147  21126236.2634   21126242.2394
        88.0164
  -2137698.64544  -1499869.62945  24506663.6924   24506673.5284
      2541.3134
 -15760675.97348  -5791048.70347  22025798.1064   22025804.9154
       659.3594
 -24700363.62847 -19064000.31647  21342069.6924   21342075.8454
     -1460.6414
  -9474540.12245   7080207.52945  23707152.1144   23707160.7674
     -3414.7344
 01 10  2  1 11 45.0010000  0  9G13G 7G11G 8G28G26G 2G27G31
  -7849921.71645  -5966990.13345  24240139.4584   24240152.2594
     -4092.4534
  -6291080.25345  -4708147.12845  23791087.8724   23791102.1384
      2974.3914
   -165710.24345    -34869.89445  24959266.5604   24959276.5134
      1594.4064
 -26755383.77448 -20507957.23747  20482603.7004   20482609.8174
      -203.8754
 -22023471.27147 -16934920.16847  21125993.1384   21125999.1034
        82.3914
  -2175777.58144  -1529541.42145  24499417.0444   24499427.3724
      2535.8444
 -15770536.46048  -5798732.16947  22023921.6694   22023928.7284
       655.3594
 -24678406.60147 -19046890.93747  21346248.0524   21346254.3214
     -1466.9844
  -9423271.38745   7120157.20445  23716907.8414   23716917.0794
     -3421.1094
 01 10  2  1 12  0.0010000  0  9G13G 7G11G 8G28G26G 2G27G31
  -7788516.35845  -5919141.96545  24251825.2314   24251837.3994
     -4095.0624
  -6335672.30745  -4742894.01945  23782601.8724   23782615.4814
      2971.0784
   -189595.84845    -53481.93545  24954720.9584   24954732.0954
      1590.1884
 -26752277.55948 -20505536.79447  20483194.7634   20483200.7744
      -210.4224
 -22024664.74147 -16935850.12047  21125766.1064   21125772.0604
        76.5944
  -2213774.01944  -1559148.94645  24492186.7944   24492197.7554
      2530.1724
 -15780336.70348  -5806368.68647  22022056.6774   22022063.6304
       651.1884
 -24656354.25847 -19029707.28847  21350444.2314   21350450.6534
     -1473.4844
  -9371907.00945   7160181.39845  23726682.7944   23726691.4114
     -3427.6094
 01 10  2  1 12 15.0010000  0  9G13G 7G11G 8G28G26G 2G27G31
  -7727069.86045  -5871261.63545  24263518.0754   24263530.6884
     -4097.6564
  -6380212.49245  -4777600.48445  23774126.2714   23774140.1964
      2967.7504
   -213416.07445    -72043.05945  24950187.8414   24950199.3764
      1585.9694
 -26749071.07248 -20503038.21447  20483804.9504   20483810.9854
      -216.9694
 -22025769.02447 -16936710.57347  21125556.0284   21125561.9234
        70.7974
  -2251682.97644  -1588688.40645  24484971.3494   24484984.3844
      2524.5004
 -15790072.14148  -5813954.70547  22020203.9504   22020210.6424
       647.0314
 -24634201.91347 -19012445.72247  21354659.9584   21354666.1464
     -1480.0004
  -9320442.77845   7200283.42145  23736476.6924   23736486.3064
     -3434.1094
 01 10  2  1 12 30.0010000  0  9G13G 7G11G 8G28G26G 2G27G31
  -7665583.98745  -5823350.72145  24275219.0524   24275230.8684
     -4100.3754
  -6424701.93045  -4812267.43845  23765660.1534   23765673.1064
      2964.2504
   -237172.12245    -90554.15145  24945667.6854   24945677.9194
      1581.5784
 -26745765.69048 -20500462.57747  20484433.9424   20484439.9314
      -223.6724
 -22026785.78347 -16937502.83247  21125362.4584   21125368.3534
        64.8594
  -2289505.71644  -1618160.58345  24477775.2314   24477785.3964
      2518.6254
 -15799744.40548  -5821491.49947  22018363.5914   22018370.3534
       642.7034
 -24611951.07547 -18995107.40847  21358893.8804   21358900.0674
     -1486.6874
  -9268880.58245   7240461.74545  23746287.5994   23746296.5444
     -3440.7664
 01 10  2  1 12 45.0010000  0  9G13G 7G11G 8G28G26G 2G27G31
  -7604057.10045  -5775407.72545  24286925.5994   24286935.7044
     -4103.1874
  -6469138.52045  -4846893.17445  23757204.1854   23757218.3684
      2960.6094
   -260861.66744   -109013.41745  24941159.1614   24941169.2204
      1577.0314
 -26742359.33648 -20497808.25647  20485082.1854   20485088.3604
      -230.5004
 -22027713.16447 -16938225.43947  21125186.0284   21125191.9934
        58.8134
  -2327240.01144  -1647563.89545  24470594.5914   24470605.1424
      2512.6564
 -15809351.56648  -5828977.55847  22016535.3414   22016542.2474
       638.2664
 -24589599.66747 -18977690.72147  21363147.3964   21363153.6184
     -1493.5004
  -9217218.72545   7280717.74945  23756119.1924   23756127.4114
     -3447.4844
 01 10  2  1 13  0.0010000  0  9G13G 7G11G 8G28G26G 2G27G31
  -7542491.43045  -5727434.66345  24298642.5054   24298654.3104
     -4105.6564
  -6513523.86745  -4881479.02045  23748758.0834   23748771.4704
      2957.3134
   -284486.43444   -127422.22245  24936662.7394   24936674.1224
      1572.8134
 -26738853.81048 -20495076.66247  20485749.1384   20485755.1964
      -237.0164
 -22028553.20347 -16938879.98647  21125026.2164   21125032.1224
        53.0944
  -2364887.38244  -1676899.43445  24463430.0364   24463441.0094
      2506.9224
 -15818895.69448  -5836414.50647  22014719.1694   22014725.8374
       634.1724
 -24567149.61647 -18960197.17347  21367419.5604   21367425.7714
     -1499.9694
  -9165459.57445   7321049.55645  23765968.4194   23765976.9194
     -3453.8444
 01 10  2  1 13 15.0010000  0  9G13G 7G11G 8G28G26G 2G27G31
  -7480887.23945  -5679431.49645  24310365.0444   24310376.6034
     -4108.3284
  -6557857.55145  -4916024.56045  23740321.4894   23740334.7124
      2953.7504
   -308045.88244   -145780.09345  24932180.4664   24932191.7554
      1568.3284
 -26735248.93048 -20492267.64747  20486435.0994   20486441.0994
      -243.7504
 -22029305.87347 -16939466.46447  21124882.8884   21124888.8414
        47.1724
  -2402447.53844  -1706166.97245  24456282.4744   24456291.9354
      2500.9694
 -15828376.73148  -5843802.28547  22012914.7944   22012921.4974
       629.8594
 -24544600.71447 -18942626.59747  21371710.4894   21371716.6064
     -1506.6564
  -9113603.28845   7361457.07145  23775835.7554   23775843.4704
     -3460.4064
 01 10  2  1 13 30.0010000  0  9G13G 7G11G 8G28G26G 2G27G31
  -7419244.20445  -5631398.04345  24322096.3804   24322108.4664
     -4110.7344
  -6602138.81945  -4950529.29145  23731894.8024   23731907.3924
      2950.4384
   -331539.09943   -164086.37145  24927709.2634   24927721.6534
      1564.0784
 -26731544.09148 -20489380.74447  20487140.1064   20487146.1534
      -250.2504
 -22029970.71747 -16939984.49547  21124756.3254   21124762.2784
        41.4844
  -2439919.65144  -1735365.98145  24449152.1464   24449162.4504
      2495.2814
 -15837794.24148  -5851140.56747  22011122.7864   22011129.7394
       625.7974
 -24521952.43147 -18924978.57647  21376020.2944   21376026.6574
     -1513.1094
  -9061649.84045   7401940.30245  23785722.2864   23785730.0834
     -3466.7194
 01 10  2  1 13 45.0010000  0  9G13G 7G11G 8G28G26G 2G27G31
  -7357563.53545  -5583335.32145  24333833.8024   24333845.7474
     -4113.3594
  -6646368.20845  -4984993.60445  23723478.1464   23723492.4464
      2946.8134
   -354966.53243   -182341.39645  24923251.5994   24923263.8374
      1559.5634
 -26727739.87448 -20486416.40147  20487863.9504   20487870.1264
      -257.0004
 -22030548.62947 -16940434.79647  21124646.3024   21124652.1384
        35.5634
  -2477303.95044  -1764496.52245  24442038.5994   24442047.8844
      2489.3134
 -15847148.97248  -5858429.92647  22009342.6464   22009349.3844
       621.5004
 -24499205.38847 -18907253.60647  21380348.8564   21380355.1734
     -1519.8284
  -9009600.20145   7442498.47245  23795626.8724   23795635.7474
     -3473.2344
 01 10  2  1 14  0.0010000  0  9G13G 7G11G 8G28G26G 2G27G31
  -7295844.36245  -5535242.56045  24345578.4504   24345589.6104
     -4115.9374
  -6690544.17045  -5019416.27345  23715071.8564   23715084.7634
      2943.2344
   -378326.73143   -200544.03345  24918806.3564   24918818.2204
      1555.0634
 -26723835.12948 -20483373.71847  20488607.0754   20488613.1104
      -263.7344
 -22031038.61147 -16940816.57947  21124552.8334   21124558.6574
        29.6884
  -2514599.28444  -1793557.77045  24434941.3804   24434950.2784
      2483.3444
 -15856440.02548  -5865669.66647  22007574.5364   22007581.3104
       617.2194
 -24476358.53147 -18889450.85347  21384696.2244   21384702.7394
     -1526.5004
  -8957453.76045   7483132.08045  23805550.5834   23805558.6964
     -3479.7034
 01 10  2  1 14 15.0010000  0  9G13G 7G11G 8G28G26G 2G27G31
  -7234086.71544  -5487119.80045  24357329.4504   24357341.7124
     -4118.5164
  -6734666.17945  -5053796.90845  23706675.0524   23706687.6064
      2939.5944
   -401619.04443   -218693.73245  24914374.1924   24914382.4584
      1550.5164
 -26719829.28248 -20480252.25847  20489369.3644   20489375.3884
      -270.4844
 -22031440.39947 -16941129.63247  21124476.7714   21124482.7594
        23.7814
  -2551804.87744  -1822549.09945  24427861.3254   24427870.5404
      2477.3444
 -15865667.04748  -5872859.51147  22005818.6534   22005825.5244
       612.9384
 -24453411.39747 -18871569.96447  21389063.1774   21389069.3764
     -1533.2194
  -8905210.51845   7523841.10045  23815491.4814   23815498.9854
     -3486.1564
 01 10  2  1 14 30.0010000  0  9G13G 7G11G 8G28G26G 2G27G31
  -7172288.63845  -5438965.64245  24369090.8254   24369104.8684
     -4121.1874
  -6778731.70945  -5088133.53745  23698289.6854   23698301.7004
      2935.8444
   -424840.94643   -236788.62445  24909955.0914   24909966.0524
      1545.7974
 -26715720.04348 -20477050.23047  20490151.1924   20490157.2984
      -277.3754
 -22031751.81047 -16941372.26647  21124417.2244   21124423.0714
        17.7664
  -2588918.21444  -1851468.48045  24420798.6464   24420808.8104
      2471.1564
 -15874827.89348  -5879997.79647  22004075.2784   22004082.1104
       608.5314
 -24430361.70347 -18853609.15147  21393449.3804   21393455.6964
     -1540.0474
  -8852868.48245   7564627.12145  23825452.4584   23825461.6614
     -3492.7194
 01 10  2  1 14 45.0010000  0  9G13G 7G11G 8G28G26G 2G27G31
  -7110452.60945  -5390781.77845  24380856.8254   24380866.6144
     -4123.6254
  -6822742.46745  -5122427.48645  23689914.4034   23689927.1344
      2932.2504
   -447994.17243   -254829.96945  24905548.5754   24905556.9704
      1541.2664
 -26711509.31148 -20473769.12147  20490952.5054   20490958.5174
      -284.0624
 -22031974.96947 -16941546.13247  21124374.5134   21124380.4894
        11.9694
  -2625940.97744  -1880317.36845  24413752.7474   24413760.6264
      2465.1724
 -15883924.64048  -5887086.12647  22002344.3724   22002351.0874
       604.3284
 -24407211.44047 -18835569.97347  21397854.5834   21397861.0404
     -1546.6874
  -8800430.07645   7605488.23345  23835431.2944   23835439.0214
     -3499.0784
 01 10  2  1 15  0.0010000  0  9G13G 7G11G 8G28G26G 2G27G31
  -7048580.27745  -5342569.72545  24392631.7084   24392645.3884
     -4126.0164
  -6866699.75345  -5156679.76645  23681549.4744   23681562.1694
      2928.6884
   -471079.74942   -272818.58145  24901154.8104   24901164.7514
      1536.7664
 -26707198.52548 -20470410.04447  20491772.8104   20491778.8214
      -290.7194
 -22032111.46647 -16941652.47247  21124348.6614   21124354.4974
         6.2194
  -2662874.35245  -1909096.52445  24406725.8254   24406735.9784
      2459.2344
 -15892958.86548  -5894125.74147  22000625.1614   22000632.0324
       600.2034
 -24383962.06247 -18817453.57247  21402278.7554   21402285.0834
     -1553.2664
  -8747897.17045   7646422.99045  23845427.4584   23845437.4934
     -3505.3444
 01 10  2  1 15 15.0010000  0  9G13G 7G11G 8G28G26G 2G27G31
  -6986673.42245  -5294330.74245  24404412.4034   24404423.8334
     -4128.4374
  -6910604.62745  -5190891.22645  23673194.4504   23673206.9354
      2925.0314
   -494098.62943   -290755.22445  24896775.9274   24896788.4704
      1532.1884
 -26702788.77248 -20466973.85347  20492612.1144   20492618.0674
      -297.4694
 -22032162.69947 -16941692.36647  21124338.8494   21124344.7904
         0.4064
  -2699719.32845  -1937806.83445  24399714.0054   24399721.7084
      2453.2034
 -15901931.96948  -5901117.72647  21998917.5134   21998924.4314
       595.9844
 -24360614.79447 -18799260.88647  21406721.6854   21406728.0714
     -1559.9224
  -8695271.42345   7687430.07445  23855441.7944   23855450.9504
     -3511.6564
 01 10  2  1 15 30.0010000  0  9G13G 7G11G 8G28G26G 2G27G31
  -6924728.93443  -5246062.41345  24416199.0604   24416212.8454
     -4130.9064
  -6954453.44245  -5225058.98745  23664850.0054   23664862.9354
      2921.3444
   -517047.30442   -308637.17145  24892407.7164   24892418.2204
      1527.5164
 -26698276.72648 -20463457.94747  20493470.5134   20493476.6424
      -304.2504
 -22032125.66647 -16941663.48447  21124346.1774   21124352.1304
        -5.4534
  -2736472.50044  -1966445.61145  24392719.4814   24392729.5174
      2447.0944
 -15910840.73048  -5908059.57347  21997222.0754   21997228.7434
       591.7344
 -24337166.38747 -18780989.39147  21411184.0364   21411190.4934
     -1566.6414
  -8642550.01045   7728511.69145  23865474.5994   23865483.2394
     -3517.9844
 01 10  2  1 15 45.0010000  0  9G13G 7G11G 8G28G26G 2G27G31
  -6862746.24145  -5197764.32845  24427995.4424   24428007.2004
     -4133.3124
  -6998244.86245  -5259182.02245  23656516.7864   23656529.8924
      2917.6254
   -539924.37142   -326463.31245  24888055.1854   24888062.6184
      1522.8594
 -26693661.26548 -20459861.46147  20494348.9584   20494355.0634
      -311.0474
 -22031999.16047 -16941564.89147  21124370.2084   21124376.1144
       -11.2974
  -2773132.34644  -1995011.64245  24385743.1854   24385750.8884
      2440.9844
 -15919684.13948  -5914950.49747  21995539.3174   21995546.0094
       587.5004
 -24313615.65747 -18762638.16247  21415665.3414   21415671.7164
     -1573.3284
  -8589732.13145   7769668.53345  23875525.1064   23875532.1654
     -3524.2814
 01 10  2  1 16  0.0010000  0  9G13G 7G11G 8G28G26G 2G27G31
  -6800728.83545  -5149439.20245  24439796.1224   24439807.4584
     -4135.6724
  -7041981.89345  -5293262.65345  23648193.5604   23648205.5404
      2913.9534
   -562732.70242   -344235.86645  24883714.2474   24883722.0214
      1518.2344
 -26688945.36348 -20456186.70647  20495246.3414   20495252.3414
      -317.7664
 -22031786.59347 -16941399.23247  21124410.3174   21124416.3294
       -17.0624
  -2809701.82945  -2023507.28545  24378785.6694   24378795.6694
      2434.9384
 -15928465.56948  -5921793.13247  21993868.2394   21993875.0014
       583.3444
 -24289965.86447 -18744209.73947  21420165.7474   21420172.0874
     -1579.9844
  -8536821.36745   7810897.66145  23885594.0674   23885601.1964
     -3530.4844
 01 10  2  1 16 15.0010000  0  9G13G 7G11G 8G28G26G 2G27G31
  -6738676.82445  -5101087.05945  24451605.3644   24451619.0674
     -4138.0474
  -7085664.00245  -5327300.54045  23639881.1614   23639893.8924
      2910.1884
   -585471.85842   -361954.53945  24879386.3334   24879396.3454
      1513.5004
 -26684128.74448 -20452433.46747  20496162.8024   20496168.7204
      -324.5624
 -22031487.99747 -16941166.53447  21124467.1614   21124473.0914
       -22.8754
  -2846180.34445  -2051932.00245  24371843.2784   24371853.9934
      2428.7504
 -15937184.83448  -5928587.31847  21992208.9814   21992215.7784
       579.1094
 -24266216.76147 -18725703.93147  21424684.9974   21424691.0914
     -1586.6874
  -8483817.91345   7852199.07845  23895680.2784   23895687.7594
     -3536.7504
 01 10  2  1 16 30.0010000  0  9G13G 7G11G 8G28G26G 2G27G31
  -6676589.18445  -5052707.20445  24463419.6614   24463430.9624
     -4140.3914
  -7129289.58345  -5361294.33845  23631579.8964   23631592.2044
      2906.4384
   -608140.05042   -379617.89345  24875072.8334   24875086.3964
      1508.8284
 -26679210.05748 -20448600.70047  20497098.8104   20497104.8564
      -331.3594
 -22031101.85847 -16940865.62547  21124540.6854   21124546.6854
       -28.6874
  -2882566.30345  -2080284.64245  24364919.1304   24364929.2244
      2422.5944
 -15945840.53248  -5935331.97647  21990561.8254   21990568.5524
       574.8914
 -24242366.84647 -18707119.56347  21429223.5444   21429229.9784
     -1593.3914
  -8430720.80145   7893573.49645  23905783.9974   23905792.3804
     -3542.9534
 01 10  2  1 16 45.0010000  0  9G13G 7G11G 8G28G26G 2G27G31
  -6614465.79145  -5004299.56645  24475240.9274   24475253.5404
     -4142.8914
  -7172857.85245  -5395243.49845  23623288.4894   23623301.5834
      2902.5004
   -630736.37442   -397225.30045  24870773.6304   24870785.0364
      1503.9384
 -26674188.55248 -20444687.81247  20498054.2554   20498060.2784
      -338.3284
 -22030627.92647 -16940496.30647  21124630.7784   21124636.6494
       -34.6564
  -2918858.85245  -2108564.46845  24358012.7634   24358021.4274
      2416.2344
 -15954432.35948  -5942026.86347  21988926.8254   21988933.5054
       570.5314
 -24218415.59647 -18688456.25047  21433781.2864   21433787.5444
     -1600.2664
  -8377530.02445   7935020.87945  23915905.8724   23915915.5324
     -3549.3124
 01 10  2  1 17  0.0010000  0  9G13G 7G11G 8G28G26G 2G27G31
  -6552305.84145  -4955863.30445  24487070.5754   24487079.9664
     -4145.0314
  -7216367.48145  -5429146.96745  23615009.1854   23615021.9504
      2898.8594
   -653259.49742   -414775.67445  24866486.8884   24866498.1064
      1499.2814
 -26669063.05248 -20440693.89047  20499029.6304   20499035.6534
      -344.9844
 -22030065.16447 -16940057.76047  21124738.0134   21124744.0134
       -40.2974
  -2955056.64945  -2136770.46445  24351124.1924   24351132.7284
      2410.2034
 -15962959.31048  -5948671.19847  21987304.2164   21987311.0364
       566.4844
 -24194361.89047 -18669713.08947  21438358.3964   21438364.6064
     -1606.8124
  -8324244.77445   7976541.89145  23926046.1144   23926055.3534
     -3555.3124
 01 10  2  1 17 15.0010000  0  9G13G 7G11G 8G28G26G 2G27G31
  -6490111.75844  -4907400.47145  24498904.5054   24498917.6224
     -4147.3444
  -7259820.30945  -5463006.16745  23606740.4114   23606752.7204
      2895.0314
   -675711.24642   -432270.37645  24862213.7944   24862218.8334
      1494.4534
 -26663835.63048 -20436620.54847  20500024.4974   20500030.5794
      -351.8284
 -22029415.91747 -16939551.83447  21124861.5604   21124867.5364
       -46.1094
  -2991161.52745  -2164904.07745  24344254.5134   24344264.0794
      2403.9534
 -15971423.61748  -5955266.72147  21985693.5524   21985700.2554
       562.2664
 -24170207.84847 -18650891.74547  21442955.0994   21442961.3804
     -1613.5474
  -8270867.63445   8018134.50045  23936202.7394   23936213.6534
     -3561.4694
 01 10  2  1 17 30.0010000  0  9G13G 7G11G 8G28G26G 2G27G31
  -6427884.41745  -4858911.81245  24510747.3104   24510758.0714
     -4149.6094
  -7303216.48545  -5496821.21345  23598482.2554   23598494.5754
      2891.1724
   -698091.76942   -449709.63745  24857954.7164   24857961.8334
      1489.6414
 -26658506.60448 -20432468.03547  20501038.3494   20501044.2904
      -358.6724
 -22028680.65347 -16938978.88347  21125001.4744   21125007.4744
       -51.8914
  -3027173.57245  -2192965.30545  24337400.6614   24337410.0874
      2397.7034
 -15979825.76448  -5961813.80947  21984094.7554   21984101.5054
       558.0634
 -24145953.82247 -18631992.49347  21447570.2554   21447576.8174
     -1620.2814
  -8217399.34945   8059798.06145  23946377.8334   23946386.5214
     -3567.5784
 01 10  2  1 17 45.0010000  0  9G13G 7G11G 8G28G26G 2G27G31
  -6365624.17144  -4810397.41145  24522594.2944   24522606.4504
     -4151.8124
  -7346555.91845  -5530592.08245  23590234.5994   23590246.7784
      2887.3754
   -720400.82543   -467093.24645  24853710.0524   24853718.5754
      1484.8444
 -26653076.01848 -20428236.38447  20502071.9034   20502077.9274
      -365.4534
 -22027859.72847 -16938339.17847  21125157.6144   21125163.5324
       -57.6094
  -3063092.72445  -2220954.17345  24330565.7864   24330574.8724
      2391.4694
 -15988166.00048  -5968312.65047  21982507.2714   21982513.9504
       553.9224
 -24121599.94647 -18613015.44047  21452204.5134   21452210.9464
     -1626.9534
  -8163840.46345   8101532.28445  23956569.6854   23956578.6534
     -3573.6254
 01 10  2  1 18  0.0010000  0  9G13G 7G11G 8G28G26G 2G27G31
  -6303328.15645  -4761855.17145  24534449.4034   24534462.3804
     -4154.3124
  -7389835.10345  -5564315.95945  23581999.3254   23582011.4234
      2883.2034
   -742634.87843   -484418.25245  24849479.7554   24849486.8024
      1479.6884
 -26647540.63848 -20423923.07147  20503125.2244   20503131.3644
      -372.5944
 -22026949.91247 -16937630.20047  21125330.8174   21125336.7354
       -63.6874
  -3098915.52845  -2248868.01645  24323748.7164   24323756.9934
      2384.8914
 -15996441.21748  -5974760.82647  21980932.7004   21980939.5214
       549.4534
 -24097143.00547 -18593958.07147  21456858.5834   21456864.8644
     -1633.9694
  -8110188.16945   8143339.28345  23966779.5284   23966787.1964
     -3580.0004
 01 10  2  1 18 15.0010000  0  9G13G 7G11G 8G28G26G 2G27G31
  -6240999.67745  -4713287.65345  24546310.2084   24546321.4274
     -4156.2814
  -7433056.62845  -5597994.93445  23573774.3644   23573786.8254
      2879.5314
   -764796.46943   -501686.88045  24845262.1854   24845273.1694
      1475.0474
 -26641903.00048 -20419530.08447  20504197.8254   20504203.7904
      -379.2194
 -22025954.06447 -16936854.19347  21125520.1774   21125526.0834
       -69.2344
  -3134644.33745  -2276708.55245  24316949.3564   24316959.8494
      2378.8134
 -16004654.27148  -5981160.57047  21979369.6144   21979376.3174
       545.4844
 -24072585.75347 -18574822.53747  21461531.4894   21461537.7944
     -1640.4694
  -8056445.49345   8185216.73145  23977006.1614   23977014.4744
     -3585.8124
 01 10  2  1 18 30.0010000  0  9G13G 7G11G 8G28G26G 2G27G31
  -6178638.89643  -4664694.94145  24558175.6924   24558190.6614
     -4158.4694
  -7476220.34245  -5631628.85745  23565559.5674   23565571.4074
      2875.6414
   -786885.28743   -518898.87145  24841058.4114   24841071.1184
      1470.1414
 -26636163.12448 -20415057.43247  20505290.3334   20505296.3684
      -386.0784
 -22024872.40847 -16936011.31947  21125726.1464   21125732.0754
       -74.9844
  -3170279.00945  -2304475.73845  24310168.8884   24310179.1574
      2372.5004
 -16012805.27948  -5987511.96847  21977818.3334   21977824.8494
       541.3134
 -24047928.23247 -18555608.88547  21466224.0524   21466230.3454
     -1647.1874
  -8002612.91445   8227164.20345  23987250.5054   23987259.4744
     -3591.8444
 01 10  2  1 18 45.0010000  0  9G13G 7G11G 8G28G26G 2G27G31
  -6116246.57945  -4616077.72745  24570050.6064   24570064.8724
     -4160.5624
  -7519326.08545  -5665217.57945  23557357.0134   23557369.8964
      2871.7664
   -808901.25444   -536054.03145  24836869.1064   24836880.4544
      1465.2814
 -26630321.28548 -20410505.32547  20506401.8724   20506408.0014
      -392.8914
 -22023705.36347 -16935101.90347  21125948.1464   21125954.1224
       -80.6724
  -3205819.52945  -2332169.55745  24303404.8104   24303416.3214
      2366.2034
 -16020894.55248  -5993815.25647  21976279.2314   21976285.9814
       537.2034
 -24023170.72047 -18536317.31147  21470935.0524   21470941.4974
     -1653.8594
  -7948691.11045   8269181.21845  23997511.4274   23997518.4854
     -3597.7814
 01 10  2  1 19  0.0010000  0  9G13G 7G11G 8G28G26G 2G27G31
  -6053821.19244  -4567434.69745  24581927.9974   24581941.3494
     -4162.8914
  -7562371.93445  -5698759.66945  23549165.4274   23549177.1854
      2867.5944
   -830842.23744   -553150.79145  24832693.6924   24832705.5324
      1460.1254
 -26624375.50548 -20405872.23047  20507533.2864   20507539.3454
      -399.9534
 -22022451.24147 -16934124.64147  21126186.7394   21126192.6574
       -86.6094
  -3241263.76545  -2359788.34945  24296660.5214   24296668.9854
      2359.6414
 -16028920.39748  -6000069.12147  21974751.9504   21974758.5954
       532.8444
 -23998311.34747 -18516946.36447  21475665.4974   21475672.0834
     -1660.7814
  -7894678.73345   8311268.80545  24007789.5994   24007796.9624
     -3603.9534
 01 10  2  1 19 15.0010000  0  9G13G 7G11G 8G28G26G 2G27G31
  -5991362.42345  -4518765.66345  24593815.8964   24593829.8684
     -4164.9224
  -7605356.98645  -5732254.35246  23540985.6694   23540998.2244
      2863.7194
   -852707.28744   -570188.39145  24828532.6224   24828543.2674
      1455.2194
 -26618325.11148 -20401157.61847  20508684.6854   20508690.6854
      -406.7664
 -22021109.47847 -16933079.08647  21126441.7474   21126447.6424
       -92.2814
  -3276610.77445  -2387331.40945  24289934.0284   24289941.3924
      2353.2974
 -16036882.28948  -6006273.15147  21973236.8174   21973243.3214
       528.7504
 -23973349.45047 -18497495.53247  21480415.6304   21480422.1814
     -1667.4534
  -7840575.36545   8353427.28645  24018085.5994   24018094.7554
     -3609.8284
 01 10  2  1 19 30.0010000  0  9G13G 7G11G 8G28G26G 2G27G31
  -5928871.29745  -4470071.33445  24605706.5914   24605719.3334
     -4166.8754
  -7648281.46045  -5765701.85446  23532817.5994   23532829.4744
      2859.9064
   -874496.68945   -587167.04345  24824385.3564   24824396.8804
      1450.3754
 -26612170.53048 -20396361.81947  20509855.6144   20509861.6734
      -413.5004
 -22019680.84147 -16931965.82947  21126713.8564   21126719.6344
       -97.8594
  -3311860.92445  -2414798.98345  24283226.0054   24283234.4464
      2347.0314
 -16044780.90248  -6012427.87447  21971733.7554   21971740.3294
       524.7504
 -23948285.64947 -18477965.29346  21485185.0284   21485191.3454
     -1674.0314
  -7786382.04045   8395655.88645  24028398.4114   24028407.4154
     -3615.6094
 01 10  2  1 19 45.0010000  0  9G13G 7G11G 8G28G26G 2G27G31
  -5866351.48845  -4421354.80145  24617603.8104   24617618.1574
     -4169.0004
  -7691148.71845  -5799104.76946  23524659.9504   23524670.9704
      2855.8444
   -896213.67045   -604089.25045  24820252.7714   24820263.2984
      1445.3134
 -26605915.14248 -20391487.47147  20511046.1464   20511052.0874
      -420.4694
 -22018168.96547 -16930787.72147  21127001.4424   21127007.3024
      -103.6414
  -3347017.35345  -2442193.52045  24276535.9424   24276544.6304
      2340.5634
 -16052619.74948  -6018536.02747  21970241.9974   21970248.4894
       520.5314
 -23923123.34947 -18458358.30146  21489973.6064   21489979.8174
     -1680.8444
  -7732102.58345   8437951.57345  24038727.3494   24038736.1884
     -3621.5624
 01 10  2  1 20  0.0010000  0  9G13G 7G11G 8G28G26G 2G27G31
  -5803801.13245  -4372614.38245  24629507.8724   24629517.6854
     -4171.0314
  -7733956.17446  -5832461.08946  23516514.1304   23516526.4744
      2851.8134
   -917855.71645   -620953.12145  24816135.0604   24816144.3924
      1440.3134
 -26599556.61648 -20386532.75747  20512256.0524   20512262.0054
      -427.3284
 -22016571.69247 -16929543.06847  21127305.4664   21127311.4194
      -109.3284
  -3382077.53245  -2469513.05245  24269863.9814   24269873.4314
      2334.1414
 -16060396.70548  -6024595.95747  21968762.0364   21968768.6464
       516.4064
 -23897860.26947 -18438672.78346  21494780.5754   21494787.0444
     -1687.5624
  -7677735.18245   8480315.78345  24049072.3724   24049079.5244
     -3627.4224
 01 10  2  1 20 15.0010000  0  9G13G 7G11G 8G28G26G 2G27G31
  -5741219.34745  -4323849.37945  24641415.9354   24641428.2084
     -4173.0474
  -7776702.19245  -5865769.53745  23508379.7164   23508391.8724
      2847.7974
   -939421.21845   -637757.28545  24812031.0214   24812038.8294
      1435.2664
 -26593093.58148 -20381496.60947  20513485.9034   20513491.9274
      -434.2504
 -22014887.66847 -16928230.80947  21127625.9584   21127631.8534
      -115.0474
  -3417039.91645  -2496756.37945  24263211.8644   24263221.5484
      2327.6724
 -16068110.57748  -6030606.72447  21967294.2314   21967300.7944
       512.2664
 -23872495.10547 -18418907.71746  21499607.6144   21499613.9894
     -1694.2974
  -7623278.89745   8522749.29845  24059435.1064   24059442.0134
     -3633.2504
 01 10  2  1 20 30.0010000  0  9G13G 7G11G 8G28G26G 2G27G31
  -5678606.12045  -4275060.09845  24653331.4194   24653346.4114
     -4175.1874
  -7819386.37446  -5899029.78146  23500257.1464   23500268.7394
      2843.6094
   -960909.39545   -654501.19845  24807941.7084   24807950.8064
      1430.0164
 -26586525.56748 -20376378.65647  20514735.6694   20514741.6574
      -441.3124
 -22013116.83247 -16926850.90947  21127962.6774   21127968.5484
      -120.8914
  -3451903.83145  -2523923.00745  24256576.7474   24256585.7394
      2321.0314
 -16075761.14248  -6036568.16547  21965838.3644   21965844.9154
       507.9844
 -23847027.50447 -18399062.82747  21504454.0284   21504460.4974
     -1701.1874
  -7568733.85644   8565251.88045  24069814.3414   24069821.7514
     -3639.2194
 01 10  2  1 20 45.0010000  0  9G13G 7G11G 8G28G26G 2G27G31
  -5615964.25745  -4226248.34745  24665251.1614   24665260.9854
     -4177.1564
  -7862010.72645  -5932243.41146  23492145.9584   23492158.2204
      2839.5164
   -982322.31745   -671186.49045  24803867.3564   24803874.8604
      1424.9224
 -26579854.84248 -20371180.66847  20516005.0914   20516011.1734
      -448.2194
 -22011261.59247 -16925405.23647  21128315.7474   21128321.5714
      -126.5784
  -3486671.46545  -2551014.57845  24249959.8024   24249969.1924
      2314.5474
 -16083350.81648  -6042482.15747  21964393.8334   21964400.5134
       503.8594
 -23821459.78447 -18379139.92147  21509319.2004   21509325.6924
     -1707.9224
  -7514102.69444   8607821.66145  24080210.3884   24080220.8684
     -3645.0314
 01 10  2  1 21  0.0010000  0  9G13G 7G11G 8G28G26G 2G27G31
  -5553292.82445  -4177413.54945  24677177.3564   24677186.7244
     -4179.1254
  -7904573.96545  -5965409.42146  23484046.0054   23484057.4114
      2835.4534
  -1003658.72945   -687812.17345  24799807.1614   24799817.3024
      1419.8284
 -26573080.40748 -20365901.87047  20517294.2164   20517300.2164
      -455.1254
 -22009321.07847 -16923893.11947  21128685.0994   21128690.9464
      -132.2504
  -3521341.35045  -2578029.99845  24243362.9034   24243370.4784
      2308.0164
 -16090878.72948  -6048348.02747  21962961.5674   21962968.3064
       499.7664
 -23795790.94747 -18359138.22846  21514203.6144   21514210.1884
     -1714.6874
  -7459384.93044   8650458.88945  24090622.8564   24090630.9234
     -3650.7664
 01 10  2  1 21 15.0010000  0  9G13G 7G11G 8G28G26G 2G27G31
  -5490589.93045  -4128554.31845  24689110.4744   24689122.5134
     -4181.1094
  -7947073.42945  -5998525.75946  23475958.3254   23475970.5284
      2831.2664
  -1024915.82245   -704376.03345  24795761.5214   24795770.6064
      1414.5784
 -26566199.57448 -20360540.16247  20518603.5604   20518609.5244
      -462.1564
 -22007293.01047 -16922312.78047  21129071.1144   21129077.0914
      -138.0164
  -3555910.85245  -2604967.17645  24236784.4894   24236794.1264
      2301.4064
 -16098342.56848  -6054163.97147  21961540.9974   21961547.5364
       495.5474
 -23770018.54547 -18339055.83246  21519108.4114   21519114.6344
     -1721.5164
  -7404578.49844   8693165.17645  24101053.2084   24101063.1264
     -3656.6254
 01 10  2  1 21 30.0010000  0  9G13G 7G11G 8G28G26G 2G27G31
  -5427857.98444  -4079672.42245  24701046.7394   24701058.7204
     -4183.0784
  -7989510.97345  -6031593.81846  23467882.8334   23467894.7904
      2827.1094
  -1046095.44345   -720879.56245  24791731.4814   24791739.3604
      1409.3914
 -26559214.49948 -20355097.22847  20519932.8174   20519938.8884
      -469.1414
 -22005179.67647 -16920666.00147  21129473.2784   21129479.1964
      -143.7344
  -3590381.83645  -2631827.60645  24230225.4114   24230233.9704
      2294.7664
 -16105744.47448  -6059931.65447  21960132.5604   21960139.1344
       491.3914
 -23744144.64847 -18318894.34446  21524031.9274   21524038.4544
     -1728.3124
  -7349685.80844   8735938.71145  24111498.4814   24111506.3844
     -3662.3594
 01 10  2  1 21 45.0010000  0  9G13G 7G11G 8G28G26G 2G27G31
  -5365097.14145  -4030768.00645  24712990.2084   24713002.3294
     -4184.9844
  -8031886.23445  -6064613.34246  23459818.9894   23459831.5564
      2822.9384
  -1067197.28645   -737322.42645  24787715.3884   24787723.5604
      1404.1724
 -26552124.92648 -20349572.86647  20521281.7784   20521287.7314
      -476.1254
 -22002981.05147 -16918952.75747  21129891.7164   21129897.5404
      -149.4224
  -3624753.93145  -2658610.98545  24223683.8804   24223692.1464
      2288.1724
 -16113084.43848  -6065651.07047  21958735.6774   21958742.2044
       487.2664
 -23718169.13547 -18298653.68146  21528974.6464   21528981.1384
     -1735.0944
  -7294707.15744   8778779.23445  24121960.3724   24121969.8214
     -3668.0944
 01 10  2  1 22  0.0010000  0  9G13G 7G11G 8G28G26G 2G27G31
  -5302308.48845  -3981841.85245  24724939.4894   24724953.7904
     -4186.9374
  -8074199.64845  -6097584.69646  23451766.9894   23451778.3134
      2818.7194
  -1088221.53945   -753704.82945  24783714.2944   24783720.7394
      1398.9224
 -26544931.50648 -20343967.58247  20522650.8964   20522656.8964
      -483.1254
 -22000697.81947 -16917173.59147  21130325.9894   21130331.8024
      -155.1414
  -3659027.41045  -2685317.52745  24217161.6304   24217171.9934
      2281.5164
 -16120363.15248  -6071322.75047  21957350.3964   21957356.7714
       483.0944
 -23692092.61447 -18278334.30746  21533937.0284   21533943.5914
     -1741.9064
  -7239643.56944   8821685.87445  24132438.4114   24132447.5794
     -3673.8124
 01 10  2  1 22 15.0010000  0  9G13G 7G11G 8G28G26G 2G27G31
  -5239490.68443  -3932893.10045  24736890.8254   24736905.6654
     -4188.7504
  -8116449.32246  -6130506.38846  23443727.0674   23443737.5954
      2814.5474
  -1109166.24245   -770025.32345  24779728.5364   24779736.8024
      1393.6884
 -26537632.46948 -20338280.00147  20524039.5834   20524045.7004
      -490.0784
 -21998328.50247 -16915327.34347  21130776.6924   21130782.6344
      -160.7814
  -3693200.43745  -2711945.76245  24210659.0284   24210668.9934
      2274.9064
 -16127579.10748  -6076945.53947  21955977.3804   21955983.7204
       479.0164
 -23665913.45747 -18257934.96146  21538918.6774   21538925.2164
     -1748.6564
  -7184493.86944   8864659.68445  24142933.1774   24142941.0444
     -3679.4694
 01 10  2  1 22 30.0010000  0  9G13G 7G11G 8G28G26G 2G27G31
  -5176644.59645  -3883922.30145  24748852.5524   24748863.2554
     -4190.7814
  -8158635.45546  -6163378.55946  23435699.2004   23435711.6384
      2810.2034
  -1130031.65145   -786283.94145  24775757.9744   24775768.8174
      1388.2814
 -26530228.27548 -20332510.48147  20525448.5604   20525454.6534
      -497.2194
 -21995873.81847 -16913414.57747  21131244.0604   21131249.8844
      -166.5784
  -3727273.25045  -2738495.90845  24204175.0284   24204185.1694
      2268.1094
 -16134732.93848  -6082519.91547  21954616.4034   21954622.6264
       474.7664
 -23639632.21647 -18237456.06446  21543920.0754   21543926.5214
     -1755.5784
  -7129258.88544   8907699.96145  24153443.9974   24153453.1654
     -3685.2504
 01 10  2  1 22 45.0010000  0  9G13G 7G11G 8G28G26G 2G27G31
  -5113770.63745  -3834929.57845  24760817.6304   24760829.0604
     -4192.4374
  -8200757.86446  -6196201.04946  23427683.1534   23427694.7004
      2806.1414
  -1150817.57145   -802480.65545  24771803.0754   24771813.8024
      1383.1724
 -26522718.72348 -20326658.85847  20526877.5364   20526883.5714
      -504.0474
 -21993333.85947 -16911435.36047  21131727.2244   21131733.1064
      -172.0624
  -3761245.61845  -2764967.83645  24197710.1064   24197718.9704
      2261.5474
 -16141824.67948  -6088045.91447  21953266.6614   21953272.8374
       470.8134
 -23613248.86547 -18216897.59546  21548940.4894   21548946.6774
     -1762.2034
  -7073939.08944   8950806.29345  24163970.9504   24163979.4504
     -3690.7034
 01 10  2  1 23  0.0010000  0  9G13G 7G11G 8G28G26G 2G27G31
  -5050870.21143  -3785916.44845  24772784.9894   24772804.0714
     -4194.2344
  -8242817.55345  -6228974.70346  23419679.1774   23419690.6534
      2801.8914
  -1171524.89745   -818616.11845  24767862.2864   24767871.8994
      1377.8754
 -26515104.95248 -20320726.02947  20528326.4114   20528332.4814
      -511.0624
 -21990709.86447 -16909390.66447  21132226.3884   21132232.3644
      -177.7194
  -3795118.29845  -2791362.02745  24191264.1304   24191272.2204
      2254.8444
 -16148855.69748  -6093524.58547  21951928.5134   21951934.8294
       466.7194
 -23586764.56847 -18196260.46746  21553980.5134   21553986.7004
     -1768.9694
  -7018535.94044   8993977.61345  24174513.9974   24174522.4034
     -3696.2974
 01 10  2  1 23 15.0010000  0  9G13G 7G11G 8G28G26G 2G27G31
  -4987941.28645  -3736881.19245  24784761.5054   24784776.2164
     -4196.1414
  -8284811.62946  -6261697.23046  23411688.2554   23411700.1184
      2797.4844
  -1192150.77645   -834688.13045  24763936.8494   24763945.5244
      1372.4064
 -26507384.52948 -20314710.09647  20529795.6854   20529801.6034
      -518.2034
 -21987999.52447 -16907278.68247  21132742.1854   21132747.9624
      -183.5004
  -3828888.60845  -2817676.49945  24184838.1534   24184848.5284
      2248.0004
 -16155823.51248  -6098954.01947  21950602.4504   21950608.8374
       462.4844
 -23560176.79347 -18175542.70846  21559039.8254   21559046.1424
     -1775.8914
  -6963047.42644   9037215.42645  24185072.9424   24185080.7744
     -3702.0164
 01 10  2  1 23 30.0010000  0  9G13G 7G11G 8G28G26G 2G27G31
  -4924986.51645  -3687825.56145  24796741.7864   24796752.1264
     -4197.7344
  -8326742.13945  -6294370.20946  23403708.8724   23403720.2314
      2793.3284
  -1212697.02845   -850698.03245  24760027.5364   24760036.3764
      1367.2034
 -26499559.40048 -20308612.56847  20531284.5994   20531290.7744
      -525.0624
 -21985205.12947 -16905101.19747  21133274.0604   21133279.9664
      -189.0004
  -3862558.45345  -2843912.65445  24178430.7634   24178439.7554
      2241.3914
 -16162730.37148  -6104335.94447  21949288.3254   21949294.6774
       458.5314
 -23533487.69447 -18154745.99846  21564118.5054   21564124.8564
     -1782.5624
  -6907476.02044   9080517.85145  24195647.7864   24195654.5834
     -3707.4064
 01 10  2  1 23 45.0010000  0  9G13G 7G11G 8G28G26G 2G27G31
  -4862005.64844  -3638749.59345  24808725.1464   24808738.5324
     -4199.6564
  -8368608.32646  -6326993.06646  23395742.4664   23395753.6614
      2788.8914
  -1233163.00145   -866645.43645  24756132.0604   24756139.9854
      1361.6564
 -26491629.10548 -20302433.09847  20532793.7864   20532799.9854
      -532.2344
 -21982326.46147 -16902858.05647  21133821.8494   21133827.6494
      -194.7664
  -3896127.11445  -2870070.00945  24172042.3494   24172050.2394
      2234.5164
 -16169575.99048  -6109670.15547  21947985.4274   21947991.8024
       454.2974
 -23506696.91947 -18133870.05446  21569216.5364   21569222.8414
     -1789.4844
  -6851821.74144   9123884.83045  24206238.1464   24206246.5874
     -3713.0784
 01 10  2  1 24  0.0010000  0  9G13G 7G11G 8G28G26G 2G27G31
  -4798997.56645  -3589652.65145  24820716.2004   24820729.6924
     -4201.5314
  -8410408.69546  -6359564.65146  23387788.0054   23387799.1424
      2784.3914
  -1253546.95145   -882528.92945  24752253.6924   24752260.8214
      1356.1094
 -26483592.28848 -20296170.62247  20534323.1534   20534329.1424
      -539.4374
 -21979362.17347 -16900548.20047  21134385.8104   21134391.6574
      -200.5624
  -3929592.99945  -2896147.18245  24165674.8104   24165682.7474
      2227.5314
 -16176359.10648  -6114955.66447  21946694.5994   21946700.9854
       450.0474
 -23479803.04347 -18112913.77646  21574334.4664   21574340.7944
     -1796.4534
  -6796083.68044   9167317.10145  24216844.7314   24216852.9384
     -3718.7664
 01 10  2  1 24 15.0010000  0  9G13G 7G11G 8G28G26G 2G27G31
  -4735963.72645  -3540535.50645  24832711.6144   24832725.8684
     -4203.0314
  -8452143.89446  -6392085.44146  23379845.8104   23379857.0054
      2780.2344
  -1273849.64644   -898349.07745  24748389.9664   24748397.3994
      1350.8754
 -26475449.68948 -20289825.71747  20535872.6304   20535878.6654
      -546.2974
 -21976313.32947 -16898172.44947  21134966.0134   21134971.8724
      -205.9844
  -3962956.81545  -2922144.91945  24159324.7314   24159333.8884
      2220.9384
 -16183080.77148  -6120193.28247  21945415.5604   21945421.8534
       446.1414
 -23452807.06847 -18091877.93546  21579471.2714   21579477.7984
     -1803.0474
  -6740262.99544   9210813.76445  24227466.9814   24227477.8964
     -3724.0474
 01 10  2  1 24 30.0010000  0  9G13G 7G11G 8G28G26G 2G27G31
  -4672903.88643  -3491398.02345  24844708.7314   24844720.4784
     -4205.0314
  -8493813.06246  -6424554.77846  23371916.5674   23371927.2824
      2775.5784
  -1294070.23444   -914105.27845  24744541.7634   24744551.4114
      1345.1094
 -26467200.72148 -20283397.92747  20537442.1924   20537448.2744
      -553.6414
 -21973179.48447 -16895730.46847  21135562.3104   21135568.1104
      -211.9224
  -3996217.58145  -2948062.31745  24152996.1694   24153006.1344
      2213.7664
 -16189740.49248  -6125382.63947  21944148.2714   21944154.6224
       441.7504
 -23425708.38747 -18070762.07246  21584628.0994   21584634.6384
     -1810.1724
  -6684359.70744   9254374.75045  24238105.6534   24238113.9074
     -3729.7974
 01 10  2  1 24 45.0010000  0  9G13G 7G11G 8G28G26G 2G27G31
  -4609818.84645  -3442241.00745  24856716.4274   24856727.2714
     -4206.4534
  -8535416.66446  -6456973.04446  23363998.9664   23364010.3254
      2771.4224
  -1314208.93443   -929797.64145  24740708.8104   24740719.0324
      1339.8754
 -26458845.95148 -20276887.69947  20539032.0524   20539038.1464
      -560.4844
 -21969961.48647 -16893222.90647  21136174.6144   21136180.4624
      -217.2974
  -4029375.81245  -2973899.82345  24146686.8414   24146694.6494
      2207.1564
 -16196339.02548  -6130524.31747  21942892.4744   21942898.8724
       437.9064
 -23398507.60947 -18049566.64946  21589804.2164   21589810.7904
     -1816.7504
  -6628374.79044   9297999.35345  24248758.9424   24248769.2594
     -3735.0004
 01 10  2  1 25  0.0010000  0  9G13G 7G11G 8G28G26G 2G27G31
  -4546708.55745  -3393064.27445  24868726.6774   24868740.2164
     -4208.3914
  -8576953.79846  -6489339.49946  23356094.8254   23356105.6574
      2766.7194
  -1334264.83643   -945425.50145  24736893.0054   24736903.1464
      1334.1094
 -26450384.67348 -20270294.47047  20540642.2004   20540648.1184
      -567.8284
 -21966658.80247 -16890649.35347  21136803.0444   21136808.8684
      -223.2034
  -4062430.61945  -2999656.75145  24140396.9584   24140404.8494
      2199.9844
 -16202875.84448  -6135617.90747  21941648.5674   21941655.0014
       433.5314
 -23371204.15347 -18028291.21246  21595000.0134   21595006.2824
     -1823.8444
  -6572308.01444   9341687.73945  24259428.0054   24259435.8024
     -3740.7034
 01 10  2  1 25 15.0010000  0  9G13G 7G11G 8G28G26G 2G27G31
  -4483571.46443  -3343866.71645  24880739.1464   24880753.5994
     -4209.8594
  -8618422.46646  -6521652.60846  23348203.5674   23348214.1424
      2762.4534
  -1354235.85043   -960987.22145  24733092.3104   24733099.0484
      1328.7344
 -26441814.95848 -20263616.74847  20542272.7864   20542278.8104
      -574.7664
 -21963269.80847 -16888008.54247  21137448.0674   21137453.8684
      -228.6414
  -4095379.77945  -3025331.34045  24134125.9354   24134132.7784
      2193.2504
 -16209349.21948  -6140662.06047  21940416.8564   21940423.1144
       429.6094
 -23343796.24147 -18006934.38746  21600215.5364   21600222.2634
     -1830.5164
  -6516157.93544   9385441.04445  24270113.2164   24270120.5444
     -3745.9374
 01 10  2  1 25 30.0010000  0  9G13G 7G11G 8G28G26G 2G27G31
  -4420412.02445  -3294651.83545  24892759.8104   24892773.0214
     -4211.2664
  -8659826.49346  -6553915.34746  23340324.5914   23340335.6814
      2758.1884
  -1374125.85043   -976485.82045  24729307.4114   24729314.6574
      1323.3754
 -26433140.93748 -20256857.75247  20543923.5914   20543929.5214
      -581.6564
 -21959798.70547 -16885303.77147  21138108.6384   21138114.5214
      -234.0474
  -4128227.26445  -3050926.70545  24127874.9584   24127881.9814
      2186.5634
 -16215763.36148  -6145660.05747  21939196.2634   21939202.4744
       425.7344
 -23316287.95347 -17985499.35646  21605450.2784   21605456.6654
     -1837.1414
  -6459929.05344   9429255.73245  24280812.6144   24280821.7824
     -3751.1094
 01 10  2  1 25 45.0010000  0  9G13G 7G11G 8G28G26G 2G27G31
  -4357228.64945  -3245417.96345  24904784.1224   24904795.8104
     -4213.2344
  -8701163.56246  -6586125.90846  23332458.4194   23332469.2634
      2753.3134
  -1393932.33843   -991919.25945  24725537.8334   24725546.6854
      1317.4224
 -26424360.33148 -20250015.70147  20545594.4354   20545600.3534
      -589.1724
 -21956243.52747 -16882533.47547  21138785.1064   21138790.9074
      -240.0314
  -4160970.71945  -3076441.01845  24121644.1614   24121653.4814
      2179.1884
 -16222116.22248  -6150610.29747  21937987.2394   21937993.3684
       421.2664
 -23288677.19847 -17963984.46346  21610704.2004   21610710.3994
     -1844.3444
  -6403619.64644   9473133.18945  24291528.2004   24291537.4624
     -3756.8444
 01 10  2  1 26  0.0010000  0  9G13G 7G11G 8G28G26G 2G27G31
  -4294019.82943  -3196164.46445  24916810.5134   24916825.7044
     -4214.6254
  -8742431.73146  -6618282.78346  23324605.0214   23324615.5364
      2749.0474
  -1413653.47043  -1007286.31345  24721785.9894   24721793.7514
      1312.0474
 -26415471.48948 -20243089.31447  20547286.0674   20547292.0674
      -596.0624
 -21952602.74847 -16879696.47847  21139477.8804   21139483.6574
      -245.4374
  -4193608.13745  -3101872.66745  24115433.6774   24115442.4704
      2172.4224
 -16228406.30748  -6155511.62347  21936790.1224   21936796.3334
       417.3914
 -23260962.32347 -17942388.45746  21615978.2634   21615984.5324
     -1850.9844
  -6347228.44544   9517074.32845  24302259.3334   24302266.5564
     -3762.0004
 01 10  2  1 26 15.0010000  0  9G13G 7G11G 8G28G26G 2G27G31
  -4230789.37143  -3146894.25045  24928842.4814   24928859.5014
     -4216.1254
  -8783634.41346  -6650388.62246  23316764.5134   23316775.5324
      2744.5944
  -1433292.51343  -1022589.29845  24718047.6534   24718057.6654
      1306.4694
 -26406477.91648 -20236081.31547  20548997.2244   20549003.2944
      -603.1094
 -21948880.08347 -16876795.67347  21140186.3414   21140192.0954
      -250.9694
  -4226142.84345  -3127224.33245  24109242.5284   24109250.9354
      2165.4844
 -16234637.31048  -6160366.90947  21935604.3724   21935610.5834
       413.3754
 -23233146.92647 -17920714.11146  21621271.4664   21621278.1224
     -1857.7664
  -6290759.44344   9561076.14345  24313005.0994   24313013.6224
     -3767.2664
 01 10  2  1 26 30.0010000  0  9G13G 7G11G 8G28G26G 2G27G31
  -4167535.97545  -3097606.08845  24940881.6304   24940894.0324
     -4217.5624
  -8824769.35846  -6682441.67746  23308936.2474   23308946.8684
      2740.1414
  -1452847.16443  -1037826.56845  24714326.6064   24714334.7554
      1300.9064
 -26397377.44448 -20228990.02247  20550729.1614   20550735.1144
      -610.1724
 -21945073.65047 -16873829.60247  21140910.5994   21140916.4464
      -256.4844
  -4258572.61445  -3152494.20645  24103071.4354   24103079.4314
      2158.5634
 -16240807.27448  -6165174.63847  21934430.3564   21934436.5444
       409.3754
 -23205228.96347 -17898959.85546  21626583.9274   21626590.3964
     -1864.5474
  -6234210.99744   9605139.87245  24323765.5284   24323774.0994
     -3772.4534
 01 10  2  1 26 45.0010000  0  9G13G 7G11G 8G28G26G 2G27G31
  -4104261.76745  -3048301.48245  24952922.1224   24952935.7784
     -4219.1564
  -8865838.11746  -6714443.17346  23301121.6384   23301131.8494
      2735.5314
  -1472318.95243  -1052999.27945  24710621.3804   24710629.2474
      1295.1724
 -26388172.00748 -20221816.93947  20552480.7634   20552486.6814
      -617.3754
 -21941185.32747 -16870799.71147  21141650.7084   21141656.3684
      -262.1094
  -4290898.87345  -3177683.42945  24096919.8964   24096928.4784
      2151.4694
 -16246918.10648  -6169936.29147  21933267.4354   21933273.5874
       405.2504
 -23177210.21347 -17877127.05446  21631915.7004   21631922.1224
     -1871.4534
  -6177585.41344   9649263.68045  24334541.0284   24334551.8254
     -3777.7814
 01 10  2  1 27  0.0010000  0  9G13G 7G11G 8G28G26G 2G27G31
  -4040967.27942  -2998981.24845  24964963.4664   24964980.6964
     -4220.2664
  -8906840.84446  -6746393.22446  23293317.8724   23293328.2944
      2731.3914
  -1491708.01544  -1068107.49745  24706931.6304   24706941.2784
      1289.9224
 -26378861.80048 -20214562.21347  20554252.4894   20554258.5834
      -624.0944
 -21937215.77947 -16867706.53147  21142406.0444   21142411.7514
      -267.2664
  -4323121.93845  -3202792.22645  24090787.2634   24090795.6814
      2144.8284
 -16252970.44848  -6174652.36247  21932115.8964   21932122.0954
       401.6094
 -23149091.19147 -17855216.11546  21637266.5674   21637273.0134
     -1877.8754
  -6120883.55344   9693446.93345  24345331.6224   24345339.2314
     -3782.5784
 01 10  2  1 27 15.0010000  0  9G13G 7G11G 8G28G26G 2G27G31
  -3977652.01945  -2949644.93645  24977015.3254   24977031.4074
     -4221.7974
  -8947776.37046  -6778290.88046  23285528.3804   23285539.4584
      2726.6884
  -1511013.03045  -1083150.26745  24703257.7084   24703264.8024
      1284.1094
 -26369445.66748 -20207224.94647  20556044.2864   20556050.2744
      -631.3594
 -21933164.05247 -16864549.32147  21143176.8884   21143182.6774
      -272.9374
  -4355240.48545  -3227819.59945  24084675.3334   24084684.7944
      2137.6564
 -16258963.31348  -6179322.09547  21930975.1924   21930981.4744
       397.4534
 -23120870.86047 -17833226.25146  21642636.8494   21642643.0364
     -1884.8284
  -6064104.72444   9737690.12645  24356135.7314   24356142.9314
     -3787.9064
 01 10  2  1 27 30.0010000  0  9G13G 7G11G 8G28G26G 2G27G31
  -3914313.46645  -2900290.31245  24989068.5444   24989082.7864
     -4223.3444
  -8988641.51546  -6810133.70746  23277751.6924   23277762.8884
      2721.9844
  -1530230.85745  -1098125.08845  24699601.2714   24699607.8804
      1278.2814
 -26359920.77148 -20199802.93947  20557856.8884   20557863.0284
      -638.6254
 -21929027.35947 -16861325.89947  21143963.9894   21143969.6734
      -278.6094
  -4387251.35345  -3252763.05745  24078584.2554   24078593.5994
      2130.4534
 -16264893.93448  -6183943.31547  21929846.7004   21929852.7824
       393.2974
 -23092546.43147 -17811155.25546  21648027.0444   21648033.2784
     -1891.7664
  -6007246.32744   9781995.32645  24366956.3334   24366963.7084
     -3793.2194
 01 10  2  1 27 45.0010000  0  9G13G 7G11G 8G28G26G 2G27G31
  -3850952.85143  -2850918.44745  25001122.6384   25001138.0174
     -4224.8124
  -9029437.10146  -6841922.33746  23269989.1304   23269999.5994
      2717.3284
  -1549362.15645  -1113032.46345  24695960.7944   24695968.7314
      1272.4694
 -26350288.05548 -20192296.90347  20559689.7784   20559695.8374
      -645.8284
 -21924807.00147 -16858037.28647  21144766.9354   21144772.6884
      -284.2034
  -4419155.32745  -3277623.21745  24072513.5914   24072522.1964
      2123.2974
 -16270763.41848  -6188516.90747  21928729.8494   21928735.9194
       389.2034
 -23064118.87447 -17789003.90246  21653436.2244   21653442.4814
     -1898.6724
  -5950309.79545   9826361.45245  24377790.6924   24377797.7984
     -3798.4064
 01 10  2  1 28  0.0010000  0  9G13G 7G11G 8G28G26G 2G27G31
  -3787570.11343  -2801529.48045  25013186.1144   25013201.7984
     -4226.2344
  -9070162.59746  -6873656.35946  23262238.6854   23262249.3994
      2712.6884
  -1568406.44145  -1127872.05245  24692336.4584   24692345.2514
      1266.6884
 -26340547.16848 -20184706.58647  20561543.3724   20561549.3724
      -653.0164
 -21920502.78047 -16854683.32247  21145586.1304   21145591.7784
      -289.7504
  -4450951.79345  -3302399.61045  24066462.8024   24066472.0754
      2116.1724
 -16276571.60848  -6193042.73447  21927624.3804   21927630.4504
       385.1564
 -23035587.94447 -17766772.01146  21658865.5914   21658871.8604
     -1905.5164
  -5893295.26245   9870788.37845  24388640.3104   24388649.1264
     -3803.5784
 01 10  2  1 28 15.0010000  0  9G13G 7G11G 8G28G26G 2G27G31
  -3724166.41345  -2752124.20445  25025252.2634   25025266.4114
     -4227.6254
  -9110818.20946  -6905335.90146  23254502.5994   23254512.6924
      2708.0164
  -1587363.97745  -1142644.04445  24688728.8964   24688738.1694
      1260.9224
 -26330698.47648 -20177032.26947  20563417.6694   20563423.6814
      -660.1874
 -21916115.26347 -16851264.45147  21146421.2714   21146426.9424
      -295.2974
  -4482641.05545  -3327092.46845  24060432.2244   24060440.8174
      2109.0164
 -16282319.06948  -6197521.23447  21926530.6464   21926536.7284
       381.1254
 -23006954.10347 -17744459.92046  21664314.5524   21664320.7744
     -1912.3754
  -5836203.65345   9915275.31345  24399504.8724   24399514.0284
     -3808.6724
 01 10  2  1 28 30.0010000  0  9G13G 7G11G 8G28G26G 2G27G31
  -3660742.51144  -2702703.11245  25037320.4194   25037335.2594
     -4229.0314
  -9151404.30746  -6936961.29946  23246779.6064   23246789.8884
      2703.3284
  -1606234.90945  -1157348.53745  24685137.9114   24685146.1184
      1255.0634
 -26320742.42848 -20169274.29647  20565312.2164   20565318.2044
      -667.4224
 -21911645.09347 -16847781.18347  21147271.5914   21147277.4274
      -300.8754
  -4514223.31145  -3351701.95045  24054422.4814   24054430.8644
      2101.7974
 -16288006.45248  -6201952.93247  21925448.3334   21925454.4154
       377.0474
 -22978217.88047 -17722068.05646  21669782.9744   21669789.3964
     -1919.2664
  -5779035.77945   9959821.69845  24410383.1144   24410392.0244
     -3813.8284
 01 10  2  1 28 45.0010000  0  9G13G 7G11G 8G28G26G 2G27G31
  -3597298.66543  -2653266.41145  25049393.2864   25049405.9584
     -4230.1414
  -9191920.59446  -6968532.29446  23239069.0524   23239079.9894
      2698.8754
  -1625018.94145  -1171985.32945  24681563.4744   24681574.2124
      1249.4534
 -26310679.04648 -20161432.68147  20567227.1614   20567233.0564
      -674.3754
 -21907092.48047 -16844233.67047  21148138.0364   21148143.6614
      -306.1564
  -4545698.32245  -3376227.86745  24048433.2164   24048441.2124
      2094.8594
 -16293633.88048  -6206337.90347  21924377.7084   21924383.8254
       373.2664
 -22949379.36247 -17699596.48046  21675270.5604   21675276.8994
     -1925.8754
  -5721792.23545  10004427.03445  24421276.3724   24421283.6774
     -3818.6564
 01 10  2  1 29  0.0010000  0  9G13G 7G11G 8G28G26G 2G27G31
  -3533834.96045  -2603814.30045  25061471.2084   25061484.4894
     -4231.3754
  -9232366.49146  -7000048.44846  23231372.0054   23231383.3174
      2694.2194
  -1643715.30545  -1186553.83945  24678005.5914   24678015.8134
      1243.6884
 -26300507.87348 -20153507.07947  20569162.6144   20569168.7084
      -681.4844
 -21902457.06547 -16840621.63247  21149020.1384   21149025.9504
      -311.5944
  -4577065.50945  -3400669.77445  24042463.4584   24042472.1814
      2087.7194
 -16299200.94948  -6210675.84647  21923318.0524   21923324.1694
       369.3134
 -22920438.01847 -17677044.78246  21680777.4744   21680783.8724
     -1932.6724
  -5664472.77845  10049091.52045  24432184.1464   24432190.7784
     -3823.6414
 01 10  2  1 29 15.0010000  0  9G13G 7G11G 8G28G26G 2G27G31
  -3470352.86945  -2554347.88545  25073551.3254   25073566.1064
     -4232.6724
  -9272742.79646  -7031510.34646  23223689.4744   23223700.3174
      2689.5164
  -1662324.97945  -1201054.79145  24674463.6854   24674472.6064
      1237.8284
 -26290229.79148 -20145498.16947  20571118.4424   20571124.4784
      -688.6874
 -21897740.12947 -16836946.07847  21149917.6924   21149923.4114
      -317.1094
  -4608325.60345  -3425028.19445  24036515.3724   24036523.3334
      2080.4844
 -16304708.86348  -6214967.69147  21922270.0834   21922276.3764
       365.2974
 -22891394.99447 -17654413.85346  21686304.5674   21686310.7204
     -1939.5164
  -5607078.99045  10093813.99145  24443105.2084   24443114.4934
     -3828.6564
 01 10  2  1 29 30.0010000  0  9G13G 7G11G 8G28G26G 2G27G31
  -3406850.70243  -2504865.90045  25085635.0604   25085649.4784
     -4234.2194
  -9313047.54546  -7062916.52446  23216019.0754   23216029.8254
      2684.5004
  -1680845.75345  -1215486.47845  24670939.3644   24670945.0014
      1231.6724
 -26279843.10448 -20137404.63547  20573094.9894   20573100.9544
      -696.1564
 -21892939.98847 -16833205.69147  21150831.0524   21150836.7714
      -322.8594
  -4639476.58845  -3449301.63945  24030586.9424   24030595.5134
      2072.9844
 -16310155.98748  -6219212.17347  21921233.5524   21921239.6814
       361.0314
 -22862248.54047 -17631702.32046  21691850.7164   21691857.0674
     -1946.6254
  -5549609.47845  10138595.38445  24454041.9504   24454050.5794
     -3833.9064
 01 10  2  1 29 45.0010000  0  9G13G 7G11G 8G28G26G 2G27G31
  -3343331.02345  -2455370.21145  25097723.3964   25097737.7554
     -4235.3594
  -9353282.61646  -7094268.39546  23208361.8644   23208372.1574
      2679.8444
  -1699279.51045  -1229850.33845  24667431.5284   24667439.0564
      1225.8754
 -26269349.83148 -20129228.04447  20575091.7864   20575097.6814
      -703.2504
 -21888058.94947 -16829402.26747  21151759.9034   21151765.7984
      -328.2504
  -4670520.32745  -3473491.50145  24024679.4034   24024687.3764
      2065.8594
 -16315544.50648  -6223410.98647  21920208.0524   21920214.2634
       357.1414
 -22833000.79147 -17608911.86646  21697416.4504   21697423.0134
     -1953.3754
  -5492066.76345  10183433.84145  24464992.1144   24465001.4464
     -3838.7664
 01 10  2  1 30  0.0010000  0  9G13G 7G11G 8G28G26G 2G27G31
  -3279793.15145  -2405860.24145  25109814.5284   25109825.1144
     -4236.5624
  -9393446.61146  -7125564.86846  23200719.2314   23200729.1264
      2675.1414
  -1717624.84445  -1244145.30245  24663940.4354   24663949.3684
      1219.9844
 -26258748.66848 -20120967.37747  20577109.1614   20577115.2084
      -710.4374
 -21883095.92047 -16825534.95247  21152704.1144   21152709.9504
      -333.6874
  -4701455.31545  -3497596.61045  24018793.0444   24018802.2244
      2058.6094
 -16320873.37748  -6227563.32347  21919193.8724   21919200.1064
       353.1724
 -22803650.58347 -17586041.57246  21703001.7004   21703008.1344
     -1960.1874
  -5434450.05545  10228329.99545  24475955.6614   24475964.6654
     -3843.6724
 01 10  2  1 30 15.0010000  0  9G13G 7G11G 8G28G26G 2G27G31
  -3216237.88844  -2356336.68545  25121906.9974   25121920.2904
     -4237.5004
  -9433539.83846  -7156806.20946  23193089.7004   23193099.5714
      2670.6254
  -1735882.03745  -1258371.61045  24660466.3884   24660475.2284
      1214.3134
 -26248040.12848 -20112623.04947  20579146.9894   20579152.8964
      -717.3754
 -21878051.56347 -16821604.26947  21153664.2554   21153669.9854
      -338.8914
  -4732281.87845  -3521617.24545  24012926.4744   24012935.2084
      2051.5944
 -16326143.20848  -6231669.65547  21918191.2084   21918197.3964
       349.4694
 -22774198.47547 -17563091.87646  21708606.4664   21708612.5954
     -1966.7664
  -5376760.23045  10273283.10845  24486933.8644   24486942.2474
     -3848.3124
 01 10  2  1 30 30.0010000  0  9G13G 7G11G 8G28G26G 2G27G31
  -3152664.40844  -2306799.17845  25134004.9974   25134023.4704
     -4238.8594
  -9473560.97146  -7187991.37646  23185473.6384   23185484.8334
      2665.6254
  -1754049.73045  -1272528.14545  24657008.5604   24657018.2314
      1208.1564
 -26237223.07348 -20104194.15447  20581205.3024   20581211.2314
      -724.7814
 -21872925.01047 -16817609.53347  21154639.6924   21154645.5404
      -344.5474
  -4762998.81645  -3545552.46045  24007081.4274   24007089.3884
      2044.0944
 -16331353.13048  -6235729.30147  21917199.5994   21917205.7044
       345.2974
 -22744643.52847 -17540062.03846  21714230.4664   21714236.5834
     -1973.7974
  -5318996.74645  10318293.60945  24497925.8104   24497934.9424
     -3853.3914
 01 10  2  1 30 45.0010000  0  9G13G 7G11G 8G28G26G 2G27G31
  -3089072.97945  -2257247.59845  25146107.4274   25146121.6104
     -4240.0474
  -9513509.51646  -7219119.99046  23177871.5604   23177881.9464
      2660.7814
  -1772127.33845  -1286614.49045  24653568.8494   24653578.0404
      1202.1094
 -26226297.19848 -20095680.46947  20583284.4194   20583290.4314
      -732.0624
 -21867716.11947 -16813550.63147  21155630.8254   21155636.5564
      -350.0314
  -4793605.50345  -3569401.78445  24001256.7864   24001265.5094
      2036.7034
 -16336502.84348  -6239742.03547  21916219.6384   21916225.6614
       341.2664
 -22714985.35247 -17516951.76046  21719874.1774   21719880.7984
     -1980.6874
  -5261159.61245  10363361.54345  24508931.5754   24508939.6304
     -3858.2974
 01 10  2  1 31  0.0010000  0  9G13G 7G11G 8G28G26G 2G27G31
  -3025465.40445  -2207683.35145  25158211.2864   25158225.2714
     -4240.9534
  -9553386.71746  -7250193.00446  23170283.2784   23170293.9704
      2656.1564
  -1790115.90145  -1300631.49445  24650145.4894   24650156.6494
      1196.3284
 -26215263.95748 -20087083.11947  20585383.9814   20585389.9814
      -739.0784
 -21862426.40147 -16809428.75647  21156637.3334   21156642.9814
      -355.2814
  -4824103.12445  -3593166.09745  23995453.2714   23995461.1144
      2029.5784
 -16341593.89448  -6243709.06147  21915250.7944   21915257.0174
       337.5004
 -22685225.42147 -17493762.21246  21725537.3804   21725543.7204
     -1987.3284
  -5203250.79245  10408485.30145  24519950.7314   24519958.9504
     -3862.9224
 01 10  2  1 31 15.0010000  0  9G13G 7G11G 8G28G26G 2G27G31
  -2961841.79243  -2158106.58945  25170317.5994   25170330.5404
     -4242.2344
  -9593192.14646  -7281210.07846  23162708.8724   23162719.4464
      2651.1564
  -1808015.14145  -1314578.88145  24646739.6774   24646749.0444
      1190.1724
 -26204122.94548 -20078401.79547  20587503.9504   20587510.0794
      -746.4694
 -21857055.86647 -16805243.89847  21157659.5674   21157665.2044
      -360.8594
  -4854491.24745  -3616845.07045  23989670.0604   23989678.9354
      2022.0944
 -16346626.25048  -6247630.34647  21914293.2394   21914299.5094
       333.4064
 -22655363.58247 -17470493.23446  21731220.0444   21731226.2314
     -1994.3124
  -5145270.28645  10453664.92845  24530984.6534   24530993.1184
     -3867.8914
 01 10  2  1 31 30.0010000  0  9G13G 7G11G 8G28G26G 2G27G31
  -2898201.65944  -2108517.02745  25182427.9814   25182439.4814
     -4243.1254
  -9632924.82346  -7312170.46046  23155147.6304   23155157.7474
      2646.5164
  -1825823.94245  -1328455.74545  24643350.6464   24643359.6734
      1184.3134
 -26192873.35148 -20069635.85447  20589644.5284   20589650.5634
      -753.5164
 -21851603.86347 -16800995.56547  21158696.9814   21158702.7244
      -366.0944
  -4884768.86645  -3640437.93745  23983909.0604   23983918.7204
      2014.9064
 -16351599.20548  -6251505.34847  21913346.6694   21913352.9274
       329.6414
 -22625399.10547 -17447144.27346  21736921.9194   21736928.0014
     -2000.9694
  -5087217.91145  10498900.58945  24542031.9034   24542040.4154
     -3872.4694
 01 10  2  1 31 45.0010000  0  9G13G 7G11G 8G28G26G 2G27G31
  -2834546.01645  -2058915.40245  25194542.4584   25194557.0874
     -4244.3594
  -9672585.14146  -7343074.49146  23147600.0054   23147609.7354
      2641.4694
  -1843542.70045  -1342262.54845  24639978.5834   24639985.5604
      1178.0944
 -26181515.79148 -20060785.79247  20591806.0134   20591812.0364
      -760.9064
 -21846071.15847 -16796684.34747  21159749.6774   21159755.3724
      -371.6874
  -4914936.40045  -3663945.07545  23978167.6774   23978175.4154
      2007.3444
 -16356513.49848  -6255334.64047  21912411.5674   21912417.5564
       325.5314
 -22595332.64847 -17423715.86046  21742643.3104   21742649.5324
     -2007.9694
  -5029094.65145  10544191.46245  24553092.3024   24553101.1654
     -3877.3754
 01 10  2  1 32  0.0010000  0  9G13G 7G11G 8G28G26G 2G27G31
  -2770872.63544  -2009299.99945  25206658.4744   25206675.6814
     -4245.2504
  -9712170.29746  -7373919.92546  23140067.3964   23140078.0404
      2636.7344
  -1861168.51645  -1355996.82445  24636624.4894   24636632.1814
      1172.1884
 -26170047.60848 -20051849.52447  20593988.0054   20593994.0054
      -768.0004
 -21840455.28347 -16792308.31747  21160818.3964   21160823.9854
      -376.9224
  -4944990.98945  -3687364.17745  23972448.6534   23972456.6614
      2000.0944
 -16361366.70348  -6259116.33047  21911488.2784   21911494.4074
       321.7344
 -22565161.66147 -17400205.98946  21748384.6304   21748390.7354
     -2014.6564
  -4970898.24745  10589539.41245  24564165.9894   24564174.2674
     -3881.9694
 01 10  2  1 32 15.0010000  0  9G13G 7G11G 8G28G26G 2G27G31
  -2707187.05144  -1959675.03945  25218777.7314   25218788.5634
     -4246.2344
  -9751685.35146  -7404710.73846  23132547.5754   23132557.8214
      2631.8594
  -1878706.40145  -1369662.61145  24633286.3174   24633294.4314
      1166.1254
 -26158474.02448 -20042831.12647  20596190.4114   20596196.4464
      -775.2344
 -21834761.66147 -16787871.70747  21161902.0134   21161907.6384
      -382.2974
  -4974937.50945  -3710699.05345  23966750.0284   23966759.0444
      1992.7194
 -16366164.04348  -6262854.48747  21910575.0994   21910581.2164
       317.8284
 -22534891.38347 -17376618.75146  21754145.1614   21754151.3024
     -2021.4694
  -4912634.38745  10634939.87345  24575253.3334   24575263.4504
     -3886.6094
 01 10  2  1 32 30.0010000  0  9G13G 7G11G 8G28G26G 2G27G31
  -2643485.55544  -1910037.52645  25230899.5834   25230911.7284
     -4247.2034
  -9791125.82846  -7435443.44446  23125042.2634   23125051.9234
      2626.9844
  -1896151.96344  -1383256.44445  24629966.9974   24629976.2004
      1160.0474
 -26146790.88048 -20033727.35647  20598413.6924   20598419.8214
      -782.4224
 -21828986.40847 -16783371.48647  21163000.6924   21163006.3414
      -387.6414
  -5004771.76445  -3733946.48445  23961072.4974   23961081.0214
      1985.2814
 -16370901.63648  -6266546.08747  21909673.5914   21909679.7784
       313.9384
 -22504517.80147 -17352951.01346  21759924.3564   21759930.4274
     -2028.2504
  -4854299.44544  10680395.68745  24586353.9424   24586360.8724
     -3891.2664
 01 10  2  1 32 45.0010000  0  9G13G 7G11G 8G28G26G 2G27G31
  -2579769.49744  -1860388.80045  25243023.9814   25243033.7474
     -4248.1254
  -9830492.59246  -7466118.73046  23117550.6694   23117560.4814
      2622.0784
  -1913505.91044  -1396778.88545  24626664.0054   24626672.0714
      1153.9694
 -26134999.18548 -20024539.00247  20600657.6144   20600663.7084
      -789.6414
 -21823130.52347 -16778808.43447  21164115.1924   21164120.7824
      -392.9694
  -5034494.33345  -3757106.87045  23955417.2314   23955425.2634
      1977.8754
 -16375580.54948  -6270191.96547  21908783.3104   21908789.4744
       310.0634
 -22474041.86647 -17329203.52446  21765724.1384   21765730.2314
     -2035.0474
  -4795894.55845  10725906.06745  24597468.0444   24597477.2944
     -3895.8754
 01 10  2  1 33  0.0010000  0  9G13G 7G11G 8G28G26G 2G27G31
  -2516038.54644  -1810728.54745  25255152.9194   25255165.8964
     -4249.2504
  -9869784.75846  -7496735.85746  23110074.1064   23110084.0954
      2616.9384
  -1930767.33644  -1410229.31445  24623379.9424   24623384.5954
      1147.6254
 -26123098.09648 -20015265.40647  20602922.3414   20602928.4114
      -797.0784
 -21817193.54547 -16774182.19447  21165245.0524   21165250.7004
      -398.5314
  -5064104.55245  -3780179.71945  23949781.4504   23949789.3764
      1970.2194
 -16380200.24248  -6273791.69447  21907904.0524   21907910.2044
       305.9694
 -22443462.97147 -17305375.79446  21771543.1064   21771549.2004
     -2042.0624
  -4737419.73345  10771470.90645  24608595.7474   24608604.0714
     -3900.6874
 01 10  2  1 33 15.0010000  0  9G13G 7G11G 8G28G26G 2G27G31
  -2452294.36144  -1761057.88245  25267282.2314   25267296.2044
     -4249.9064
  -9909003.38346  -7527295.69146  23102610.7944   23102620.3604
      2612.2664
  -1947937.29843  -1423608.37845  24620112.6854   24620119.4464
      1141.7504
 -26111088.81648 -20005907.50547  20605207.6924   20605213.6464
      -804.0784
 -21811176.82747 -16769493.81647  21166389.7864   21166395.3884
      -403.6094
  -5093603.30645  -3803165.72845  23944169.0674   23944177.7674
      1963.0004
 -16384762.06348  -6277346.32847  21907035.9194   21907042.0134
       302.3444
 -22412782.43047 -17281468.86946  21777381.5284   21777387.7164
     -2048.6094
  -4678876.57045  10817089.05245  24619736.5364   24619744.9544
     -3905.0004
 01 10  2  1 33 30.0010000  0  9G13G 7G11G 8G28G26G 2G27G31
  -2388536.30344  -1711376.42745  25279415.9584   25279427.6464
     -4251.0474
  -9948147.33146  -7557797.35146  23095161.7714   23095171.4314
      2607.0314
  -1965014.45943  -1436915.14045  24616862.0524   24616871.6184
      1135.3134
 -26098970.40648 -19996464.56947  20607513.6064   20607519.6304
      -811.5944
 -21805079.55047 -16764742.66647  21167550.0754   21167555.6774
      -409.2194
  -5122989.39845  -3826063.90445  23938576.8104   23938584.2674
      1955.2504
 -16389265.18948  -6280855.22747  21906178.9114   21906185.1224
       298.2034
 -22381999.31847 -17257482.02146  21783239.2554   21783245.3024
     -2055.6874
  -4620264.41345  10862760.98345  24630889.7394   24630897.8174
     -3909.8284
 01 10  2  1 33 45.0010000  0  9G13G 7G11G 8G28G26G 2G27G31
  -2324764.19944  -1661683.95545  25291551.6464   25291568.2674
     -4252.0474
  -9987215.75646  -7588240.13846  23087727.3724   23087737.1614
      2601.9224
  -1981997.96743  -1450148.90545  24613630.7474   24613640.4424
      1129.0004
 -26086742.14648 -19986936.03547  20609840.5754   20609846.4584
      -818.9844
 -21798901.32947 -16759928.44147  21168725.7554   21168731.3454
      -414.6724
  -5152261.89345  -3848873.60045  23933006.2394   23933015.7594
      1947.6094
 -16393709.14648  -6284318.02047  21905333.3494   21905339.4894
       294.1884
 -22351113.00647 -17233414.75346  21789116.6224   21789122.9274
     -2062.6414
  -4561583.14745  10908486.76545  24642056.1304   24642063.3764
     -3914.5004
 01 10  2  1 34  0.0010000  0  9G13G 7G11G 8G28G26G 2G27G31
  -2260979.03344  -1611981.41445  25303688.8414   25303704.1964
     -4252.7664
 -10026209.06146  -7618624.40846  23080306.8104   23080316.0834
      2597.0474
  -1998888.23943  -1463310.08745  24610416.3024   24610424.6034
      1122.9064
 -26074404.77848 -19977322.48347  20612188.2084   20612194.3134
      -826.1254
 -21792642.89147 -16755051.71547  21169916.8024   21169922.4744
      -419.9064
  -5181421.38845  -3871595.25345  23927457.0444   23927464.2084
      1940.1884
 -16398094.75448  -6287735.34447  21904498.8884   21904505.0874
       290.4384
 -22320124.31047 -17209267.70046  21795013.5994   21795019.7984
     -2069.3284
  -4502833.84245  10954265.58645  24653235.9664   24653243.0014
     -3918.8914
 01 10  2  1 34 15.0010000  0  9G13G 7G11G 8G28G26G 2G27G31
  -2197179.49944  -1562267.60145  25315830.7004   25315847.9074
     -4253.6874
 -10065125.41246  -7648948.70146  23072901.3024   23072911.2314
      2591.9534
  -2015683.31644  -1476397.06445  24607220.5444   24607228.4464
      1116.5944
 -26061956.47748 -19967622.48647  20614557.0994   20614563.0634
      -833.5004
 -21786302.68547 -16750111.27347  21171123.1774   21171128.6734
      -425.3124
  -5210465.83445  -3894227.23645  23921930.2244   23921938.2314
      1932.5474
 -16402420.31748  -6291105.88447  21903675.5754   21903681.5874
       286.4694
 -22289031.49347 -17185039.51846  21800930.2714   21800936.9154
     -2076.2344
  -4444015.14645  11000098.44345  24664428.0994   24664435.2514
     -3923.4694
 01 10  2  1 34 30.0010000  0  9G13G 7G11G 8G28G26G 2G27G31
  -2133368.65743  -1512545.05145  25327971.8254   25327987.3804
     -4254.4844
 -10103967.39146  -7679215.06246  23065509.4894   23065518.7514
      2586.9064
  -2032385.78945  -1489411.89845  24604041.8494   24604049.8684
      1110.3444
 -26049399.85848 -19957838.08847  20616946.5754   20616952.4584
      -840.7814
 -21779883.76447 -16745109.49247  21172344.5364   21172349.9504
      -430.6094
  -5239397.83445  -3916771.61345  23916424.6694   23916432.8994
      1924.9694
 -16406688.80848  -6294431.94347  21902863.4114   21902869.4934
       282.5944
 -22257837.46147 -17160732.46946  21806866.2244   21806872.4704
     -2083.0474
  -4385130.37045  11045982.77445  24675633.6534   24675642.0364
     -3927.9064
 01 10  2  1 34 45.0010000  0  9G13G 7G11G 8G28G26G 2G27G31
  -2069547.08643  -1462814.13745  25340117.4744   25340130.0524
     -4255.0164
 -10142734.86046  -7709423.34346  23058132.4424   23058141.9504
      2582.1094
  -2048995.55845  -1502354.48345  24600881.5284   24600889.8644
      1104.2974
 -26036735.44948 -19947969.70047  20619356.4504   20619362.5794
      -847.8124
 -21773386.40047 -16740046.58747  21173581.0364   21173586.4274
      -435.6724
  -5268217.31845  -3939228.29445  23910940.5444   23910947.6734
      1917.6564
 -16410900.46348  -6297713.72047  21902061.7944   21902068.0054
       278.9844
 -22226542.37647 -17136346.67546  21812821.7864   21812828.1494
     -2089.6094
  -4326179.99344  11091918.19545  24686851.5284   24686858.7394
     -3932.0944
 01 10  2  1 35  0.0010000  0  9G13G 7G11G 8G28G26G 2G27G31
  -2005712.39744  -1413073.04144  25352265.5994   25352281.4584
     -4255.9064
 -10181425.07046  -7739571.43546  23050770.0834   23050779.7784
      2576.9384
  -2065509.65545  -1515222.53745  24597738.8494   24597745.1534
      1097.9064
 -26023960.21748 -19938014.95947  20621787.5674   20621793.6034
      -855.2034
 -21766807.96847 -16734920.51647  21174832.9664   21174838.3564
      -441.0784
  -5296921.43445  -3961595.11145  23905479.1464   23905487.1424
      1909.9224
 -16415052.70948  -6300949.20647  21901271.8494   21901277.9424
       275.0164
 -22195143.55247 -17111880.05146  21818796.6464   21818802.7864
     -2096.5314
  -4267161.77045  11137906.56845  24698082.0214   24698088.8924
     -3936.6254
 01 10  2  1 35 15.0010000  0  9G13G 7G11G 8G28G26G 2G27G31
  -1941867.94144  -1363324.12545  25364414.9744   25364427.6694
     -4256.6874
 -10220040.63946  -7769661.36846  23043421.9894   23043431.8964
      2571.7974
  -2081930.73445  -1528018.10245  24594613.9194   24594621.2714
      1091.5634
 -26011077.07748 -19927976.13047  20624239.0754   20624245.0054
      -862.5624
 -21760151.65347 -16729733.75647  21176099.4274   21176104.9584
      -446.4224
  -5325512.74645  -3983874.01645  23900038.0054   23900046.0134
      1902.2664
 -16419148.56048  -6304140.74547  21900492.1384   21900498.1964
       271.1094
 -22163643.99547 -17087334.92546  21824790.7004   21824796.9114
     -2103.4064
  -4208078.94745  11183945.19645  24709324.7244   24709333.9384
     -3941.0624
 01 10  2  1 35 30.0010000  0  9G13G 7G11G 8G28G26G 2G27G31
  -1878012.62543  -1313566.91045  25376566.6774   25376578.1774
     -4257.3284
 -10258579.96746  -7799691.89046  23036087.8024   23036097.6494
      2566.7814
  -2098257.04445  -1540739.83745  24591506.9894   24591514.1534
      1085.2974
 -25998084.52448 -19917852.04447  20626711.4504   20626717.4744
      -869.7814
 -21753416.01147 -16724485.18147  21177381.3104   21177386.7474
      -451.6254
  -5353989.62445  -4006063.73945  23894618.3334   23894626.3644
      1894.6884
 -16423186.70348  -6307287.31447  21899723.7474   21899729.7354
       267.3284
 -22132042.25347 -17062710.18346  21830804.1924   21830810.4384
     -2110.1414
  -4148930.52445  11230034.95345  24720580.5054   24720588.3494
     -3945.3594
 01 10  2  1 35 45.0010000  0  9G13G 7G11G 8G28G26G 2G27G31
  -1814148.45643  -1263802.80745  25388717.9974   25388733.3294
     -4257.9064
 -10297044.49446  -7829664.12946  23028768.1464   23028777.6534
      2561.7974
  -2114490.14245  -1553388.92245  24588417.9194   24588425.2004
      1079.0784
 -25984984.25248 -19907644.02347  20629204.3024   20629210.3134
      -876.9374
 -21746603.15347 -16719176.44347  21178677.5674   21178683.1814
      -456.7814
  -5382353.60345  -4028165.50145  23889221.1534   23889229.3964
      1887.1564
 -16427169.02948  -6310390.39447  21898965.9664   21898972.0244
       263.6094
 -22100340.16447 -17038007.25746  21836837.0054   21836843.1924
     -2116.8284
  -4089718.65545  11276174.15145  24731848.3644   24731856.8644
     -3949.5784
 01 10  2  1 36  0.0010000  0  9G13G 7G11G 8G28G26G 2G27G31
  -1750273.35643  -1214030.16345  25400873.8644   25400893.4384
     -4258.6874
 -10335431.49246  -7859575.95146  23021463.1854   23021472.5634
      2556.5784
  -2130627.13746  -1565963.13545  24585347.4194   24585355.2044
      1072.6094
 -25971773.73848 -19897350.10147  20631718.1534   20631724.2714
      -884.3754
 -21739710.51547 -16713805.53447  21179989.2394   21179994.7824
      -462.1564
  -5410601.80845  -4050177.04845  23883845.6144   23883852.9784
      1879.3754
 -16431093.02148  -6313448.01647  21898219.2784   21898225.3494
       259.6564
 -22068535.14447 -17013224.10646  21842889.0444   21842895.2904
     -2123.7664
  -4030441.16645  11322364.46945  24743128.5214   24743135.2474
     -3953.9844
 01 10  2  1 36 15.0010000  0  9G13G 7G11G 8G28G26G 2G27G31
  -1686385.54744  -1164247.64245  25413032.6694   25413048.9624
     -4259.4064
 -10373738.53946  -7889425.48146  23014173.0754   23014182.7124
      2551.3284
  -2146665.70846  -1578460.66045  24582295.1854   24582303.1224
      1066.1564
 -25958450.73648 -19886968.52547  20634253.4114   20634259.3414
      -891.7664
 -21732735.99847 -16708370.82247  21181316.5524   21181322.1534
      -467.5004
  -5438731.97445  -4072096.62045  23878492.5284   23878499.5284
      1871.6094
 -16434956.64548  -6316458.60247  21897483.8254   21897490.0014
       255.7664
 -22036625.10847 -16988359.14146  21848961.6224   21848967.7514
     -2130.6414
  -3971096.44545  11368607.11945  24754420.9034   24754430.2824
     -3958.3754
 01 10  2  1 36 30.0010000  0  9G13G 7G11G 8G28G26G 2G27G31
  -1622487.95744  -1114457.44645  25425191.7714   25425204.9114
     -4260.2664
 -10411968.18546  -7919214.68746  23006898.3334   23006908.1224
      2545.9534
  -2162608.22846  -1590883.33345  24579261.5994   24579268.5754
      1059.5314
 -25945017.74048 -19876501.23847  20636809.5524   20636815.5284
      -899.2974
 -21725682.53047 -16702874.59747  21182658.6774   21182664.2434
      -472.9534
  -5466746.48145  -4093926.06845  23873161.8724   23873167.9314
      1863.6564
 -16438762.73248  -6319424.34347  21896759.5364   21896765.6884
       251.7194
 -22004612.74647 -16963414.43646  21855053.3174   21855059.3764
     -2137.6724
  -3911687.29345  11414899.98545  24765726.7314   24765734.1064
     -3962.8594
 01 10  2  1 36 45.0010000  0  9G13G 7G11G 8G28G26G 2G27G31
  -1558581.25943  -1064660.12644  25437352.5604   25437366.0994
     -4260.6414
 -10450120.59146  -7948943.71946  22999638.5834   22999647.8214
      2541.0004
  -2178454.85846  -1603231.30945  24576245.9814   24576253.7084
      1053.3284
 -25931475.28648 -19865948.66347  20639386.7004   20639392.6424
      -906.3914
 -21718550.69047 -16697317.30847  21184015.9194   21184021.4974
      -477.9694
  -5494645.34545  -4115665.40445  23867852.5834   23867860.3564
      1856.1724
 -16442511.75648  -6322345.63347  21896046.2554   21896052.3604
       248.1254
 -21972498.45847 -16938390.30946  21861164.4584   21861170.4704
     -2144.2664
  -3852214.50544  11461242.57245  24777043.9034   24777052.3804
     -3966.8594
 01 10  2  1 37  0.0010000  0  9G13G 7G11G 8G28G26G 2G27G31
  -1494667.28843  -1014857.28544  25449514.7314   25449528.6464
     -4261.1874
 -10488196.93746  -7978613.49046  22992392.4194   22992402.1264
      2535.8594
  -2194206.74246  -1615505.44245  24573248.8024   24573256.5754
      1046.9534
 -25917824.66048 -19855311.79547  20641984.2474   20641990.2824
      -913.6724
 -21711341.99547 -16691700.12747  21185387.5834   21185393.1384
      -483.1564
  -5522430.00445  -4137315.75045  23862565.1924   23862573.6224
      1848.4694
 -16446205.27448  -6325223.66547  21895343.2554   21895349.2314
       244.3754
 -21940283.84747 -16913288.00746  21867294.7714   21867300.9234
     -2151.0004
  -3792680.01144  11507633.13145  24788372.6854   24788379.6034
     -3971.0474
 01 10  2  1 37 15.0010000  0  9G13G 7G11G 8G28G26G 2G27G31
  -1430745.23743   -965048.02645  25461678.7084   25461699.2204
     -4261.7504
 -10526195.73646  -8008222.82846  22985161.2634   22985170.0674
      2530.6414
  -2209862.39246  -1627704.58245  24570269.2714   24570276.9154
      1040.4694
 -25904064.49248 -19844589.57247  20644602.6774   20644608.6184
      -921.0164
 -21704055.25847 -16686022.13247  21186774.2314   21186779.8804
      -488.3914
  -5550098.78845  -4158875.79545  23857299.9664   23857309.2514
      1840.6724
 -16449842.08948  -6328057.51447  21894651.3804   21894657.5444
       240.5474
 -21907967.64347 -16888106.55146  21873444.2004   21873450.6694
     -2157.8124
  -3733082.79544  11554072.63845  24799713.2244   24799721.9584
     -3975.2504
 01 10  2  1 37 30.0010000  0  9G13G 7G11G 8G28G26G 2G27G31
  -1366816.42743   -915233.46444  25473844.4744   25473865.1534
     -4262.1414
 -10564117.81646  -8037772.37946  22977944.6534   22977953.7284
      2525.5784
  -2225422.55846  -1639829.32245  24567307.9114   24567315.6384
      1034.1414
 -25890195.98048 -19833782.92247  20647241.8964   20647247.9894
      -928.1874
 -21696691.73347 -16680284.30447  21188175.4194   21188180.9384
      -493.4534
  -5577652.62645  -4180346.29445  23852057.1144   23852065.1344
      1833.0944
 -16453423.40748  -6330848.12347  21893969.8414   21893975.9814
       236.9064
 -21875550.91947 -16862846.76046  21879613.1854   21879619.4194
     -2164.4694
  -3673424.58744  11600559.60845  24811066.3964   24811074.1694
     -3979.2344
 01 10  2  1 37 45.0010000  0  9G13G 7G11G 8G28G26G 2G27G31
  -1302878.60343   -865411.99645  25486011.3414   25486025.8764
     -4262.7344
 -10601960.52246  -8067260.08046  22970743.7164   22970753.1064
      2520.2664
  -2240884.31746  -1651877.38245  24564365.6924   24564372.8214
      1027.5784
 -25876216.42548 -19822889.74647  20649902.0214   20649908.0794
      -935.5784
 -21689249.00547 -16674484.75847  21189591.6224   21189597.0484
      -498.7344
  -5605088.53545  -4201724.87745  23846836.3644   23846844.6304
      1825.2344
 -16456946.68448  -6333593.49647  21893299.3644   21893305.4234
       233.0314
 -21843031.18547 -16837506.70546  21885801.3334   21885807.6264
     -2171.3444
  -3613703.08744  11647095.89745  24822430.3644   24822439.8494
     -3983.4534
 01 10  2  1 38  0.0010000  0  9G13G 7G11G 8G28G26G 2G27G31
  -1238932.25643   -815583.84345  25498179.7084   25498196.0604
     -4263.4224
 -10639723.62846  -8096685.76546  22963557.2554   22963566.7514
      2514.8134
  -2256247.54846  -1663848.65445  24561441.9814   24561449.2634
      1020.8444
 -25862125.72748 -19811909.96147  20652583.4814   20652589.4704
      -943.1564
 -21681727.23047 -16668623.62047  21191023.0914   21191028.6344
      -504.1564
  -5632406.49345  -4223011.57745  23841637.0364   23841644.4704
      1817.1884
 -16460412.09248  -6336293.78247  21892639.8334   21892645.8214
       229.0314
 -21810408.45947 -16812086.38846  21892008.9894   21892015.2824
     -2178.3594
  -3553918.73944  11693681.20045  24833807.3334   24833815.2714
     -3987.7814
 01 10  2  1 38 15.0010000  0  9G13G 7G11G 8G28G26G 2G27G31
  -1174976.60943   -765748.46245  25510351.9664   25510364.4384
     -4263.9694
 -10677405.64946  -8126048.26446  22956386.9664   22956396.1694
      2509.4844
  -2271510.82746  -1675742.06645  24558537.4034   24558544.9784
      1014.2664
 -25847922.83448 -19800842.75847  20655286.2004   20655292.2124
      -950.5624
 -21674125.30147 -16662700.02447  21192469.4744   21192474.8294
      -509.4224
  -5659605.02145  -4244205.18445  23836460.9034   23836468.0214
      1809.2974
 -16463818.52148  -6338948.11147  21891991.5364   21891997.6774
       225.1724
 -21777681.64647 -16786584.97646  21898236.9974   21898243.3254
     -2185.2194
  -3494070.73644  11740316.12045  24845195.9194   24845202.3294
     -3991.9374
 01 10  2  1 38 30.0010000  0  9G13G 7G11G 8G28G26G 2G27G31
  -1111015.58144   -715908.80245  25522523.2004   25522539.1884
     -4264.1414
 -10715010.29246  -8155350.47546  22949230.7554   22949239.5834
      2504.5004
  -2286677.81545  -1687560.42145  24555650.7784   24555658.8334
      1008.0004
 -25833611.37148 -19789690.95147  20658009.3884   20658015.4704
      -957.6254
 -21666447.33547 -16656717.18147  21193930.6304   21193936.0444
      -514.2974
  -5686687.76945  -4265308.58445  23831308.0914   23831315.6064
      1801.7344
 -16467169.91748  -6341559.55847  21891353.8104   21891359.9274
       221.6884
 -21744854.62647 -16761005.47746  21904483.8804   21904490.3724
     -2191.7034
  -3434163.14644  11786997.44745  24856595.8884   24856604.5284
     -3995.7194
 01 10  2  1 38 45.0020000  0  9G13G 7G11G 8G28G26G 2G27G31
  -1047045.42343   -666062.00444  25534696.0104   25534708.7874
     -4264.6564
 -10752539.87146  -8184594.19046  22942089.3694   22942098.7134
      2499.0944
  -2301749.19245  -1699304.29845  24552783.2604   24552791.1044
      1001.3444
 -25819190.40748 -19778453.81847  20660753.7444   20660759.7684
      -965.0624
 -21658692.94347 -16650674.78047  21195406.2214   21195411.5884
      -519.5624
  -5713656.27445  -4286322.96345  23826176.0644   23826183.7914
      1793.7814
 -16470466.71548  -6344128.46147  21890726.4794   21890732.4904
       217.8284
 -21711925.28847 -16735346.25746  21910750.1194   21910756.2134
     -2198.5944
  -3374192.59644  11833727.85145  24868007.1584   24868012.2684
     -3999.8444
 01 10  2  1 39  0.0020000  0  9G13G 7G11G 8G28G26G 2G27G31
   -983070.89643   -616211.90545  25546868.4554   25546880.2014
     -4265.1874
 -10789985.09446  -8213772.16146  22934963.3074   22934972.6504
      2493.6724
  -2316718.66745  -1710968.73645  24549934.3144   24549941.8074
       994.6724
 -25804657.80748 -19767129.69747  20663519.2684   20663525.2914
      -972.5164
 -21650859.14047 -16644570.50847  21196897.0184   21196902.4674
      -524.8444
  -5740502.74345  -4307242.24545  23821067.4944   23821074.9984
      1785.8134
 -16473704.42048  -6346651.32347  21890110.3074   21890116.2954
       213.9534
 -21678893.97647 -16709607.56546  21917035.3464   21917041.6044
     -2205.4844
  -3314163.28544  11880504.05645  24879430.8614   24879436.3814
     -4003.9694
 01 10  2  1 39 15.0020000  0  9G13G 7G11G 8G28G26G 2G27G31
   -919091.26843   -566357.98944  25559043.8694   25559058.0644
     -4265.5474
 -10827351.47946  -8242888.71746  22927852.6664   22927861.2604
      2488.3754
  -2331590.09445  -1722556.82245  24547104.6354   24547112.0684
       988.0634
 -25790015.93148 -19755720.42947  20666305.4244   20666311.4364
      -979.8594
 -21642948.87047 -16638406.64647  21198402.2754   21198407.6894
      -529.9694
  -5767231.77545  -4328070.01145  23815980.8614   23815989.1154
      1777.9384
 -16476886.62248  -6349130.92847  21889504.9164   21889510.9634
       210.2194
 -21645761.75447 -16683790.25946  21923340.4164   21923346.8504
     -2212.2504
  -3254074.95644  11927326.20045  24890865.1894   24890874.7214
     -4007.9374
 01 10  2  1 39 30.0020000  0  9G13G 7G11G 8G28G26G 2G27G31
   -855106.35143   -516499.60845  25571220.6974   25571238.1154
     -4265.9064
 -10864638.11346  -8271943.13346  22920757.4084   22920766.6354
      2483.0164
  -2346362.75045  -1734067.89345  24544293.2444   24544300.5614
       981.4534
 -25775263.81948 -19744225.26247  20669112.7294   20669118.6584
      -987.2034
 -21634961.68347 -16632182.84947  21199922.2524   21199927.6894
      -535.1254
  -5793842.78345  -4348805.83645  23810916.9164   23810925.9434
      1770.0164
 -16480012.79848  -6351566.88347  21888909.8464   21888915.9514
       206.4534
 -21612528.06447 -16657893.88246  21929664.5414   21929670.7404
     -2219.0474
  -3193927.35844  11974194.50945  24902310.7364   24902318.9904
     -4011.9064
 01 10  2  1 39 45.0020000  0  9G13G 7G11G 8G28G26G 2G27G31
   -791116.00843   -466637.16644  25583398.1354   25583412.8464
     -4266.3914
 -10901844.28446  -8300934.83646  22913677.3144   22913686.5644
      2477.5474
  -2361035.82545  -1745501.40145  24541501.2364   24541507.5884
       974.6414
 -25760401.05448 -19732643.87547  20671941.0964   20671947.0844
      -994.7504
 -21626897.14747 -16625898.78547  21201456.6744   21201462.0184
      -540.4224
  -5820334.79545  -4369448.90745  23805875.6974   23805883.7404
      1761.9534
 -16483082.53148  -6353958.86247  21888325.5104   21888331.6744
       202.5474
 -21579192.44047 -16631918.07846  21936008.2604   21936014.6704
     -2225.9844
  -3133720.10744  12021109.34745  24913767.5494   24913773.2214
     -4016.0004
 01 10  2  1 40  0.0020000  0  9G13G 7G11G 8G28G26G 2G27G31
   -727117.84543   -416768.66544  25595576.9244   25595586.1044
     -4266.7664
 -10938967.21946  -8329861.68846  22906612.7364   22906621.6704
      2472.1254
  -2375606.37144  -1756854.95845  24538728.5334   24538735.0144
       968.0004
 -25745424.98248 -19720974.19447  20674790.7994   20674796.7874
     -1002.1414
 -21618752.68047 -16619552.43547  21203006.5574   21203011.9594
      -545.5784
  -5846704.92545  -4389997.01045  23800857.5184   23800865.0334
      1754.0004
 -16486093.15248  -6356304.76747  21887752.7834   21887758.8074
       198.7814
 -21545752.23047 -16605860.76946  21942371.8544   21942377.7834
     -2232.7974
  -3073451.08944  12068072.36945  24925236.9634   24925243.1394
     -4019.9224
